[[{"header":{"parameterUnit":"m.s-1","parameterCategory":1,"la1":30.6,"la2":28.766,"lo1":-90.7593,"lo2":-88.6598,"dy":0.0162,"dx":0.0183,"nx":116,"ny":114,"refTime":"2023-03-21T06:00:00:Z","depth":0,"parameterNumber":2,"parameterNumberName":"U-component_of_WINDS"},"data":[0.0,0.0,0.0,0.0,0.0,0.0,0.0,0.0,0.0,0.0,0.0,0.0,0.0,0.0,0.0,0.0,0.0,0.0,0.0,0.0,0.0,0.0,0.0,0.0,0.0,0.0,0.0,0.0,0.0,0.0,0.0,0.0,0.0,0.0,0.0,0.0,0.0,0.0,0.0,0.0,0.0,0.0,0.0,0.0,0.0,0.0,0.0,0.0,0.0,0.0,0.0,0.0,0.0,0.0,0.0,0.0,0.0,0.0,0.0,0.0,0.0,0.0,0.0,0.0,0.0,0.0,0.0,0.0,0.0,0.0,0.0,0.0,0.0,0.0,0.0,0.0,0.0,0.0,0.0,0.0,0.0,0.0,0.0,0.0,0.0,0.0,0.0,0.0,0.0,0.0,0.0,0.0,0.0,0.0,0.0,0.0,0.0,0.0,0.0,0.0,0.0,0.0,0.0,0.0,0.0,0.0,0.0,0.0,0.0,0.0,0.0,0.0,0.0,0.0,0.0,0.0,0.0,0.0,0.0,0.0,0.0,0.0,0.0,0.0,0.0,0.0,0.0,0.0,0.0,0.0,0.0,0.0,0.0,0.0,0.0,0.0,0.0,0.0,0.0,0.0,0.0,0.0,0.0,0.0,0.0,0.0,0.0,0.0,0.0,0.0,0.0,0.0,0.0,0.0,0.0,0.0,0.0,0.0,0.0,0.0,0.0,0.0,0.0,0.0,0.0,0.0,0.0,0.0,0.0,0.0,0.0,0.0,0.0,0.0,0.0,0.0,0.0,0.0,0.0,0.0,0.0,0.0,0.0,0.0,0.0,0.0,0.0,0.0,0.0,0.0,0.0,0.0,0.0,0.0,0.0,0.0,0.0,0.0,0.0,0.0,0.0,0.0,0.0,0.0,0.0,0.0,0.0,0.0,0.0,0.0,0.0,0.0,0.0,0.0,0.0,0.0,0.0,0.0,0.0,0.0,0.0,0.0,0.0,0.0,0.0,0.0,0.0,0.0,0.0,0.0,0.0,0.0,0.0,0.0,0.0,0.0,0.0,0.0,0.0,0.0,0.0,0.0,0.0,0.0,0.0,0.0,0.0,0.0,0.0,0.0,0.0,0.0,0.0,0.0,0.0,0.0,0.0,0.0,0.0,0.0,0.0,0.0,0.0,0.0,0.0,0.0,0.0,0.0,0.0,0.0,0.0,0.0,0.0,0.0,0.0,0.0,0.0,0.0,0.0,0.0,0.0,0.0,0.0,0.0,0.0,0.0,0.0,0.0,0.0,0.0,0.0,0.0,0.0,0.0,0.0,0.0,0.0,0.0,0.0,0.0,0.0,0.0,0.0,0.0,0.0,0.0,0.0,0.0,0.0,0.0,0.0,0.0,0.0,0.0,0.0,0.0,0.0,0.0,0.0,0.0,0.0,0.0,0.0,0.0,0.0,0.0,0.0,0.0,0.0,0.0,0.0,0.0,0.0,0.0,0.0,0.0,0.0,0.0,0.0,0.0,0.0,0.0,0.0,0.0,0.0,0.0,0.0,0.0,0.0,0.0,0.0,0.0,0.0,0.0,0.0,0.0,0.0,0.0,0.0,0.0,0.0,0.0,0.0,0.0,0.0,0.0,0.0,0.0,0.0,0.0,0.0,0.0,0.0,0.0,0.0,0.0,0.0,0.0,0.0,0.0,0.0,0.0,0.0,0.0,0.0,0.0,0.0,0.0,0.0,0.0,0.0,0.0,0.0,0.0,0.0,0.0,0.0,0.0,0.0,0.0,0.0,0.0,0.0,0.0,0.0,0.0,0.0,0.0,0.0,0.0,0.0,0.0,0.0,0.0,0.0,0.0,0.0,0.0,0.0,0.0,0.0,0.0,0.0,0.0,0.0,0.0,0.0,0.0,0.0,0.0,0.0,0.0,0.0,0.0,0.0,0.0,0.0,0.0,0.0,0.0,0.0,0.0,0.0,0.0,0.0,0.0,0.0,0.0,0.0,0.0,0.0,0.0,0.0,0.0,0.0,0.0,0.0,0.0,0.0,0.0,0.0,0.0,0.0,0.0,0.0,0.0,0.0,0.0,0.0,0.0,0.0,0.0,0.0,0.0,0.0,0.0,0.0,0.0,0.0,0.0,0.0,0.0,0.0,0.0,0.0,0.0,0.0,0.0,0.0,0.0,0.0,0.0,0.0,0.0,0.0,0.0,0.0,0.0,0.0,0.0,0.0,0.0,0.0,0.0,0.0,0.0,0.0,0.0,0.0,0.0,0.0,0.0,0.0,0.0,0.0,0.0,0.0,0.0,0.0,0.0,0.0,0.0,0.0,0.0,0.0,0.0,0.0,0.0,0.0,0.0,0.0,0.0,0.0,0.0,0.0,0.0,0.0,0.0,0.0,0.0,0.0,0.0,0.0,0.0,0.0,0.0,0.0,0.0,0.0,0.0,0.0,0.0,0.0,0.0,0.0,0.0,0.0,0.0,0.0,0.0,0.0,0.0,0.0,0.0,0.0,0.0,0.0,0.0,0.0,0.0,0.0,0.0,0.0,0.0,0.0,0.0,0.0,0.0,0.0,0.0,0.0,0.0,0.0,0.0,0.0,0.0,0.0,0.0,0.0,0.0,0.0,0.0,0.0,0.0,0.0,0.0,0.0,0.0,0.0,0.0,0.0,0.0,0.0,0.0,0.0,0.0,0.0,0.0,0.0,0.0,0.0,0.0,0.0,0.0,0.0,0.0,0.0,0.0,0.0,0.0,0.0,0.0,0.0,0.0,0.0,0.0,0.0,0.0,0.0,0.0,0.0,0.0,0.0,0.0,0.0,0.0,0.0,0.0,0.0,0.0,0.0,0.0,0.0,0.0,0.0,0.0,0.0,0.0,0.0,0.0,0.0,0.0,0.0,0.0,0.0,0.0,0.0,0.0,0.0,0.0,0.0,0.0,0.0,0.0,0.0,0.0,0.0,0.0,0.0,0.0,0.0,0.0,0.0,0.0,0.0,0.0,0.0,0.0,0.0,0.0,0.0,0.0,0.0,0.0,0.0,0.0,0.0,0.0,0.0,0.0,0.0,0.0,0.0,0.0,0.0,0.0,0.0,0.0,0.0,0.0,0.0,0.0,0.0,0.0,0.0,0.0,0.0,0.0,0.0,0.0,0.0,0.0,0.0,0.0,0.0,0.0,0.0,0.0,0.0,0.0,0.0,0.0,0.0,0.0,0.0,0.0,0.0,0.0,0.0,0.0,0.0,0.0,0.0,0.0,0.0,0.0,0.0,0.0,0.0,0.0,0.0,0.0,0.0,0.0,0.0,0.0,0.0,0.0,0.0,0.0,0.0,0.0,0.0,0.0,0.0,0.0,0.0,0.0,0.0,0.0,0.0,0.0,0.0,0.0,0.0,0.0,0.0,0.0,0.0,0.0,0.0,0.0,0.0,0.0,0.0,0.0,0.0,0.0,0.0,0.0,0.0,0.0,0.0,0.0,0.0,0.0,0.0,0.0,0.0,0.0,0.0,0.0,0.0,0.0,0.0,0.0,0.0,0.0,0.0,0.0,0.0,0.0,0.0,0.0,0.0,0.0,0.0,0.0,0.0,0.0,0.0,0.0,0.0,0.0,0.0,0.0,0.0,0.0,0.0,0.0,0.0,0.0,0.0,0.0,0.0,0.0,0.0,0.0,0.0,0.0,0.0,0.0,0.0,0.0,0.0,0.0,0.0,0.0,0.0,0.0,0.0,0.0,0.0,0.0,0.0,0.0,0.0,0.0,0.0,0.0,0.0,0.0,0.0,0.0,0.0,0.0,0.0,0.0,0.0,0.0,0.0,0.0,0.0,0.0,0.0,0.0,0.0,0.0,0.0,0.0,0.0,0.0,0.0,0.0,0.0,0.0,0.0,0.0,0.0,0.0,0.0,0.0,0.0,0.0,0.0,0.0,0.0,0.0,0.0,0.0,0.0,0.0,0.0,0.0,0.0,0.0,0.0,0.0,0.0,0.0,0.0,0.0,0.0,0.0,0.0,0.0,0.0,0.0,0.0,0.0,0.0,0.0,0.0,0.0,0.0,0.0,0.0,0.0,0.0,0.0,0.0,0.0,0.0,0.0,0.0,0.0,0.0,0.0,0.0,0.0,0.0,0.0,0.0,0.0,0.0,0.0,0.0,0.0,0.0,0.0,0.0,0.0,0.0,0.0,0.0,0.0,0.0,0.0,0.0,0.0,0.0,0.0,0.0,0.0,0.0,0.0,0.0,0.0,0.0,0.0,0.0,0.0,0.0,0.0,0.0,0.0,0.0,0.0,0.0,0.0,0.0,0.0,0.0,0.0,0.0,0.0,0.0,0.0,0.0,0.0,0.0,0.0,0.0,0.0,0.0,0.0,0.0,0.0,0.0,0.0,0.0,0.0,0.0,0.0,0.0,0.0,0.0,0.0,0.0,0.0,0.0,0.0,0.0,0.0,0.0,0.0,0.0,0.0,0.0,0.0,0.0,0.0,0.0,0.0,0.0,0.0,0.0,0.0,0.0,0.0,0.0,0.0,0.0,0.0,0.0,0.0,0.0,0.0,0.0,0.0,0.0,0.0,0.0,0.0,0.0,0.0,0.0,0.0,0.0,0.0,0.0,0.0,0.0,0.0,0.0,0.0,0.0,0.0,0.0,0.0,0.0,0.0,0.0,0.0,0.0,0.0,0.0,0.0,0.0,0.0,0.0,0.0,0.0,0.0,0.0,0.0,0.0,0.0,0.0,0.0,0.0,0.0,0.0,0.0,0.0,0.0,0.0,0.0,0.0,0.0,0.0,0.0,0.0,0.0,0.0,0.0,0.0,0.0,0.0,0.0,0.0,0.0,0.0,0.0,0.0,0.0,0.0,0.0,0.0,0.0,0.0,0.0,0.0,0.0,0.0,0.0,0.0,0.0,0.0,0.0,0.0,0.0,0.0,0.0,0.0,0.0,0.0,0.0,0.0,0.0,0.0,0.0,0.0,0.0,0.0,0.0,0.0,0.0,0.0,0.0,0.0,0.0,0.0,0.0,0.0,0.0,0.0,0.0,0.0,0.0,0.0,0.0,0.0,0.0,0.0,0.0,0.0,0.0,0.0,0.0,0.0,0.0,0.0,0.0,0.0,0.0,0.0,0.0,0.0,0.0,0.0,0.0,0.0,0.0,0.0,0.0,0.0,0.0,0.0,0.0,0.0,0.0,0.0,0.0,0.0,0.0,0.0,0.0,0.0,0.0,0.0,0.0,0.0,0.0,0.0,0.0,0.0,0.0,0.0,0.0,0.0,0.0,0.0,0.0,0.0,0.0,0.0,0.0,0.0,0.0,0.0,0.0,0.0,0.0,0.0,0.0,0.0,0.0,0.0,0.0,0.0,0.0,0.0,0.0,0.0,0.0,0.0,0.0,0.0,0.0,0.0,0.0,0.0,0.0,0.0,0.0,0.0,0.0,0.0,0.0,0.0,0.0,0.0,0.0,0.0,0.0,0.0,0.0,0.0,0.0,0.0,0.0,0.0,0.0,0.0,0.0,0.0,0.0,0.0,0.0,0.0,0.0,0.0,0.0,0.0,0.0,0.0,0.0,0.0,0.0,0.0,0.0,0.0,0.0,0.0,0.0,0.0,0.0,0.0,0.0,0.0,0.0,0.0,0.0,0.0,0.0,0.0,0.0,0.0,0.0,0.0,0.0,0.0,0.0,0.0,0.0,0.0,0.0,0.0,0.0,0.0,0.0,0.0,0.0,0.0,0.0,0.0,0.0,0.0,0.0,0.0,0.0,0.0,0.0,0.0,0.0,0.0,0.0,0.0,0.0,0.0,0.0,0.0,0.0,0.0,0.0,0.0,0.0,0.0,0.0,0.0,0.0,0.0,0.0,0.0,0.0,0.0,0.0,0.0,0.0,0.0,0.0,0.0,0.0,0.0,0.0,0.0,0.0,0.0,0.0,0.0,0.0,0.0,0.0,0.0,0.0,0.0,0.0,0.0,0.0,0.0,0.0,0.0,0.0,0.0,0.0,0.0,0.0,0.0,0.0,0.0,0.0,0.0,0.0,0.0,0.0,0.0,0.0,0.0,0.0,0.0,0.0,0.0,0.0,0.0,0.0,0.0,0.0,0.0,0.0,-8.4167,-8.4167,0.0,0.0,0.0,0.0,0.0,0.0,0.0,0.0,0.0,0.0,0.0,0.0,0.0,0.0,0.0,0.0,0.0,0.0,0.0,0.0,0.0,0.0,0.0,0.0,0.0,0.0,0.0,0.0,0.0,0.0,0.0,0.0,0.0,0.0,0.0,0.0,0.0,0.0,-4.8309,-4.8611,-4.9163,-4.8862,-4.8887,-4.9188,0.0,0.0,0.0,0.0,0.0,0.0,0.0,0.0,0.0,0.0,0.0,0.0,0.0,0.0,0.0,0.0,0.0,0.0,0.0,0.0,0.0,0.0,0.0,0.0,0.0,0.0,0.0,0.0,0.0,0.0,0.0,0.0,0.0,0.0,0.0,0.0,0.0,0.0,0.0,0.0,0.0,0.0,0.0,0.0,0.0,0.0,0.0,0.0,0.0,0.0,0.0,0.0,0.0,0.0,0.0,0.0,0.0,0.0,0.0,0.0,0.0,0.0,0.0,0.0,0.0,0.0,0.0,0.0,0.0,0.0,-8.464,-8.464,0.0,0.0,0.0,0.0,0.0,0.0,0.0,0.0,0.0,0.0,0.0,0.0,0.0,0.0,0.0,0.0,0.0,0.0,0.0,0.0,0.0,0.0,0.0,0.0,-4.618,-4.5853,-4.612,-4.6301,0.0,0.0,0.0,0.0,0.0,0.0,0.0,-4.7832,-4.8335,-4.8912,-4.8912,-4.9163,-4.959,-4.959,-4.959,-4.959,-4.959,0.0,0.0,0.0,0.0,0.0,0.0,0.0,0.0,0.0,0.0,0.0,0.0,0.0,0.0,0.0,0.0,0.0,0.0,0.0,0.0,0.0,0.0,0.0,0.0,0.0,0.0,0.0,0.0,0.0,0.0,0.0,0.0,0.0,0.0,0.0,0.0,0.0,0.0,0.0,0.0,0.0,0.0,0.0,0.0,0.0,0.0,0.0,0.0,0.0,0.0,0.0,0.0,0.0,0.0,0.0,0.0,0.0,0.0,0.0,0.0,0.0,0.0,0.0,-8.464,-8.464,-8.464,-8.464,-8.464,-8.464,-8.464,-8.464,-8.464,-8.464,0.0,0.0,0.0,0.0,0.0,0.0,0.0,0.0,0.0,0.0,0.0,0.0,0.0,0.0,0.0,0.0,0.0,0.0,0.0,0.0,0.0,-4.5281,-4.5671,-4.4165,-4.5403,-4.6301,0.0,0.0,0.0,0.0,0.0,0.0,-4.8535,-4.8636,-4.8937,-4.949,-4.949,-4.9515,-4.959,-4.959,-4.959,-4.959,-4.959,-4.959,-4.959,0.0,0.0,0.0,0.0,0.0,0.0,0.0,0.0,0.0,0.0,0.0,0.0,0.0,0.0,0.0,0.0,0.0,0.0,0.0,0.0,0.0,0.0,0.0,0.0,0.0,0.0,0.0,0.0,0.0,0.0,0.0,0.0,0.0,0.0,0.0,0.0,0.0,0.0,0.0,0.0,0.0,-6.8016,-6.8764,0.0,0.0,0.0,0.0,0.0,0.0,0.0,0.0,0.0,0.0,0.0,0.0,0.0,-7.6642,-7.9978,-8.0075,-8.1621,-8.464,-8.464,-8.464,-8.464,-8.464,-8.464,-8.464,-8.464,0.0,-8.464,-8.464,0.0,0.0,0.0,0.0,0.0,0.0,0.0,0.0,0.0,0.0,0.0,0.0,0.0,0.0,0.0,0.0,0.0,0.0,0.0,0.0,0.0,-4.5281,-4.5974,-4.522,-4.5853,-4.6301,-4.6301,-4.6602,0.0,0.0,0.0,-4.8284,-4.8761,-4.9088,-4.9364,-4.959,-4.959,-4.959,-4.959,-4.959,-4.959,-4.959,-4.959,-4.959,-4.959,-4.959,0.0,0.0,0.0,0.0,0.0,0.0,0.0,0.0,0.0,0.0,0.0,0.0,0.0,0.0,0.0,0.0,0.0,0.0,0.0,0.0,0.0,0.0,0.0,0.0,0.0,0.0,0.0,0.0,0.0,0.0,0.0,0.0,0.0,0.0,0.0,0.0,0.0,0.0,0.0,-6.7956,-6.8794,-6.9482,-7.0111,-7.0649,0.0,0.0,0.0,0.0,0.0,0.0,0.0,0.0,0.0,-7.4869,-7.4869,-7.6033,-7.8376,-7.9312,-8.0944,-8.3254,-8.4143,-8.464,-8.464,-8.464,-8.464,-8.464,-8.464,-8.464,-8.464,-8.464,-8.464,-8.464,0.0,0.0,0.0,0.0,-8.464,-8.464,0.0,0.0,0.0,0.0,0.0,0.0,0.0,0.0,0.0,0.0,0.0,0.0,-4.3917,-4.5281,-4.6301,-4.6301,-4.6301,-4.6376,-4.6502,-4.6903,0.0,0.0,0.0,-4.8837,-4.8987,-4.9389,-4.959,-4.959,-4.959,-4.959,-4.959,-4.959,-4.959,-4.959,-4.959,-4.959,-4.959,-4.959,-4.959,-4.959,0.0,0.0,0.0,0.0,0.0,0.0,0.0,0.0,0.0,0.0,0.0,0.0,0.0,0.0,0.0,0.0,0.0,0.0,0.0,0.0,0.0,0.0,0.0,0.0,0.0,0.0,0.0,0.0,0.0,0.0,0.0,0.0,0.0,0.0,0.0,0.0,0.0,-6.8914,-6.9542,-7.038,-7.0859,-7.1427,0.0,0.0,0.0,0.0,0.0,0.0,-7.4839,-7.4869,-7.4869,-7.4869,-7.4869,-7.5661,-7.729,-7.8941,-8.0587,-8.223,-8.3838,-8.464,-8.464,-8.464,-8.464,-8.464,-8.464,-8.464,-8.464,-8.464,-8.464,-8.464,-8.464,-8.464,-8.464,-8.464,-8.464,-8.464,0.0,0.0,0.0,0.0,0.0,0.0,0.0,0.0,0.0,0.0,0.0,-4.5671,-4.3917,-4.5281,-4.6301,-4.6301,-4.6301,-4.6527,-4.7054,-4.7129,-4.7606,-4.8636,-4.8736,-4.9012,-4.954,-4.959,-4.959,-4.959,-4.959,-4.959,-4.959,-4.959,-4.959,-4.959,-4.959,-4.959,-4.959,-4.959,-4.959,-4.959,-4.959,0.0,0.0,0.0,0.0,0.0,0.0,0.0,0.0,0.0,0.0,0.0,0.0,0.0,0.0,0.0,0.0,0.0,0.0,0.0,0.0,0.0,0.0,0.0,0.0,0.0,0.0,0.0,0.0,0.0,0.0,0.0,0.0,0.0,0.0,0.0,0.0,0.0,0.0,-7.1637,-7.1816,0.0,0.0,0.0,0.0,-7.3881,-7.448,-7.4839,-7.4869,-7.4869,-7.4869,-7.4869,-7.4869,-7.5661,-7.729,-7.8941,-8.0587,-8.223,-8.3838,-8.464,-8.464,-8.464,-8.464,-8.464,-8.464,-8.464,-8.464,-8.464,-8.464,-8.464,-8.464,-8.464,-8.464,-8.464,-8.464,-8.464,0.0,0.0,0.0,0.0,0.0,0.0,0.0,0.0,0.0,-4.4251,-4.4559,-4.4829,-4.5342,-4.5914,-4.6451,-4.6803,-4.6828,-4.7054,-4.7606,-4.7983,-4.836,-4.8761,-4.9113,-4.9389,-4.959,-4.959,-4.959,-4.959,-4.959,-4.959,-4.959,-4.959,-4.959,-4.959,-4.959,-4.959,-4.959,-4.959,-4.959,-4.959,-4.959,-4.959,0.0,0.0,0.0,0.0,0.0,0.0,0.0,0.0,0.0,0.0,0.0,0.0,0.0,0.0,0.0,0.0,0.0,0.0,0.0,0.0,0.0,0.0,0.0,0.0,0.0,0.0,0.0,0.0,0.0,0.0,0.0,0.0,0.0,0.0,0.0,0.0,0.0,-7.1787,-7.2265,0.0,-7.3492,-7.4151,-7.451,-7.451,-7.4749,-7.4869,-7.4869,-7.4869,-7.4869,-7.4869,-7.4869,-7.5661,-7.729,-7.8941,-8.0587,-8.223,-8.3838,-8.464,-8.464,-8.464,-8.464,-8.464,-8.464,-8.464,-8.464,-8.464,-8.464,-8.464,-8.464,-8.464,-8.464,-8.464,-8.464,-8.464,0.0,0.0,0.0,0.0,0.0,0.0,0.0,0.0,-4.3294,-4.4436,-4.4559,-4.4829,-4.5342,-4.6088,-4.6728,-4.7043,-4.7305,-4.7631,-4.8159,-4.856,-4.8862,-4.9038,-4.9389,-4.959,-4.959,-4.959,-4.959,-4.959,-4.959,-4.959,-4.959,-4.959,-4.959,-4.959,-4.959,-4.959,-4.959,-4.959,-4.959,-4.959,-4.959,-4.959,-4.9665,0.0,0.0,0.0,0.0,0.0,0.0,0.0,0.0,0.0,0.0,0.0,0.0,0.0,0.0,0.0,0.0,0.0,0.0,0.0,0.0,0.0,0.0,0.0,0.0,0.0,0.0,0.0,0.0,0.0,0.0,0.0,0.0,0.0,0.0,0.0,-7.1487,-7.2146,-7.2834,-7.3492,-7.4151,-7.4629,-7.4869,-7.4869,-7.4869,-7.4869,-7.4869,-7.4869,-7.4869,-7.4869,-7.4869,-7.5661,-7.729,-7.8971,-8.0587,-8.223,-8.3838,-8.464,-8.464,-8.464,-8.464,-8.464,-8.464,-8.464,-8.464,-8.464,-8.464,-8.464,-8.464,-8.464,-8.464,-8.464,-8.464,-8.464,0.0,0.0,0.0,0.0,0.0,0.0,0.0,-4.5135,-4.5037,-4.1756,-4.4213,-4.5635,-4.4003,-4.5773,-4.7093,-4.7118,-4.7631,-4.8184,-4.8761,-4.8786,-4.9038,-4.9565,-4.959,-4.959,-4.959,-4.959,-4.959,-4.959,-4.959,-4.959,-4.959,-4.959,-4.959,-4.959,-4.959,-4.959,-4.959,-4.959,-4.959,-4.959,-4.959,-4.9615,-4.9665,0.0,0.0,0.0,0.0,0.0,0.0,0.0,0.0,0.0,0.0,0.0,0.0,0.0,0.0,0.0,0.0,0.0,0.0,0.0,0.0,0.0,0.0,0.0,0.0,0.0,0.0,0.0,0.0,0.0,0.0,0.0,0.0,0.0,-7.0919,-7.1487,-7.2146,-7.2864,-7.3492,-7.4151,-7.4809,-7.4869,-7.4869,-7.4869,-7.4869,-7.4869,-7.4869,-7.4869,-7.4869,-7.4869,-7.4869,-7.5728,-7.7354,-7.8971,-8.0615,-8.2288,-8.3838,-8.464,-8.464,-8.464,-8.464,-8.464,-8.464,-8.464,-8.464,-8.464,-8.464,-8.464,-8.464,-8.464,-8.464,-8.464,-8.464,-8.464,0.0,0.0,0.0,0.0,0.0,0.0,0.0,-4.489,-4.4497,-4.4829,-4.4984,-4.5351,-4.6057,-4.7047,-4.7857,-4.8284,-4.846,-4.8761,-4.9339,-4.9364,-4.9439,-4.959,-4.959,-4.959,-4.959,-4.959,-4.959,-4.959,-4.959,-4.959,-4.959,-4.959,-4.959,-4.959,-4.959,-4.959,-4.959,-4.959,-4.959,-4.959,-4.959,-4.9841,-5.0243,0.0,0.0,0.0,0.0,0.0,0.0,0.0,0.0,0.0,0.0,0.0,0.0,0.0,0.0,0.0,0.0,0.0,0.0,0.0,0.0,0.0,0.0,0.0,0.0,0.0,0.0,0.0,0.0,0.0,0.0,0.0,0.0,-7.1607,-7.1607,-7.1757,-7.2325,-7.3492,-7.3791,-7.4151,-7.4809,-7.4869,-7.4869,-7.4869,-7.4869,-7.4869,-7.4869,-7.4869,-7.4869,-7.4869,-7.4869,-7.6233,-7.9127,-7.9559,-8.118,-8.3947,-8.4392,-8.464,-8.464,-8.464,-8.464,-8.464,-8.464,-8.464,-8.464,-8.464,-8.464,-8.464,-8.464,-8.464,-8.464,-8.464,-8.464,-8.464,0.0,0.0,0.0,0.0,0.0,0.0,0.0,-4.5147,-4.5231,-4.5564,-4.5819,-4.635,-4.7332,-4.7933,-4.841,-4.8736,-4.8987,-4.9264,-4.9565,-4.959,-4.959,-4.959,-4.959,-4.959,-4.959,-4.959,-4.959,-4.959,-4.959,-4.959,-4.959,-4.959,-4.959,-4.959,-4.959,-4.959,-4.959,-4.959,-4.9715,-4.9941,-4.9941,-5.0117,-5.0494,-5.1322,-5.1825,-5.2176,-5.2729,-5.2929,-5.2929,-5.2929,0.0,0.0,0.0,0.0,0.0,0.0,0.0,0.0,0.0,0.0,0.0,0.0,0.0,0.0,0.0,0.0,0.0,0.0,0.0,0.0,0.0,0.0,0.0,0.0,-7.1637,-7.2086,-7.2654,-7.2714,-7.3013,-7.3791,-7.4151,-7.445,-7.4839,-7.4869,-7.4869,-7.4869,-7.4869,-7.4869,-7.4869,-7.4869,-7.4869,-7.4869,-7.5557,-7.7157,-7.9742,-8.0468,-8.2083,-8.464,-8.464,-8.464,-8.464,-8.464,-8.4809,-8.5114,-8.5114,-8.5283,-8.5587,-8.5587,-8.5384,0.0,0.0,0.0,0.0,0.0,-8.464,-8.464,0.0,0.0,0.0,0.0,0.0,0.0,0.0,-4.5871,-4.665,-4.514,-4.6759,-4.8008,-4.8008,-4.851,-4.8862,-4.8862,-4.9314,-4.959,-4.959,-4.959,-4.959,-4.959,-4.959,-4.959,-4.959,-4.959,-4.959,-4.959,-4.959,-4.959,-4.959,-4.959,-4.959,-4.959,-4.959,-4.959,-4.959,-4.9665,-4.9967,-5.0419,-5.0544,-5.0619,-5.072,-5.1724,-5.2151,-5.2251,-5.2754,-5.2929,-5.2929,-5.2929,0.0,0.0,0.0,0.0,0.0,0.0,0.0,0.0,0.0,0.0,0.0,0.0,0.0,0.0,0.0,0.0,0.0,0.0,0.0,0.0,0.0,0.0,0.0,0.0,-7.2026,-7.2535,-7.3732,-7.3971,-7.4001,-7.4001,-7.451,-7.4869,-7.4869,-7.4869,-7.4869,-7.4869,-7.4869,-7.4869,-7.4869,0.0,0.0,0.0,0.0,-7.8123,-7.9803,-8.1388,-8.2998,-8.464,-8.464,-8.4674,-8.4776,-8.4776,-8.5182,-8.5892,-8.5892,-8.6298,-8.6907,-8.6907,-8.6501,-8.5824,-8.4979,-8.464,-8.464,-8.464,-8.464,-8.464,0.0,0.0,0.0,0.0,0.0,0.0,0.0,-4.7495,-4.7633,-4.7296,-4.8046,-4.8611,-4.8611,-4.9113,-4.9439,-4.9439,-4.954,-4.959,-4.959,-4.959,-4.959,-4.959,-4.959,-4.959,-4.959,-4.959,-4.959,-4.959,-4.959,-4.959,-4.959,-4.959,-4.959,-4.959,-4.959,-4.959,-4.9615,-5.0067,-5.0318,-5.0494,-5.1423,-5.1774,-5.18,-5.2026,-5.2377,-5.2779,-5.2879,-5.2929,-5.2929,-5.2929,-5.2929,-5.2929,-5.2929,-5.3206,0.0,0.0,0.0,0.0,0.0,0.0,0.0,0.0,0.0,0.0,0.0,0.0,0.0,0.0,0.0,0.0,0.0,0.0,0.0,-7.1876,-7.2804,-7.3582,-7.3851,-7.436,-7.4689,-7.4689,-7.4809,-7.4869,-7.4869,-7.4869,-7.4869,-7.4869,-7.4869,-7.4869,-7.4869,-7.4869,-7.4869,-7.4869,-7.6436,-7.8123,-7.9803,-8.1388,-8.2998,-8.464,0.0,0.0,-8.5554,-8.5554,-8.596,-8.6704,-8.6704,-8.6771,-8.6907,-8.6907,-8.6839,-8.6569,-8.5182,-8.464,-8.464,-8.464,-8.464,-8.464,0.0,0.0,0.0,0.0,0.0,0.0,0.0,-4.8159,-4.8335,-4.8335,-4.8837,-4.9188,-4.9188,-4.9439,-4.959,-4.959,-4.959,-4.959,0.0,-4.959,-4.959,-4.959,-4.959,-4.959,-4.959,-4.959,-4.959,-4.959,-4.959,-4.959,-4.959,-4.959,-4.959,-4.959,-4.959,-4.959,-4.964,-5.0193,-5.0569,-5.0921,-5.1774,-5.2277,-5.2528,-5.2528,-5.2678,-5.2929,-5.2929,-5.2929,-5.2929,-5.2929,-5.2929,-5.298,-5.3231,-5.3482,-5.434,0.0,0.0,0.0,0.0,0.0,0.0,0.0,0.0,0.0,0.0,0.0,0.0,0.0,0.0,-7.1009,0.0,0.0,-7.2116,-7.2774,-7.3462,-7.4001,-7.433,-7.4659,-7.4869,-7.4869,-7.4869,-7.4869,-7.4869,-7.4869,-7.4869,-7.4869,-7.4869,-7.4869,-7.4869,-7.4869,-7.4869,-7.4869,-7.7256,-7.8971,-7.9803,-8.2198,-8.3784,-8.464,-8.5012,-8.5418,-8.579,-8.6163,-8.6738,-8.7448,-8.7448,-8.7651,-8.7955,-8.7617,-8.7448,-8.7347,-8.623,-8.5554,-8.5215,-8.5215,-8.4945,-8.464,0.0,0.0,0.0,0.0,0.0,0.0,0.0,0.0,-4.8937,-4.8937,-4.9314,-4.959,-4.959,-4.959,-4.959,-4.959,-4.959,-4.959,0.0,-4.959,-4.959,-4.959,-4.959,-4.959,-4.959,-4.959,-4.959,-4.959,-4.959,-4.959,-4.959,-4.959,-4.959,-4.959,-4.959,-4.9665,-4.9791,-5.0343,-5.0921,-5.1498,-5.2051,-5.2528,-5.2929,-5.2929,-5.2929,-5.2929,-5.2929,-5.2929,-5.2929,-5.2929,-5.3005,-5.3155,-5.3557,-5.3858,-5.4861,-5.9035,-6.0595,0.0,0.0,0.0,0.0,0.0,0.0,0.0,0.0,0.0,-7.029,-7.0799,-7.1009,-7.1248,-7.1787,-7.2086,-7.2624,-7.3702,-7.4001,-7.427,-7.4809,-7.4869,-7.4869,-7.4869,-7.4869,-7.4869,-7.4869,-7.4869,-7.4869,-7.4869,-7.4869,-7.4869,-7.4869,-7.4869,-7.5074,-7.5354,-7.825,-7.9954,-8.0288,-8.311,-8.4708,-8.4843,-8.5486,-8.5926,-8.623,-8.6839,-8.7516,-8.8192,-8.8192,-8.8531,-8.9038,-8.8463,-8.8192,-8.8158,-8.755,-8.6873,-8.6163,-8.5892,-8.5384,-8.4843,0.0,0.0,0.0,0.0,0.0,0.0,0.0,0.0,0.0,-4.9515,-4.9565,-4.959,-4.959,-4.959,-4.959,-4.959,-4.959,0.0,-4.959,-4.959,-4.959,-4.959,-4.959,-4.959,-4.959,-4.959,-4.959,-4.959,-4.959,-4.959,-4.959,-4.959,-4.959,-4.959,-4.959,-4.9866,-5.0368,-5.0946,-5.1498,-5.2076,-5.2603,-5.2879,-5.2929,-5.2929,-5.2929,-5.2929,-5.2929,-5.2929,-5.2929,-5.2929,-5.3231,-5.3632,-5.3683,-5.4386,-5.5619,-5.7729,-5.9887,-6.1981,-6.4059,-6.6176,-6.7929,-6.7956,-6.8884,-6.9812,0.0,0.0,-7.0829,-7.0889,-7.1368,-7.1787,-7.1876,-7.2864,-7.3732,-7.3881,-7.439,-7.4779,-7.4869,-7.4869,-7.4869,-7.4869,-7.4869,-7.4869,-7.4869,-7.4869,-7.4869,-7.4869,-7.4869,-7.4869,-7.4869,-7.4869,-7.5526,-7.6996,-7.8816,-8.0468,-8.1911,-8.3729,-8.4979,-8.5655,-8.5757,-8.6467,-8.7753,-8.7854,-8.826,-8.897,-8.897,-8.9004,-8.9072,-8.9004,-8.897,-8.897,-8.8869,-8.8395,-8.7583,-8.6264,-8.5723,-8.5554,0.0,0.0,0.0,0.0,0.0,0.0,0.0,0.0,0.0,0.0,-4.959,-4.959,-4.959,-4.959,-4.959,-4.959,0.0,0.0,-4.959,-4.959,-4.959,-4.959,-4.959,-4.959,-4.959,-4.959,-4.959,-4.959,-4.959,-4.959,-4.959,-4.959,-4.959,-4.959,-4.959,-4.9891,-5.0444,-5.1046,-5.1599,-5.2151,-5.2703,-5.2929,-5.2929,-5.2929,-5.2929,-5.2929,-5.2929,-5.2929,0.0,-5.3281,-5.3507,-5.3808,-5.4486,-5.5013,-5.6061,-5.9189,-6.0796,-6.2197,-6.5105,-6.6922,0.0,0.0,-6.9273,-7.0081,-7.044,-7.0709,-7.1009,-7.1398,-7.1697,-7.2116,-7.2924,-7.3522,-7.4031,0.0,-7.4689,-7.4869,-7.4869,-7.4869,-7.4869,-7.4869,-7.4869,-7.4869,-7.4869,-7.4869,-7.4869,-7.4869,-7.4869,-7.4869,-7.4869,-7.5796,-7.6634,-7.729,-7.9832,-8.1505,-8.2198,-8.4274,-8.5452,-8.579,-8.667,-8.738,-8.8023,-8.8429,-8.8801,-8.9072,-8.9072,-8.9072,-8.9072,-8.9072,-8.9072,-8.9072,-8.9072,-8.8903,-8.8497,-8.7448,-8.6805,-8.6332,0.0,0.0,0.0,0.0,0.0,0.0,0.0,0.0,0.0,0.0,0.0,-4.959,-4.959,-4.959,-4.959,-4.959,0.0,0.0,0.0,-4.959,-4.959,-4.959,-4.959,-4.959,-4.959,-4.959,-4.959,-4.959,-4.959,-4.959,-4.959,-4.959,-4.959,-4.9615,-4.9741,-5.0142,-5.0695,-5.1272,-5.1825,-5.2377,-5.2754,-5.2929,-5.2929,-5.2929,-5.2929,-5.2929,-5.2929,-5.2929,-5.3005,-5.3532,-5.3808,-5.411,-5.5089,-5.5825,-5.7023,-6.0607,-6.233,-6.3728,-6.653,0.0,0.0,-6.9093,-6.9752,-7.035,-7.0799,-7.0889,-7.1098,-7.1757,-7.2026,-7.2535,-7.3672,-7.4031,-7.433,-7.4809,-7.4869,-7.4869,-7.4869,-7.4869,-7.4869,-7.4869,-7.4869,-7.4869,-7.4869,-7.4869,-7.4869,-7.4869,-7.4869,-7.4869,-7.4869,-7.6467,-7.7483,-7.7996,-8.0734,-8.2401,-8.2886,-8.4808,-8.5892,-8.6095,-8.738,-8.8091,-8.8328,-8.8835,-8.9072,-8.9072,-8.9072,-8.9072,-8.9072,-8.9072,-8.9072,-8.9072,-8.9072,-8.9072,-8.9004,-8.8497,-8.7854,-8.711,0.0,0.0,0.0,0.0,0.0,0.0,0.0,0.0,0.0,0.0,0.0,0.0,0.0,0.0,-4.959,0.0,0.0,0.0,0.0,-4.959,-4.959,-4.959,-4.959,-4.959,-4.959,-4.959,-4.959,-4.959,-4.959,-4.959,-4.959,-4.959,-4.959,-4.9615,-5.0142,-5.072,-5.1297,-5.185,-5.2402,-5.2904,-5.2929,-5.2929,-5.2929,-5.2929,-5.2929,-5.2929,-5.2929,-5.2929,-5.3005,-5.3532,-5.4084,-5.4637,-5.5214,-5.6958,-5.9156,-6.1056,-6.4088,-6.6995,0.0,0.0,-6.9123,-6.9782,-7.041,-7.0889,-7.0889,-7.0889,-7.1098,-7.1757,-7.2415,-7.3103,-7.3762,-7.442,-7.4869,-7.4869,-7.4869,-7.4869,-7.4869,-7.4869,-7.4869,-7.4869,-7.4869,-7.4869,0.0,-7.4869,-7.4869,-7.4869,-7.4869,-7.4869,-7.4869,-7.6467,-7.8059,-7.9681,-8.1297,-8.2942,-8.45,-8.5384,-8.6163,-8.6873,-8.7651,-8.8361,-8.9038,-8.9072,-8.9072,-8.9072,-8.9072,-8.9072,-8.9072,-8.9072,-8.9072,-8.9072,-8.9072,-8.9072,-8.9072,-8.9038,-8.8598,-8.7854,0.0,0.0,0.0,0.0,0.0,0.0,0.0,0.0,0.0,0.0,0.0,0.0,0.0,0.0,0.0,0.0,0.0,0.0,0.0,-4.959,-4.959,-4.959,-4.959,-4.959,-4.959,-4.959,-4.959,-4.959,-4.959,-4.959,-4.959,-4.959,-4.959,-4.9615,-5.0167,-5.0745,-5.1322,-5.1875,-5.2427,-5.2929,-5.2929,-5.2929,-5.2929,-5.2929,-5.2929,-5.2929,0.0,-5.3155,-5.3532,-5.4084,-5.5433,-5.6998,-5.757,-5.9093,-6.1056,-6.2887,0.0,0.0,0.0,0.0,-6.9692,-6.9931,-7.044,-7.0889,-7.0889,-7.1248,-7.1757,-7.2445,-7.3103,-7.3762,-7.442,-7.4719,-7.4869,-7.4869,-7.4869,-7.4869,-7.4869,-7.4869,-7.4869,-7.4869,-7.4869,0.0,0.0,0.0,0.0,-7.4869,-7.4869,-7.5354,-7.6467,-7.8028,-7.971,-8.1297,-8.2942,-8.4035,-8.4553,-8.5892,-8.667,-8.6941,-8.8125,-8.8835,-8.9072,-8.9072,-8.9072,-8.9072,-8.9072,-8.9072,-8.9072,-8.9072,-8.9072,-8.9072,-8.9072,-8.9072,-8.9072,-8.9072,-8.8937,-8.8598,0.0,0.0,0.0,0.0,0.0,0.0,0.0,0.0,0.0,0.0,0.0,0.0,0.0,0.0,0.0,0.0,0.0,0.0,0.0,0.0,-4.959,-4.959,-4.959,-4.959,-4.959,-4.959,-4.959,-4.959,-4.959,-4.959,-4.959,-4.959,-4.969,-4.9916,-5.0469,-5.1046,-5.1599,-5.2176,-5.2603,-5.2929,-5.2929,-5.2929,-5.2929,-5.2929,-5.2929,0.0,-5.313,-5.3923,-5.4986,-5.4719,-5.5714,-5.7354,-5.8534,-6.0579,-6.2953,0.0,0.0,0.0,0.0,-6.9153,-7.0021,-7.026,-7.062,-7.0949,-7.1188,-7.1577,-7.2146,-7.3073,-7.3612,-7.4091,-7.4749,-7.4869,-7.4869,-7.4869,-7.4869,-7.4869,-7.4869,-7.4869,-7.4869,-7.4869,-7.4869,-7.4869,0.0,0.0,0.0,-7.4869,-7.4869,-7.5594,-7.7225,-7.8909,-8.0528,-8.214,-8.3784,-8.464,-8.464,-8.6129,-8.7177,-8.7719,-8.8632,-8.9072,-8.9072,-8.9072,-8.9072,-8.9072,-8.9072,-8.9072,-8.9072,-8.9072,-8.9072,-8.9072,-8.9072,-8.9072,-8.9072,-8.9072,-8.9072,-8.9004,0.0,0.0,0.0,0.0,0.0,0.0,0.0,0.0,0.0,0.0,0.0,0.0,0.0,0.0,0.0,0.0,0.0,0.0,0.0,0.0,0.0,-4.959,-4.959,-4.959,-4.959,-4.959,-4.959,-4.959,-4.959,-4.959,-4.959,-4.959,-4.9891,-5.0444,-5.1021,-5.1599,-5.2151,-5.2703,-5.2929,-5.2929,-5.2929,-5.2929,-5.2929,-5.2929,-5.2955,-5.303,-5.3532,-5.5262,-5.7104,-5.5338,0.0,0.0,0.0,0.0,0.0,0.0,0.0,-6.8166,-6.8854,-6.9542,-7.0171,-7.0769,-7.0889,-7.1068,-7.1727,-7.1906,-7.2295,-7.3612,-7.3911,-7.4151,0.0,0.0,-7.4869,-7.4869,-7.4869,-7.4869,-7.4869,-7.4869,-7.4869,0.0,0.0,0.0,0.0,0.0,0.0,-7.4869,0.0,-7.5728,-7.7354,-7.8971,-8.0647,-8.2288,-8.3784,-8.464,-8.464,-8.6129,-8.7617,-8.9038,-8.9072,-8.9072,-8.9072,-8.9072,-8.9072,-8.9072,-8.9072,-8.9072,-8.9072,-8.9072,-8.9072,-8.9072,-8.9072,-8.9072,-8.9072,-8.9072,-8.9072,-8.9072,0.0,0.0,0.0,0.0,0.0,0.0,0.0,0.0,0.0,0.0,0.0,0.0,0.0,0.0,0.0,0.0,0.0,0.0,0.0,0.0,0.0,0.0,0.0,0.0,0.0,0.0,0.0,-4.959,-4.959,-4.959,-4.959,-4.959,-4.9891,-5.0444,-5.1021,-5.1599,-5.2151,-5.2703,-5.2929,-5.2929,-5.2929,-5.2929,-5.2929,-5.2929,-5.3181,-5.3507,-5.3658,-5.5519,0.0,0.0,0.0,0.0,0.0,0.0,-6.6473,0.0,0.0,-6.8884,-6.9542,-7.0201,-7.0709,-7.0859,-7.0889,-7.1068,-7.1727,-7.2295,-7.2894,-7.3732,-7.43,-7.4689,0.0,0.0,0.0,-7.4869,-7.4869,0.0,-7.4869,-7.4869,0.0,-7.4869,0.0,-7.4869,-7.4869,-7.4869,0.0,0.0,-7.6033,-7.745,-7.9065,-8.0707,-8.2345,-8.3981,-8.4392,-8.464,-8.464,-8.6129,-8.738,-8.8294,-8.8835,-8.9072,-8.9072,-8.9072,-8.9072,-8.9072,-8.9072,-8.9072,-8.9072,-8.9072,-8.9072,-8.9072,-8.9072,-8.9072,-8.9072,-8.9072,-8.9072,-8.9072,0.0,0.0,0.0,0.0,0.0,0.0,0.0,0.0,0.0,0.0,0.0,0.0,0.0,0.0,0.0,0.0,0.0,0.0,0.0,0.0,0.0,0.0,0.0,0.0,0.0,0.0,0.0,0.0,0.0,0.0,-4.9615,-4.9841,-5.0268,-5.082,-5.1398,-5.195,-5.2477,-5.2804,-5.2929,0.0,0.0,-5.2929,-5.2929,-5.2929,-5.3256,-5.3872,-5.4909,0.0,0.0,0.0,0.0,-6.4503,-6.5513,-6.6384,-6.7119,-6.7777,0.0,-6.9153,-6.9812,-7.044,-7.0889,-7.0889,-7.1128,-7.1517,-7.2176,-7.2864,-7.3522,-7.418,-7.4629,0.0,-7.4869,0.0,0.0,0.0,0.0,0.0,-7.4869,-7.4869,-7.4869,0.0,-7.4869,0.0,-7.4869,-7.4869,-7.518,0.0,-7.68,-7.8059,-7.9681,-8.133,-8.2942,-8.4553,-8.464,-8.4776,-8.5114,-8.6332,-8.7279,-8.7989,-8.8734,-8.9072,-8.9072,-8.9072,-8.9072,-8.9072,0.0,-8.9072,-8.9072,-8.9072,-8.9072,-8.9072,-8.9072,-8.9072,-8.9072,-8.9072,-8.9072,-8.9072,0.0,0.0,0.0,0.0,0.0,0.0,0.0,0.0,0.0,0.0,0.0,0.0,0.0,0.0,0.0,0.0,0.0,0.0,0.0,0.0,0.0,0.0,0.0,0.0,0.0,0.0,0.0,0.0,0.0,0.0,-4.9615,-5.0167,-5.072,-5.1297,-5.185,-5.2402,-5.2929,-5.2929,-5.2929,-5.2929,-5.2929,-5.2929,-5.2929,0.0,-5.3356,-5.4163,0.0,0.0,0.0,0.0,-6.5981,-6.4694,-6.4694,-6.5823,-6.7238,-6.7926,-6.8585,-6.9273,-6.9931,-7.05,-7.0889,-7.0889,-7.1398,-7.2056,-7.2744,-7.3432,-7.4091,-7.4749,0.0,-7.4869,-7.4869,-7.4869,-7.4869,-7.4869,0.0,-7.4869,-7.4869,-7.4869,-7.4869,-7.4869,-7.4869,-7.4869,-7.4869,-7.4869,-7.5557,-7.716,-7.7483,-7.8345,-8.0046,-8.1621,-8.3166,-8.4553,-8.464,-8.4945,-8.5621,-8.6399,-8.711,-8.7854,-8.8598,-8.9004,-8.9072,-8.9072,-8.9072,-8.9072,-8.9072,-8.9072,-8.9072,-8.9072,-8.9072,-8.9072,-8.9072,-8.9072,-8.9072,-8.9072,-8.9072,-8.9072,0.0,0.0,0.0,0.0,0.0,0.0,0.0,0.0,0.0,0.0,-4.959,-4.959,0.0,0.0,0.0,0.0,0.0,0.0,0.0,0.0,0.0,0.0,0.0,0.0,0.0,0.0,0.0,0.0,0.0,0.0,-4.9615,-5.0167,-5.072,-5.1297,-5.185,-5.2402,-5.2929,-5.2929,-5.2929,-5.2929,-5.2929,-5.2929,-5.298,-5.3406,0.0,0.0,0.0,0.0,0.0,0.0,-6.6785,-6.6508,-6.6508,-6.7143,-6.7926,-6.8615,-6.9303,-6.9961,-7.059,-7.0829,-7.0889,-7.0889,-7.1398,-7.2056,-7.2744,-7.3432,0.0,0.0,-7.4869,-7.4869,-7.4869,-7.4869,-7.4869,-7.4869,0.0,0.0,0.0,0.0,-7.4869,0.0,0.0,0.0,0.0,0.0,0.0,0.0,0.0,-8.0107,-8.1679,-8.331,-8.4339,-8.4553,-8.464,-8.4674,-8.4809,-8.5587,-8.6366,-8.711,-8.7854,-8.8497,-8.9072,-8.9072,-8.9072,-8.9072,-8.9072,0.0,-8.9072,-8.9072,-8.9072,-8.9072,-8.9072,-8.9072,-8.9072,-8.9072,-8.9072,-8.9072,0.0,0.0,0.0,0.0,0.0,0.0,0.0,-4.959,-4.959,-4.959,-4.959,-4.959,-4.959,-4.959,-4.959,0.0,0.0,0.0,0.0,0.0,0.0,0.0,0.0,0.0,0.0,0.0,0.0,0.0,0.0,0.0,0.0,0.0,0.0,0.0,0.0,-5.2678,-5.2929,-5.2929,-5.2929,-5.2929,-5.2929,-5.2929,0.0,0.0,0.0,0.0,0.0,0.0,0.0,0.0,-6.6999,-6.6999,-6.6999,-6.7448,-6.8106,-6.8794,-6.9453,-7.0111,-7.0739,-7.0889,-7.0889,-7.0889,-7.1667,-7.2505,-7.2834,0.0,0.0,0.0,-7.4869,-7.4869,-7.4869,-7.4869,0.0,0.0,0.0,0.0,0.0,0.0,0.0,0.0,0.0,0.0,0.0,0.0,0.0,0.0,0.0,-8.1388,-8.214,-8.3729,-8.464,-8.464,-8.464,-8.464,-8.464,-8.5384,-8.596,-8.6332,-8.7448,-8.8192,-8.8531,-8.8903,-8.9072,-8.9072,-8.9072,-8.9072,-8.9072,-8.9072,-8.9072,-8.9072,-8.9072,-8.8869,-8.8531,-8.8531,-8.826,-8.7955,0.0,0.0,0.0,0.0,0.0,0.0,0.0,-4.959,-4.959,-4.959,-4.959,-4.959,-4.959,-4.959,-4.959,0.0,0.0,0.0,0.0,0.0,0.0,0.0,0.0,0.0,0.0,0.0,0.0,0.0,0.0,0.0,0.0,0.0,0.0,0.0,0.0,0.0,0.0,-5.2929,-5.2929,0.0,0.0,0.0,0.0,0.0,0.0,0.0,0.0,0.0,0.0,0.0,-6.6999,-6.7029,-6.7148,-6.7657,-6.8315,-6.9004,-6.9662,-7.029,-7.0769,-7.0889,-7.0949,-7.1068,-7.2026,-7.2954,-7.3103,-7.4031,0.0,0.0,-7.4869,-7.4869,-7.4869,-7.4869,-7.4869,0.0,0.0,0.0,0.0,0.0,0.0,0.0,0.0,0.0,0.0,0.0,0.0,0.0,0.0,0.0,-8.2684,-8.3893,-8.464,-8.464,-8.464,-8.464,-8.464,-8.5215,-8.5621,-8.579,-8.6974,-8.7617,-8.7786,-8.8361,-8.8632,-8.8632,-8.8632,-8.8632,0.0,-8.8632,-8.8632,-8.8632,-8.8632,-8.826,-8.7753,-8.7753,-8.7414,-8.6907,0.0,0.0,0.0,0.0,0.0,0.0,0.0,-4.959,-4.959,-4.959,-4.959,-4.959,-4.959,-4.959,-4.959,0.0,0.0,0.0,0.0,0.0,0.0,0.0,0.0,0.0,0.0,0.0,0.0,0.0,0.0,0.0,0.0,0.0,0.0,0.0,0.0,0.0,0.0,0.0,0.0,0.0,0.0,0.0,0.0,0.0,0.0,0.0,0.0,0.0,0.0,0.0,0.0,-6.7089,-6.7687,-6.8345,-6.9034,-6.9692,0.0,0.0,-7.0889,-7.0889,-7.1038,-7.1637,-7.2355,-7.3073,-7.3672,0.0,0.0,-7.4869,-7.4869,-7.4869,-7.4869,-7.4869,-7.4869,0.0,0.0,-7.4869,0.0,0.0,0.0,0.0,0.0,0.0,0.0,0.0,0.0,0.0,0.0,0.0,-8.4392,-8.45,-8.464,-8.464,-8.464,-8.464,-8.464,-8.4708,-8.508,-8.579,-8.5926,-8.6332,-8.7008,-8.7076,-8.711,-8.711,-8.711,0.0,0.0,-8.711,-8.711,-8.711,-8.711,-8.7076,-8.7008,-8.7008,-8.6974,-8.6907,0.0,0.0,0.0,0.0,0.0,0.0,-4.959,-4.959,-4.959,-4.959,-4.959,-4.959,-4.959,-4.959,-4.959,-4.959,0.0,0.0,0.0,0.0,0.0,0.0,0.0,0.0,0.0,0.0,-4.959,-4.959,-5.0142,0.0,0.0,0.0,0.0,0.0,0.0,0.0,0.0,0.0,0.0,0.0,0.0,0.0,0.0,0.0,0.0,0.0,0.0,0.0,0.0,0.0,0.0,0.0,-6.8375,-6.9064,0.0,0.0,-7.041,-7.0889,-7.0889,-7.0889,-7.1068,-7.1727,-7.2385,-7.3103,-7.3762,0.0,0.0,-7.4869,-7.4869,-7.4869,-7.4869,-7.4869,-7.4869,-7.4869,0.0,0.0,0.0,0.0,0.0,0.0,0.0,0.0,0.0,0.0,0.0,0.0,0.0,0.0,-8.464,-8.464,-8.464,-8.464,-8.464,-8.464,-8.464,-8.464,-8.4776,-8.508,-8.5554,-8.5926,-8.623,-8.6704,-8.6907,-8.6907,-8.6907,0.0,0.0,-8.6907,-8.6907,-8.6907,-8.6907,-8.6636,-8.623,-8.623,-8.5926,-8.5554,0.0,0.0,0.0,0.0,0.0,-4.959,-4.959,-4.959,-4.959,-4.959,-4.959,-4.959,-4.959,-4.959,-4.959,-4.959,-4.959,0.0,0.0,0.0,0.0,0.0,0.0,0.0,0.0,0.0,-4.9665,-4.9841,-5.0393,-5.0971,0.0,0.0,0.0,0.0,0.0,0.0,0.0,0.0,0.0,0.0,0.0,0.0,0.0,0.0,0.0,0.0,0.0,0.0,0.0,0.0,0.0,0.0,0.0,0.0,0.0,0.0,-7.056,-7.0889,-7.0889,-7.1038,-7.1368,-7.2026,-7.2684,-7.3373,0.0,0.0,0.0,-7.4869,-7.4869,-7.4869,-7.4869,-7.4869,-7.4869,-7.4869,0.0,-7.4869,0.0,0.0,0.0,0.0,0.0,0.0,0.0,0.0,0.0,0.0,0.0,0.0,-8.464,-8.464,-8.464,-8.464,-8.464,-8.464,-8.464,-8.464,-8.464,-8.464,-8.5182,-8.5452,-8.5452,-8.5993,-8.623,-8.623,-8.623,0.0,0.0,-8.623,-8.623,-8.623,-8.623,-8.5892,-8.5452,-8.5452,-8.508,-8.464,0.0,0.0,0.0,0.0,0.0,0.0,-4.959,-4.959,-4.959,-4.959,-4.959,-4.959,-4.959,-4.959,-4.959,-4.959,-4.959,0.0,0.0,0.0,0.0,0.0,0.0,0.0,0.0,0.0,-4.9866,-5.0419,-5.0996,-5.1548,-5.2101,-5.2653,-5.2929,0.0,0.0,0.0,0.0,0.0,0.0,0.0,0.0,0.0,0.0,0.0,0.0,0.0,0.0,0.0,0.0,0.0,0.0,0.0,0.0,-6.9453,0.0,0.0,-7.0889,-7.0889,-7.0889,-7.1368,-7.2056,-7.2744,-7.3402,-7.4061,0.0,0.0,0.0,-7.4869,-7.4869,-7.4869,-7.4869,-7.4869,-7.4869,-7.4869,-7.4869,0.0,0.0,0.0,0.0,0.0,0.0,0.0,0.0,0.0,0.0,0.0,0.0,0.0,-8.464,-8.464,-8.464,-8.464,-8.464,-8.464,-8.464,-8.464,-8.464,-8.464,-8.464,-8.464,-8.464,-8.464,-8.464,-8.464,0.0,0.0,0.0,-8.464,-8.464,-8.464,-8.464,-8.464,-8.464,-8.464,-8.464,-8.464,0.0,0.0,0.0,0.0,0.0,0.0,0.0,-4.959,-4.959,-4.959,-4.959,-4.959,-4.959,-4.959,-4.959,-4.959,-4.959,0.0,0.0,0.0,0.0,0.0,0.0,0.0,0.0,-4.9967,-5.0243,-5.0419,-5.1373,-5.1925,-5.2126,-5.2678,-5.2929,-5.2929,-5.2929,0.0,0.0,0.0,0.0,0.0,0.0,0.0,0.0,0.0,0.0,0.0,0.0,0.0,0.0,0.0,0.0,0.0,0.0,0.0,0.0,-7.0829,0.0,0.0,-7.0889,-7.1398,-7.2056,-7.2744,-7.3402,-7.4061,-7.4719,0.0,0.0,-7.4869,-7.4869,-7.4869,-7.4869,-7.4869,-7.4869,-7.4869,-7.4869,0.0,0.0,0.0,0.0,0.0,0.0,0.0,0.0,0.0,0.0,0.0,0.0,0.0,-8.464,-8.464,-8.464,-8.464,-8.464,-8.464,-8.464,-8.464,-8.464,-8.464,-8.464,-8.464,-8.464,-8.464,-8.464,0.0,0.0,0.0,0.0,-8.464,-8.464,-8.464,-8.464,-8.464,-8.464,-8.464,-8.464,-8.464,0.0,0.0,0.0,0.0,0.0,0.0,0.0,-4.959,-4.959,-4.959,-4.959,-4.959,-4.959,-4.959,-4.959,-4.959,-4.959,0.0,0.0,0.0,0.0,0.0,0.0,0.0,-4.9891,-5.0243,-5.0619,-5.1046,-5.1749,-5.2201,-5.2427,-5.2754,-5.2929,-5.2929,-5.2929,-5.2929,0.0,0.0,0.0,0.0,0.0,0.0,-6.643,0.0,0.0,0.0,0.0,0.0,0.0,0.0,0.0,0.0,0.0,0.0,0.0,0.0,-7.0889,0.0,0.0,-7.1577,-7.2385,-7.2804,-7.3582,0.0,0.0,0.0,0.0,-7.4869,-7.4869,-7.4869,-7.4869,-7.4869,-7.4869,-7.4869,-7.4869,0.0,0.0,0.0,0.0,0.0,0.0,0.0,0.0,0.0,0.0,0.0,0.0,0.0,-8.464,-8.464,-8.464,-8.464,-8.464,-8.464,-8.464,-8.464,-8.464,-8.464,-8.464,-8.464,-8.464,-8.464,-8.464,0.0,0.0,0.0,0.0,-8.464,-8.464,-8.464,-8.464,-8.464,-8.464,-8.464,-8.464,-8.464,0.0,0.0,0.0,0.0,0.0,0.0,0.0,-4.959,-4.959,-4.959,-4.959,-4.959,-4.959,-4.959,-4.959,-4.959,0.0,0.0,0.0,0.0,0.0,0.0,0.0,0.0,-5.0469,-5.0519,-5.1046,-5.2101,-5.2151,-5.2427,-5.2929,-5.2929,-5.2929,-5.2929,-5.2929,-5.2998,-5.3204,-5.561,-5.798,-6.0375,-6.2692,-6.4989,0.0,0.0,0.0,0.0,0.0,0.0,0.0,0.0,0.0,0.0,0.0,0.0,0.0,0.0,0.0,0.0,0.0,-7.1936,0.0,0.0,0.0,0.0,0.0,0.0,0.0,-7.4869,-7.4869,-7.4869,-7.4869,-7.4869,-7.4869,-7.4869,-7.4869,0.0,0.0,0.0,0.0,0.0,0.0,0.0,0.0,0.0,0.0,0.0,0.0,0.0,-8.464,-8.464,-8.464,-8.464,-8.464,-8.464,-8.464,-8.464,-8.464,-8.464,-8.464,-8.464,-8.464,-8.464,-8.464,0.0,0.0,0.0,0.0,-8.464,-8.464,-8.464,-8.464,-8.464,-8.464,-8.464,-8.464,-8.464,0.0,0.0,0.0,0.0,0.0,0.0,0.0,0.0,0.0,0.0,-4.959,-4.959,-4.959,-4.959,-4.959,0.0,0.0,0.0,0.0,0.0,0.0,0.0,0.0,0.0,-5.1071,-5.1498,-5.1825,-5.2101,-5.2528,-5.2804,-5.2929,-5.2929,-5.2929,-5.2929,-5.2929,-5.3606,-5.4968,-5.7347,-5.9762,-6.2154,-6.4496,-6.6066,0.0,0.0,0.0,0.0,-6.6999,-6.6999,0.0,0.0,0.0,0.0,0.0,0.0,0.0,0.0,-7.0889,-7.1009,-7.1517,0.0,-7.3043,-7.3552,-7.427,-7.4869,0.0,0.0,0.0,0.0,-7.4869,0.0,0.0,-7.4869,-7.4869,-7.4869,0.0,0.0,0.0,0.0,0.0,0.0,0.0,0.0,0.0,0.0,0.0,0.0,0.0,-8.464,-8.464,-8.464,-8.464,-8.464,-8.464,-8.464,-8.464,-8.464,-8.464,-8.464,-8.464,-8.464,-8.464,-8.464,-8.464,0.0,0.0,0.0,-8.464,-8.464,-8.464,-8.464,-8.464,-8.464,-8.464,-8.464,-8.464,-8.464,0.0,0.0,0.0,0.0,0.0,0.0,0.0,0.0,0.0,0.0,0.0,0.0,0.0,0.0,0.0,0.0,0.0,0.0,0.0,0.0,0.0,0.0,0.0,-5.1071,-5.1649,-5.195,-5.2226,-5.2477,-5.2779,-5.2929,-5.2929,-5.2929,-5.2929,-5.2929,-5.3674,-5.5139,-5.7223,-5.9567,-6.1485,-6.315,-6.5522,0.0,0.0,0.0,0.0,0.0,-6.6999,-6.6999,0.0,-6.8555,-6.9004,-6.9213,0.0,0.0,0.0,0.0,-7.0889,-7.1128,-7.2086,-7.2624,-7.3073,-7.3732,-7.439,-7.4869,-7.4869,0.0,0.0,0.0,0.0,0.0,0.0,0.0,0.0,0.0,0.0,0.0,0.0,0.0,0.0,0.0,0.0,0.0,0.0,0.0,0.0,0.0,0.0,-8.464,-8.464,-8.464,-8.464,-8.464,-8.464,-8.464,-8.464,-8.464,-8.464,-8.464,-8.464,-8.464,-8.464,-8.464,-8.464,0.0,0.0,0.0,-8.464,-8.464,-8.464,-8.464,-8.464,-8.464,-8.464,-8.464,-8.464,-8.464,0.0,0.0,0.0,0.0,0.0,0.0,0.0,0.0,0.0,0.0,0.0,0.0,0.0,0.0,0.0,0.0,0.0,0.0,0.0,0.0,0.0,0.0,-5.1147,-5.1674,-5.2226,-5.2226,-5.2452,-5.2929,-5.2929,-5.2929,-5.2929,-5.2929,-5.3042,-5.3359,-5.5049,-5.7088,-5.952,-6.1622,-6.3034,-6.4076,-6.6179,0.0,0.0,0.0,0.0,0.0,0.0,0.0,0.0,-6.8585,-6.9064,-6.9363,-7.053,0.0,0.0,0.0,0.0,0.0,-7.2565,-7.2924,-7.3103,-7.3851,-7.445,-7.4869,-7.4869,0.0,0.0,0.0,0.0,0.0,0.0,-7.4869,0.0,0.0,0.0,0.0,0.0,0.0,0.0,0.0,0.0,0.0,0.0,0.0,0.0,0.0,0.0,-8.464,-8.464,-8.464,-8.464,-8.464,-8.464,-8.464,-8.464,-8.464,-8.464,-8.464,-8.464,-8.464,-8.464,-8.464,-8.464,-8.464,0.0,0.0,-8.464,-8.464,-8.464,-8.464,-8.464,-8.464,-8.464,-8.464,-8.464,-8.464,0.0,0.0,0.0,0.0,0.0,0.0,0.0,0.0,0.0,0.0,0.0,0.0,0.0,0.0,0.0,0.0,0.0,0.0,0.0,0.0,0.0,-5.185,-5.1925,-5.2226,-5.2779,-5.2804,-5.2854,-5.2929,-5.2929,-5.2929,-5.2929,-5.2929,-5.3674,-5.5115,-5.6855,-5.8906,-6.1179,-6.2088,-6.3684,-6.5677,-6.6668,0.0,0.0,0.0,0.0,0.0,0.0,0.0,0.0,-6.8734,-6.9363,-6.9961,-7.0679,0.0,0.0,0.0,0.0,0.0,-7.2565,-7.2924,-7.3223,-7.442,-7.4809,-7.4869,-7.4869,-7.4869,0.0,0.0,0.0,0.0,0.0,-7.4869,-7.4869,0.0,0.0,0.0,0.0,0.0,0.0,0.0,0.0,0.0,0.0,0.0,0.0,0.0,0.0,0.0,-8.464,-8.464,-8.464,-8.464,-8.464,-8.464,-8.464,-8.464,-8.464,-8.464,-8.464,-8.464,-8.464,-8.464,-8.464,-8.464,0.0,-8.464,-8.464,-8.464,-8.464,-8.464,-8.464,-8.464,-8.464,-8.464,-8.464,-8.464,0.0,0.0,0.0,0.0,0.0,0.0,0.0,0.0,0.0,0.0,0.0,0.0,0.0,0.0,0.0,0.0,0.0,0.0,0.0,0.0,-5.2553,-5.2553,-5.2553,-5.2678,-5.2929,-5.2929,-5.2929,-5.2929,-5.2929,-5.2929,-5.2929,-5.381,-5.5617,-5.823,-5.9345,-6.1188,-6.344,-6.4087,-6.5194,-6.658,0.0,0.0,0.0,0.0,0.0,0.0,0.0,0.0,0.0,0.0,-6.9453,-7.0081,-7.0709,0.0,0.0,0.0,0.0,0.0,-7.2565,-7.2924,-7.3223,-7.454,-7.4869,-7.4869,-7.4869,-7.4869,-7.4869,-7.4869,0.0,0.0,0.0,0.0,0.0,0.0,0.0,0.0,0.0,0.0,0.0,0.0,0.0,0.0,0.0,0.0,0.0,0.0,0.0,0.0,-8.464,-8.464,-8.464,-8.464,-8.464,-8.464,-8.464,-8.464,-8.464,-8.464,-8.464,-8.464,-8.464,-8.464,-8.464,-8.464,0.0,-8.464,-8.464,-8.464,-8.464,-8.464,-8.464,-8.464,-8.464,-8.464,-8.464,-8.464,0.0,0.0,0.0,0.0,0.0,0.0,0.0,0.0,0.0,0.0,0.0,0.0,0.0,0.0,0.0,0.0,0.0,0.0,0.0,-5.2678,-5.2929,-5.2929,-5.2929,-5.2929,-5.2929,-5.2929,-5.2929,-5.2929,-5.2929,-5.311,-5.3538,-5.5617,-5.8096,-6.08,-6.1684,-6.3262,-6.5293,-6.5802,-6.64,-6.6999,0.0,0.0,0.0,0.0,0.0,0.0,0.0,0.0,0.0,0.0,0.0,0.0,0.0,0.0,0.0,-7.0889,-7.1009,-7.1398,-7.2595,-7.3013,-7.3432,-7.4569,-7.4869,-7.4869,-7.4869,-7.4869,-7.4869,-7.4869,-7.4869,0.0,0.0,0.0,0.0,0.0,0.0,0.0,0.0,0.0,0.0,0.0,0.0,0.0,0.0,0.0,0.0,0.0,0.0,0.0,-8.464,-8.464,-8.464,-8.464,-8.464,-8.464,-8.464,-8.464,-8.464,-8.464,-8.464,-8.464,-8.464,-8.464,-8.464,-8.464,-8.464,-8.464,-8.464,-8.464,-8.464,-8.464,-8.464,-8.464,-8.464,-8.464,-8.464,-8.464,0.0,0.0,0.0,0.0,0.0,0.0,0.0,0.0,0.0,0.0,0.0,0.0,0.0,0.0,0.0,0.0,0.0,0.0,0.0,-5.2904,-5.2929,-5.2929,-5.2929,-5.2929,-5.2929,-5.2929,-5.2929,-5.2929,-5.2929,-5.3674,-5.5287,-5.8578,-6.0614,-6.1463,-6.309,-6.4606,-6.5951,-6.5981,-6.64,-6.6999,-6.6999,0.0,0.0,0.0,0.0,0.0,0.0,0.0,0.0,0.0,0.0,0.0,0.0,0.0,-7.0889,-7.0889,-7.1338,-7.1966,-7.2714,-7.3343,-7.4001,-7.4689,-7.4869,-7.4869,-7.4869,-7.4869,-7.4869,-7.4869,-7.4869,-7.4869,0.0,0.0,0.0,0.0,0.0,0.0,0.0,0.0,0.0,0.0,0.0,0.0,0.0,0.0,0.0,0.0,0.0,0.0,-8.464,-8.464,-8.464,-8.464,-8.464,-8.464,-8.464,-8.464,-8.464,-8.464,-8.464,-8.464,-8.464,-8.464,-8.464,-8.464,-8.464,-8.464,-8.464,-8.464,-8.464,-8.464,-8.464,-8.464,-8.464,-8.464,-8.464,-8.464,0.0,0.0,0.0,0.0,0.0,0.0,0.0,0.0,0.0,0.0,0.0,0.0,0.0,0.0,0.0,0.0,0.0,0.0,0.0,-5.2929,-5.2929,-5.2929,-5.2929,-5.2929,-5.2929,-5.2929,-5.2929,-5.2929,-5.392,-5.588,-5.8606,-6.0332,-6.1805,-6.309,-6.4547,-6.5533,-6.6041,-6.643,-6.6759,-6.6999,-6.6999,-6.6999,0.0,0.0,0.0,0.0,0.0,0.0,0.0,0.0,-7.038,-7.0889,-7.0889,-7.0889,-7.0889,-7.0889,-7.1368,-7.2026,-7.2744,-7.3402,-7.4061,-7.4719,-7.4869,-7.4869,-7.4869,-7.4869,-7.4869,-7.4869,-7.4869,-7.4869,-7.4869,0.0,0.0,0.0,0.0,0.0,0.0,0.0,0.0,0.0,0.0,0.0,0.0,0.0,0.0,0.0,0.0,0.0,0.0,-8.464,-8.464,-8.464,-8.464,-8.464,-8.464,-8.464,-8.464,-8.464,-8.464,-8.464,-8.464,-8.464,-8.464,-8.464,-8.464,-8.464,-8.464,-8.464,-8.464,-8.464,-8.464,-8.464,-8.464,-8.464,-8.464,-8.464,0.0,0.0,0.0,0.0,0.0,0.0,0.0,0.0,0.0,0.0,0.0,0.0,0.0,0.0,0.0,0.0,0.0,0.0,-5.2929,-5.2929,-5.2929,-5.2929,-5.2929,-5.2929,-5.2929,-5.3427,-5.3674,-5.3674,-5.5945,-5.8313,-6.0857,-6.1834,-6.3147,-6.4665,-6.5592,-6.6131,-6.634,-6.6789,-6.6999,-6.6999,-6.6999,-6.6999,0.0,0.0,0.0,0.0,0.0,0.0,0.0,0.0,-7.056,-7.0889,-7.0889,-7.0889,-7.0889,-7.0889,-7.1517,-7.2325,-7.2804,-7.3552,-7.43,-7.4779,-7.4869,-7.4869,-7.4869,-7.4869,-7.4869,-7.4869,-7.4869,-7.4869,-7.4869,-7.6202,0.0,0.0,0.0,0.0,0.0,0.0,0.0,0.0,0.0,0.0,0.0,0.0,0.0,0.0,0.0,0.0,0.0,-8.464,-8.464,-8.464,-8.464,-8.464,-8.464,-8.464,-8.464,-8.464,-8.464,-8.464,-8.464,-8.464,-8.464,-8.464,-8.464,-8.464,-8.464,-8.464,-8.464,-8.464,-8.464,-8.464,-8.464,-8.464,-8.464,-8.464,0.0,0.0,0.0,0.0,0.0,0.0,0.0,0.0,0.0,0.0,0.0,0.0,0.0,0.0,0.0,0.0,0.0,0.0,-5.2929,-5.2929,-5.2929,-5.2929,-5.2929,-5.2929,-5.2929,-5.4608,-5.5419,-5.5419,-5.8828,-6.0825,-6.1549,-6.3268,-6.4725,-6.6011,-6.6011,-6.637,-6.6999,-6.6999,-6.6999,-6.6999,-6.6999,-6.6999,-6.6999,0.0,0.0,0.0,0.0,0.0,0.0,0.0,-7.0889,-7.0889,-7.0889,-7.0889,-7.0889,-7.0889,-7.1846,-7.2924,-7.2924,-7.3881,-7.4869,-7.4869,-7.4869,-7.4869,-7.4869,-7.4869,-7.4869,-7.4869,-7.4869,-7.4869,-7.4869,-7.6202,0.0,0.0,0.0,0.0,0.0,0.0,0.0,0.0,0.0,0.0,0.0,0.0,0.0,0.0,0.0,0.0,0.0,-8.464,-8.464,-8.464,-8.464,-8.464,-8.464,-8.464,-8.464,-8.464,-8.464,-8.464,-8.464,-8.464,-8.464,-8.464,-8.464,-8.464,-8.464,-8.464,-8.464,-8.464,-8.464,-8.464,-8.464,-8.464,-8.464,-8.464,0.0,0.0,0.0,0.0,0.0,0.0,0.0,0.0,0.0,0.0,0.0,0.0,0.0,0.0,0.0,0.0,0.0,0.0,-5.2929,-5.2929,-5.2929,-5.2929,-5.4055,-5.4675,-5.4675,-5.7505,-5.8952,-5.8952,-6.0512,-6.1924,-6.3268,-6.4726,-6.5622,-6.6041,-6.649,-6.6819,-6.6999,-6.6999,-6.6999,-6.6999,-6.6999,-6.6999,-6.7029,0.0,0.0,0.0,0.0,0.0,0.0,0.0,0.0,0.0,-7.0889,-7.0889,-7.0889,-7.0889,-7.1846,-7.2924,-7.2924,-7.3881,-7.4869,-7.4869,0.0,-7.4869,-7.4869,-7.4869,-7.4869,-7.4869,-7.4869,-7.4869,-7.4869,-7.6202,0.0,0.0,0.0,0.0,0.0,0.0,0.0,0.0,0.0,0.0,0.0,0.0,0.0,0.0,0.0,0.0,0.0,-8.464,-8.464,-8.464,-8.464,-8.464,-8.464,-8.464,-8.464,-8.464,-8.464,-8.464,-8.464,-8.464,-8.464,-8.464,-8.464,-8.464,-8.464,-8.464,-8.464,-8.464,-8.464,-8.464,-8.464,-8.464,-8.464,-8.464,0.0,0.0,0.0,0.0,0.0,0.0,0.0,0.0,0.0,0.0,-5.19,-5.2327,0.0,0.0,0.0,0.0,0.0,0.0,0.0,-5.2929,-5.3179,-5.3852,-5.4849,-5.6156,-5.7825,-5.9843,-6.1392,-6.2286,-6.2432,-6.3266,-6.4814,-6.5622,-6.6131,-6.64,-6.6819,-6.6999,-6.6999,-6.6999,-6.6999,-6.6999,-6.6999,-6.7148,-6.7418,0.0,0.0,0.0,0.0,0.0,0.0,0.0,0.0,0.0,-7.0889,-7.0889,-7.0949,-7.1218,-7.2056,-7.2984,-7.3223,-7.4061,0.0,-7.4869,-7.4869,-7.4869,-7.4869,-7.4869,-7.4869,-7.4869,-7.4869,-7.5142,-7.5728,-7.7191,0.0,0.0,0.0,0.0,0.0,0.0,0.0,0.0,0.0,0.0,0.0,0.0,0.0,0.0,0.0,0.0,0.0,-8.464,-8.464,-8.464,-8.464,-8.464,-8.464,-8.464,-8.464,-8.464,-8.464,-8.464,-8.464,-8.464,-8.464,-8.464,-8.464,-8.464,-8.464,-8.464,-8.464,-8.464,-8.464,-8.464,-8.464,-8.464,-8.464,-8.464,0.0,0.0,0.0,0.0,0.0,0.0,0.0,0.0,0.0,0.0,-5.2151,-5.2377,0.0,0.0,0.0,0.0,0.0,0.0,0.0,-5.3042,-5.381,-5.5353,-5.5802,-5.7798,-6.1643,-6.1791,-6.29,-6.5114,-6.4485,-6.4814,-6.6011,-6.6071,-6.643,-6.6999,-6.6999,-6.6999,-6.6999,-6.6999,-6.6999,-6.6999,-6.7059,-6.7448,-6.7986,-6.8106,0.0,0.0,0.0,0.0,0.0,0.0,0.0,0.0,-7.0889,-7.0889,-7.1038,-7.1697,-7.2385,-7.3073,-7.3702,-7.436,0.0,-7.4869,-7.4869,0.0,-7.4869,-7.4869,-7.4869,-7.4869,0.0,-7.5354,-7.68,0.0,0.0,0.0,0.0,0.0,0.0,0.0,0.0,0.0,0.0,0.0,0.0,0.0,0.0,0.0,0.0,0.0,0.0,-8.464,-8.464,-8.464,-8.464,-8.464,-8.464,-8.464,-8.464,-8.464,-8.464,-8.464,-8.464,-8.464,-8.464,-8.464,-8.464,-8.464,-8.464,-8.464,-8.464,-8.464,-8.464,-8.464,-8.464,-8.464,-8.464,-8.464,0.0,0.0,0.0,0.0,0.0,0.0,0.0,0.0,0.0,0.0,0.0,0.0,0.0,0.0,0.0,0.0,0.0,0.0,0.0,-5.4122,-5.5049,-5.5353,-5.8483,-6.1254,-6.3417,-6.3951,-6.4755,-6.5802,-6.5652,-6.5712,-6.6011,-6.655,-6.6849,-6.6999,-6.6999,-6.6999,-6.6999,-6.6999,-6.6999,-6.7029,-6.7537,-6.7837,-6.8076,-6.9153,-6.9722,0.0,0.0,0.0,0.0,0.0,0.0,0.0,-7.0889,-7.0889,-7.1038,-7.1697,-7.2385,-7.3073,0.0,-7.436,0.0,0.0,-7.4869,-7.4869,-7.4869,-7.4869,-7.4869,-7.4869,-7.4869,-7.5006,0.0,0.0,0.0,0.0,0.0,0.0,0.0,0.0,0.0,0.0,0.0,0.0,0.0,0.0,0.0,0.0,0.0,0.0,-8.464,-8.464,-8.464,-8.464,-8.464,-8.464,-8.464,-8.464,-8.464,0.0,-8.464,-8.464,-8.464,-8.464,-8.464,-8.464,-8.464,-8.464,-8.464,-8.464,-8.464,-8.464,-8.464,-8.464,-8.464,-8.464,-8.464,-8.464,0.0,0.0,0.0,0.0,0.0,0.0,0.0,0.0,0.0,0.0,0.0,0.0,0.0,0.0,0.0,0.0,0.0,0.0,0.0,0.0,-5.6248,-5.8264,-6.1135,-6.3415,-6.4934,-6.5323,-6.5832,-6.649,-6.649,-6.649,-6.649,-6.6819,-6.6999,-6.6999,-6.6999,-6.6999,-6.6999,-6.6999,-6.6999,-6.7059,-6.7717,-6.8166,-6.8585,-6.9602,-7.0171,-7.047,-7.0799,0.0,0.0,0.0,0.0,0.0,0.0,0.0,-7.1517,-7.2176,-7.2864,0.0,0.0,0.0,0.0,-7.4869,0.0,-7.4869,-7.4869,-7.4869,-7.4869,-7.4869,0.0,0.0,0.0,0.0,0.0,0.0,0.0,0.0,0.0,0.0,0.0,0.0,0.0,0.0,0.0,0.0,0.0,0.0,0.0,-8.464,-8.464,-8.464,-8.464,-8.464,-8.464,-8.464,-8.464,-8.464,-8.464,-8.464,-8.464,-8.464,-8.464,-8.464,-8.464,-8.464,-8.464,-8.464,-8.464,-8.464,-8.464,-8.464,-8.464,-8.464,-8.464,-8.464,-8.464,-8.464,0.0,0.0,0.0,0.0,0.0,0.0,0.0,0.0,0.0,0.0,0.0,0.0,0.0,0.0,0.0,0.0,0.0,0.0,0.0,0.0,0.0,-6.1939,-6.3535,-6.4874,-6.5981,-6.6131,-6.643,-6.6999,-6.6999,-6.6999,-6.6999,-6.6999,-6.6999,-6.6999,-6.6999,-6.6999,-6.6999,-6.6999,-6.7059,-6.7208,-6.7867,-6.8555,-6.9243,-6.9901,-7.047,-7.0889,-7.0889,-7.0889,0.0,0.0,0.0,0.0,0.0,0.0,-7.2026,-7.2714,0.0,0.0,0.0,0.0,0.0,0.0,0.0,0.0,0.0,0.0,0.0,0.0,0.0,0.0,0.0,0.0,0.0,0.0,0.0,0.0,0.0,0.0,0.0,0.0,0.0,0.0,0.0,0.0,0.0,0.0,0.0,0.0,-8.464,-8.464,-8.464,-8.464,-8.464,-8.464,-8.464,-8.464,-8.464,-8.464,-8.464,-8.464,-8.464,-8.464,-8.464,-8.464,-8.464,-8.464,-8.464,-8.464,-8.464,-8.464,-8.464,-8.464,-8.464,-8.464,-8.464,-8.464,0.0,0.0,0.0,0.0,0.0,0.0,0.0,0.0,0.0,0.0,-5.2929,-5.2929,0.0,0.0,0.0,0.0,0.0,0.0,0.0,0.0,0.0,-6.4427,-6.5293,-6.5832,-6.6011,-6.658,-6.6909,-6.6999,-6.6999,-6.6999,-6.6999,-6.6999,-6.6999,-6.6999,-6.6999,-6.6999,-6.6999,-6.6999,-6.7328,-6.7897,-6.8585,-6.9273,-6.9901,-7.056,-7.0829,-7.0889,-7.0889,-7.0889,-7.0889,-7.0889,-7.0889,0.0,0.0,0.0,0.0,0.0,0.0,0.0,0.0,0.0,0.0,0.0,0.0,0.0,0.0,0.0,0.0,0.0,0.0,0.0,0.0,0.0,0.0,0.0,0.0,0.0,0.0,0.0,0.0,0.0,0.0,0.0,0.0,0.0,0.0,0.0,0.0,0.0,-8.464,-8.464,-8.464,-8.464,-8.464,-8.464,-8.464,-8.464,-8.464,-8.464,-8.464,-8.464,-8.464,-8.464,-8.464,-8.464,-8.464,-8.464,-8.464,-8.464,-8.464,-8.464,-8.464,-8.464,-8.464,-8.464,-8.464,-8.464,0.0,0.0,0.0,0.0,0.0,0.0,0.0,0.0,0.0,0.0,0.0,-5.2929,0.0,0.0,0.0,0.0,0.0,0.0,0.0,0.0,0.0,-6.5502,-6.5862,-6.6191,-6.655,-6.6849,-6.6999,-6.6999,-6.6999,-6.6999,-6.6999,-6.6999,-6.6999,-6.6999,-6.6999,-6.6999,-6.6999,-6.7388,-6.7717,-6.8076,-6.9123,-6.9722,-7.0051,-7.0679,-7.0889,-7.0889,-7.0889,-7.0889,-7.0889,-7.0889,-7.0889,-7.0979,-7.1338,0.0,0.0,0.0,0.0,0.0,0.0,0.0,0.0,0.0,0.0,0.0,0.0,0.0,0.0,0.0,0.0,0.0,0.0,0.0,0.0,0.0,0.0,0.0,0.0,0.0,0.0,0.0,0.0,0.0,0.0,0.0,0.0,0.0,0.0,-8.464,-8.464,-8.464,-8.464,-8.464,-8.464,-8.464,-8.464,-8.464,-8.464,-8.464,-8.464,-8.464,-8.464,-8.464,-8.464,-8.464,-8.464,-8.464,-8.464,-8.464,-8.464,-8.464,-8.464,-8.464,-8.464,-8.464,-8.464,-8.464,0.0,0.0,0.0,0.0,0.0,0.0,0.0,0.0,0.0,0.0,0.0,0.0,0.0,0.0,0.0,0.0,0.0,0.0,0.0,0.0,0.0,0.0,-6.6251,-6.649,-6.6969,-6.6999,-6.6999,-6.6999,-6.6999,-6.6999,-6.6999,-6.6999,-6.6999,-6.6999,-6.6999,-6.7089,-6.7268,-6.7777,-6.8166,-6.8585,-6.9572,-7.0081,-7.026,-7.0739,-7.0889,-7.0889,-7.0889,-7.0889,-7.0919,-7.1098,-7.1158,-7.1278,-7.1936,-7.2624,0.0,0.0,0.0,0.0,0.0,0.0,0.0,0.0,0.0,0.0,0.0,0.0,0.0,0.0,0.0,0.0,0.0,0.0,0.0,0.0,0.0,0.0,0.0,0.0,0.0,0.0,0.0,0.0,0.0,0.0,0.0,0.0,0.0,-8.464,-8.464,-8.464,-8.464,-8.464,-8.464,-8.464,-8.464,-8.464,-8.464,-8.464,-8.464,-8.464,-8.464,-8.464,-8.464,-8.464,-8.464,-8.464,-8.464,-8.464,-8.464,-8.464,-8.464,-8.464,-8.464,-8.464,-8.464,-8.464,0.0,0.0,0.0,0.0,0.0,0.0,0.0,0.0,0.0,0.0,0.0,0.0,-5.5287,-5.8265,-6.0237,-6.0237,-6.238,-6.4249,-6.5681,-6.5861,-6.6251,0.0,0.0,0.0,-6.6999,-6.6999,-6.6999,-6.6999,-6.6999,-6.6999,-6.6999,-6.6999,-6.6999,-6.6999,-6.6999,-6.7328,-6.7926,-6.7956,-6.8704,-6.9871,-6.9961,-7.032,-7.0859,-7.0889,-7.0889,-7.0889,-7.0889,-7.0889,-7.1009,-7.1637,-7.1846,-7.1966,-7.2654,-7.3313,-7.3851,0.0,0.0,0.0,0.0,0.0,0.0,0.0,0.0,0.0,0.0,0.0,0.0,0.0,0.0,0.0,0.0,0.0,0.0,0.0,0.0,0.0,0.0,0.0,0.0,0.0,0.0,0.0,0.0,0.0,0.0,0.0,0.0,-8.464,-8.464,-8.464,-8.464,-8.464,-8.464,-8.464,-8.464,-8.464,-8.464,-8.464,-8.464,-8.464,-8.464,-8.464,-8.464,-8.464,-8.464,-8.464,-8.464,-8.464,-8.464,-8.464,-8.464,-8.464,-8.464,-8.464,-8.464,-8.464,0.0,0.0,0.0,0.0,0.0,0.0,0.0,0.0,0.0,0.0,0.0,0.0,0.0,-5.9104,-6.048,-6.048,-6.306,-6.5054,-6.5951,-6.64,-6.6759,-6.6969,-6.6999,-6.6999,-6.6999,-6.6999,-6.6999,-6.6999,-6.6999,-6.6999,-6.6999,-6.6999,-6.7208,-6.7627,-6.7627,-6.7747,-6.8016,-6.8884,-6.9542,-7.0021,-7.041,-7.0709,-7.0889,-7.0889,-7.0889,-7.0889,-7.0889,-7.1188,-7.1577,-7.1816,-7.2176,-7.2654,-7.3343,-7.3702,-7.3971,-7.439,0.0,0.0,0.0,0.0,0.0,0.0,0.0,0.0,0.0,0.0,0.0,0.0,0.0,0.0,0.0,0.0,0.0,0.0,0.0,0.0,0.0,0.0,0.0,0.0,0.0,0.0,0.0,0.0,0.0,0.0,0.0,0.0,-8.464,-8.464,-8.464,-8.464,-8.464,-8.464,-8.464,-8.464,-8.464,-8.464,-8.464,-8.464,-8.464,-8.464,-8.464,-8.464,-8.464,-8.464,-8.464,-8.464,-8.464,-8.464,-8.464,-8.464,-8.464,-8.464,-8.464,-8.464,0.0,0.0,0.0,0.0,0.0,0.0,0.0,0.0,-5.4122,-5.5221,0.0,0.0,0.0,0.0,-6.1552,-6.199,-6.4069,-6.5652,-6.6281,-6.6759,-6.6999,-6.6999,-6.6999,-6.6999,-6.6999,-6.6999,-6.6999,-6.6999,-6.6999,-6.6999,-6.6999,-6.7208,-6.7537,-6.7986,-6.8435,-6.8645,-6.8704,-6.9602,-7.0111,-7.032,-7.0739,-7.0889,-7.0889,-7.0889,-7.0889,-7.0889,-7.0889,-7.1338,-7.1906,-7.2146,-7.2684,-7.3343,-7.4001,-7.424,-7.43,-7.4749,-7.4869,0.0,-7.4869,0.0,0.0,0.0,0.0,0.0,0.0,0.0,0.0,0.0,0.0,0.0,0.0,0.0,0.0,0.0,0.0,0.0,0.0,0.0,0.0,0.0,0.0,0.0,0.0,0.0,0.0,0.0,0.0,0.0,-8.464,-8.464,-8.464,-8.464,-8.464,-8.464,-8.464,-8.464,-8.464,-8.464,-8.464,-8.464,-8.464,-8.464,-8.464,-8.464,-8.464,-8.464,-8.464,-8.464,-8.464,-8.464,-8.464,-8.464,-8.464,-8.464,-8.464,-8.464,0.0,0.0,0.0,0.0,0.0,0.0,0.0,0.0,-5.5485,-5.5551,0.0,0.0,0.0,0.0,0.0,-6.4934,-6.5652,-6.6281,-6.6939,-6.6999,-6.6999,-6.6999,-6.6999,-6.6999,-6.6999,-6.6999,-6.6999,-6.6999,-6.6999,-6.7029,-6.7029,-6.7687,-6.8016,-6.8076,-6.9393,-6.9991,-7.0021,-7.0021,-7.035,-7.0889,-7.0889,-7.0889,-7.0889,-7.0889,-7.0889,-7.0889,-7.0919,-7.1368,-7.2026,-7.2714,-7.3373,-7.4031,-7.4659,-7.4869,-7.4869,-7.4869,-7.4869,-7.4869,0.0,0.0,0.0,0.0,0.0,0.0,0.0,0.0,0.0,0.0,0.0,0.0,0.0,0.0,0.0,0.0,0.0,0.0,0.0,0.0,0.0,0.0,0.0,0.0,0.0,0.0,0.0,0.0,0.0,-8.464,-8.464,-8.464,-8.464,-8.464,-8.464,-8.464,-8.464,-8.464,-8.464,-8.464,-8.464,-8.464,-8.464,-8.464,-8.464,-8.464,-8.464,-8.464,-8.464,-8.464,-8.464,-8.464,-8.464,-8.464,-8.464,-8.464,-8.464,-8.464,0.0,0.0,0.0,0.0,0.0,0.0,-5.4742,-5.6141,-5.7724,0.0,0.0,0.0,-6.2233,-6.3205,-6.4276,-6.5622,-6.5892,-6.6281,-6.6939,-6.6999,-6.6999,-6.6999,-6.6999,-6.6999,-6.6999,-6.6999,-6.6999,-6.6999,-6.7478,-6.7687,-6.7717,-6.8405,-6.8974,-6.9453,-6.9812,-7.0231,-7.0649,-7.0649,-7.0739,-7.0889,-7.0889,-7.0889,-7.0889,-7.0889,-7.0889,-7.0949,-7.1457,-7.2056,-7.2744,-7.3402,-7.4061,-7.4629,-7.4809,-7.4869,-7.4869,-7.4869,-7.4869,-7.4869,-7.4869,0.0,0.0,0.0,0.0,0.0,0.0,0.0,0.0,0.0,0.0,0.0,0.0,0.0,0.0,0.0,0.0,0.0,0.0,0.0,0.0,0.0,0.0,0.0,0.0,0.0,0.0,0.0,-8.464,-8.464,-8.464,-8.464,-8.464,-8.464,-8.464,-8.464,-8.464,-8.464,-8.464,-8.464,-8.464,-8.464,-8.464,-8.464,-8.464,-8.464,-8.464,-8.464,-8.464,-8.464,-8.464,-8.464,-8.464,-8.464,-8.464,-8.464,-8.464,-8.464,0.0,0.0,0.0,0.0,0.0,0.0,-5.644,-5.7914,-5.9352,0.0,0.0,0.0,-6.338,-6.4276,-6.5144,-6.5951,-6.6251,-6.658,-6.6969,-6.6999,-6.6999,-6.6999,-6.6999,-6.6999,-6.6999,-6.6999,-6.7119,-6.7388,-6.7777,-6.8106,-6.8405,-6.9093,-6.9602,-6.9991,-7.026,-7.056,-7.0889,-7.0889,-7.0889,-7.0889,-7.0889,-7.0889,-7.0889,-7.0889,-7.1068,-7.1368,-7.1757,-7.2505,-7.3373,-7.3762,-7.433,-7.4869,-7.4869,-7.4869,-7.4869,-7.4869,-7.4869,-7.4869,-7.4869,-7.4869,-7.5044,0.0,0.0,0.0,0.0,-8.2255,0.0,0.0,0.0,0.0,0.0,0.0,0.0,0.0,0.0,0.0,0.0,0.0,0.0,0.0,0.0,0.0,0.0,0.0,0.0,-8.464,-8.464,-8.464,-8.464,-8.464,-8.464,-8.464,-8.464,-8.464,-8.464,-8.464,-8.464,-8.464,-8.464,-8.464,-8.464,-8.464,-8.464,-8.464,-8.464,-8.464,-8.464,-8.464,-8.464,-8.464,-8.464,-8.464,-8.464,-8.464,-8.464,-8.466,0.0,0.0,0.0,0.0,0.0,0.0,-5.832,-5.9688,-6.081,0.0,-6.2234,-6.3408,-6.4036,-6.5263,-6.6041,-6.6101,-6.664,-6.6999,-6.6999,-6.6999,-6.6999,-6.6999,-6.6999,-6.6999,-6.6999,-6.7059,-6.7388,-6.7956,-6.8136,-6.8495,-6.9123,-6.9782,-7.0081,-7.0111,-7.0649,0.0,-7.0889,-7.0889,-7.0889,-7.0889,-7.0889,-7.0889,-7.0919,-7.0979,-7.1368,-7.1906,-7.2056,-7.2894,-7.3911,-7.3971,-7.439,-7.4869,-7.4869,-7.4869,-7.4869,-7.4869,-7.4869,-7.4869,-7.4869,-7.5006,-7.5489,-7.6931,-7.7612,0.0,-8.1531,-8.2345,-8.2886,0.0,0.0,0.0,0.0,0.0,0.0,0.0,0.0,0.0,0.0,0.0,0.0,0.0,0.0,0.0,0.0,-8.464,-8.464,-8.464,-8.464,-8.464,-8.464,-8.464,-8.464,-8.464,-8.464,-8.464,-8.464,-8.464,-8.464,-8.464,-8.464,-8.464,-8.464,-8.464,-8.464,-8.464,-8.464,-8.464,-8.464,-8.464,-8.464,-8.464,-8.464,-8.464,-8.464,-8.464,-8.466,-8.4943,0.0,0.0,0.0,0.0,0.0,0.0,-5.9994,-6.1466,-6.2613,-6.2613,-6.3323,-6.4066,-6.4755,-6.5533,-6.6221,-6.6759,-6.6909,-6.6999,-6.6999,-6.6999,-6.6999,-6.6999,-6.6999,-6.6999,-6.6999,-6.7508,-6.7837,-6.7956,-6.9064,-6.9662,-6.9812,-7.044,-7.0709,-7.0739,-7.0859,-7.0889,-7.0889,0.0,0.0,-7.0889,-7.0889,-7.0889,-7.0949,-7.1487,-7.1787,-7.2026,-7.3103,-7.3672,-7.3971,-7.451,-7.4779,-7.4869,-7.4869,-7.4869,-7.4869,-7.4869,-7.4869,-7.4869,-7.4869,-7.5863,-7.6931,-7.7225,-7.9249,0.0,-8.2026,-8.3166,-8.4197,0.0,0.0,0.0,0.0,0.0,0.0,0.0,0.0,0.0,0.0,0.0,0.0,0.0,0.0,0.0,0.0,-8.464,-8.464,-8.464,-8.464,-8.464,-8.464,-8.464,-8.464,-8.464,-8.464,-8.464,-8.464,-8.464,-8.464,-8.464,-8.464,-8.464,-8.464,-8.464,-8.464,-8.464,-8.464,-8.464,-8.464,-8.464,-8.464,-8.464,-8.464,-8.464,-8.464,-8.464,-8.5188,-8.6103,0.0,0.0,0.0,0.0,0.0,0.0,0.0,-6.2555,-6.3079,-6.3079,-6.3917,-6.4755,-6.5443,-6.6101,-6.664,-6.6969,-6.6999,-6.6999,-6.6999,-6.6999,-6.6999,-6.6999,-6.7298,-6.7478,-6.7478,-6.8136,-6.8645,-6.8974,-6.9662,-7.0141,-7.044,-7.0769,-7.0889,-7.0889,-7.0889,-7.0889,-7.0889,0.0,-7.0889,-7.0889,-7.0889,0.0,-7.1427,-7.1757,-7.2295,-7.2984,-7.3642,-7.4091,-7.442,-7.4779,-7.4869,-7.4869,-7.4869,-7.4869,-7.4869,-7.4869,-7.4869,-7.4869,-7.4869,-7.6099,-7.7483,-7.8345,-8.0376,0.0,0.0,-8.4035,0.0,0.0,0.0,0.0,0.0,0.0,0.0,0.0,0.0,0.0,0.0,0.0,0.0,0.0,0.0,0.0,0.0,-8.464,-8.464,-8.464,-8.464,-8.464,-8.464,-8.464,-8.464,-8.464,-8.464,-8.464,-8.464,-8.464,-8.464,-8.464,-8.464,-8.464,-8.464,-8.464,-8.464,-8.464,-8.464,-8.464,-8.464,-8.464,-8.464,-8.464,-8.464,-8.464,-8.466,-8.5292,-8.5887,-8.6575,-5.8571,-5.981,0.0,0.0,0.0,0.0,0.0,-6.3079,-6.3109,-6.3228,-6.4395,-6.5413,-6.5951,-6.661,-6.6999,-6.6999,-6.6999,-6.6999,-6.6999,-6.6999,-6.6999,-6.6999,-6.7627,-6.7956,-6.7956,-6.8764,-6.9453,-6.9991,-7.0111,-7.041,-7.0889,-7.0889,-7.0889,-7.0889,-7.0889,-7.0889,-7.0889,0.0,0.0,-7.0919,0.0,-7.1398,-7.1906,-7.2176,-7.2954,-7.3911,-7.4031,-7.442,-7.4869,-7.4869,-7.4869,-7.4869,-7.4869,-7.4869,-7.4869,-7.4869,-7.4869,-7.4869,-7.4869,-7.6099,-7.774,-7.9404,-8.1003,-8.2628,0.0,0.0,0.0,0.0,0.0,0.0,0.0,0.0,0.0,0.0,0.0,0.0,0.0,0.0,0.0,0.0,0.0,0.0,0.0,-8.4539,-8.464,-8.464,-8.464,-8.464,-8.464,-8.464,-8.464,-8.464,-8.464,-8.464,-8.464,-8.464,-8.464,-8.464,-8.464,-8.464,-8.464,-8.464,-8.464,-8.464,-8.464,-8.464,-8.464,-8.464,-8.464,-8.464,-8.464,-8.464,-8.4766,-8.5953,-8.6561,-8.7104,-6.048,-6.1585,-6.2817,0.0,0.0,0.0,0.0,0.0,-6.3258,-6.3827,-6.5054,-6.5922,-6.6011,-6.661,-6.6999,-6.6999,-6.6999,-6.6999,-6.6999,-6.6999,-6.6999,-6.6999,-6.7627,-6.7956,-6.7956,-6.9213,-6.9901,-6.9991,-7.053,-7.0829,-7.0889,-7.0889,-7.0889,-7.0889,-7.0889,-7.0889,-7.0889,0.0,-7.0889,0.0,-7.1547,-7.1816,0.0,-7.3223,-7.3762,-7.3971,-7.454,-7.4809,-7.4869,0.0,-7.4869,-7.4869,0.0,-7.4869,-7.4869,-7.4869,0.0,0.0,0.0,0.0,0.0,0.0,-8.1003,-8.2628,0.0,0.0,-8.464,-8.464,0.0,0.0,0.0,0.0,0.0,0.0,0.0,0.0,0.0,0.0,0.0,0.0,0.0,0.0,0.0,0.0,-8.464,-8.464,-8.464,-8.464,-8.464,-8.464,-8.464,-8.464,-8.464,-8.464,-8.464,-8.464,-8.464,-8.464,-8.464,-8.464,-8.464,-8.464,-8.464,-8.464,-8.464,-8.464,-8.464,-8.464,-8.464,-8.464,-8.464,-8.464,-8.4766,-8.5953,-8.7104,-8.8259,-6.2175,-6.2613,-6.3079,0.0,0.0,0.0,0.0,0.0,-6.3857,-6.4515,-6.5413,-6.6161,-6.655,-6.6819,-6.6999,-6.6999,-6.6999,-6.6999,-6.6999,-6.7358,-6.7567,-6.7567,-6.8585,-6.9153,-6.9153,-7.0051,-7.05,-7.05,-7.0769,-7.0889,-7.0889,-7.0889,-7.0889,-7.0889,-7.0889,0.0,-7.0919,0.0,-7.1457,0.0,0.0,0.0,0.0,-7.3672,-7.4121,-7.451,-7.4779,-7.4869,-7.4869,0.0,-7.4869,0.0,0.0,0.0,0.0,-7.4869,0.0,0.0,0.0,0.0,0.0,0.0,0.0,0.0,-8.4446,-8.464,-8.464,0.0,0.0,0.0,0.0,0.0,0.0,0.0,0.0,0.0,0.0,0.0,0.0,0.0,0.0,0.0,0.0,0.0,0.0,0.0,0.0,-8.4167,-8.4606,-8.464,-8.464,-8.464,-8.464,-8.464,-8.464,-8.464,-8.464,-8.464,-8.464,-8.464,-8.464,-8.464,-8.464,-8.464,-8.464,-8.464,-8.464,-8.464,-8.464,-8.464,-8.464,-8.464,-8.4838,-8.672,-8.7769,-8.8526,-6.3079,-6.3079,-6.3079,-6.3079,0.0,0.0,0.0,0.0,-6.4515,-6.5203,-6.5862,-6.646,-6.6939,-6.6999,-6.6999,-6.6999,-6.6999,-6.6999,-6.6999,-6.7597,-6.7956,-6.7956,-6.9273,-6.9991,-6.9991,-7.059,-7.0889,-7.0889,-7.0889,-7.0889,-7.0889,-7.0889,-7.0889,-7.0889,-7.0889,-7.0889,-7.0949,0.0,-7.1876,-7.1996,-7.3343,-7.4001,-7.4151,-7.4151,-7.445,-7.4869,-7.4869,-7.4869,-7.4869,-7.4869,-7.4869,0.0,-7.4869,0.0,0.0,0.0,0.0,0.0,-7.6865,0.0,0.0,0.0,0.0,0.0,0.0,0.0,0.0,0.0,0.0,0.0,0.0,0.0,0.0,0.0,0.0,0.0,0.0,0.0,0.0,0.0,0.0,0.0,0.0,0.0,0.0,0.0,-8.3524,-8.3422,-8.3998,-8.42,-8.4302,-8.4302,-8.4505,-8.464,-8.464,-8.464,-8.464,-8.464,-8.464,-8.464,-8.464,-8.464,-8.464,-8.464,-8.464,-8.464,-8.464,-8.464,-8.464,-8.464,-8.464,-8.4819,-8.5344,-8.7434,-8.8178,-8.8535,-6.3079,-6.3079,-6.3079,-6.3079,0.0,0.0,0.0,0.0,-6.5233,-6.5892,-6.655,-6.6969,-6.6999,-6.6999,-6.6999,-6.6999,-6.6999,-6.6999,-6.6999,-6.7597,-6.7956,-6.7956,-6.9273,-6.9991,-6.9991,-7.059,-7.0889,-7.0889,-7.0889,-7.0889,-7.0889,-7.0889,-7.0889,-7.0889,-7.0889,-7.0889,-7.0949,-7.1607,-7.1876,-7.1996,-7.3343,-7.427,-7.4839,0.0,-7.4869,-7.4869,-7.4869,0.0,0.0,-7.4869,-7.4869,0.0,0.0,0.0,0.0,0.0,0.0,0.0,0.0,0.0,0.0,-8.1414,0.0,0.0,0.0,0.0,-8.464,0.0,0.0,0.0,0.0,0.0,0.0,-7.8585,0.0,0.0,0.0,0.0,0.0,0.0,0.0,0.0,0.0,0.0,0.0,-8.2475,-8.2475,-8.2475,-8.2475,-8.3152,-8.3524,-8.3524,-8.4234,-8.464,-8.464,-8.464,-8.464,-8.464,-8.464,-8.464,-8.464,-8.464,-8.464,-8.464,-8.464,-8.464,-8.464,-8.464,-8.464,-8.464,-8.464,-8.5378,-8.6581,-8.7758,-8.8178,-8.8535,-6.3079,-6.3079,-6.3079,-6.3079,-6.3079,0.0,0.0,-6.4575,0.0,0.0,-6.658,-6.6999,-6.6999,-6.6999,-6.6999,-6.6999,-6.6999,-6.7178,-6.7597,-6.8286,-6.8854,-6.9273,-7.0141,-7.059,-7.059,-7.0799,-7.0889,-7.0889,-7.0889,-7.0889,0.0,-7.0889,-7.0889,-7.0889,0.0,-7.0889,0.0,0.0,0.0,0.0,0.0,-7.4689,-7.4869,0.0,0.0,-7.4869,-7.4869,-7.4869,0.0,-7.4869,-7.4869,-7.4869,-7.4869,-7.4869,-7.4869,-7.4869,-7.5661,0.0,0.0,0.0,-8.1062,-8.3221,0.0,0.0,0.0,0.0,0.0,0.0,0.0,0.0,0.0,0.0,0.0,0.0,0.0,0.0,0.0,0.0,0.0,0.0,0.0,0.0,0.0,0.0,0.0,-8.2374,-8.1934,-8.19,0.0,-8.2644,-8.278,-8.278,-8.3016,-8.3389,-8.3862,-8.3862,-8.4133,-8.464,-8.464,-8.464,-8.464,-8.464,-8.464,-8.464,-8.464,-8.464,-8.464,-8.464,-8.464,-8.466,-8.5464,-8.6053,-8.6561,-8.7769,-8.871,-8.96,-6.3079,-6.3079,-6.3079,-6.3079,0.0,0.0,0.0,0.0,0.0,0.0,-6.6729,0.0,-6.6999,-6.6999,-6.6999,-6.6999,-6.6999,-6.7268,-6.7989,-6.8615,-6.9303,-6.9961,-7.056,-7.0889,-7.0889,-7.0889,-7.0889,-7.0889,-7.0889,-7.0889,0.0,0.0,-7.0889,-7.0919,0.0,-7.1248,-7.1338,0.0,-7.3253,0.0,0.0,-7.4869,0.0,0.0,-7.4869,-7.4869,0.0,-7.4869,-7.4869,-7.4869,-7.4869,-7.4869,-7.4869,-7.4869,-7.5006,-7.5624,-7.6502,-7.7804,-8.0014,-8.1447,0.0,-8.4197,-8.464,0.0,-8.464,0.0,-8.464,0.0,0.0,0.0,0.0,0.0,0.0,0.0,0.0,0.0,0.0,-8.0209,0.0,0.0,0.0,0.0,0.0,0.0,-8.1088,-8.1596,-8.119,-8.1122,0.0,0.0,-8.2002,-8.2002,-8.2272,-8.2644,-8.3084,-8.3118,-8.349,-8.4234,-8.4234,-8.437,-8.464,-8.464,-8.464,-8.464,-8.464,-8.464,-8.464,-8.464,-8.4838,-8.5344,-8.6103,-8.6913,-8.7769,-8.8535,-8.96,-9.0754,0.0,-6.3079,0.0,0.0,-6.3617,0.0,0.0,0.0,-6.6251,0.0,-6.6999,-6.6999,-6.6999,-6.6999,-6.6999,-6.6999,-6.7029,-6.7328,-6.7986,-6.8675,-6.9333,-6.9991,-7.059,-7.0889,-7.0889,-7.0889,-7.0889,-7.0889,-7.0889,-7.0889,0.0,0.0,0.0,0.0,-7.1577,0.0,-7.1966,-7.3313,-7.3911,-7.4001,-7.4629,-7.4869,-7.4869,-7.4869,-7.4869,-7.4869,-7.4869,-7.4869,-7.4869,-7.4869,-7.4869,-7.4869,-7.4869,-7.4937,-7.5316,-7.6865,-7.7419,-7.8218,-8.1356,-8.2288,-8.2684,-8.4197,0.0,0.0,0.0,0.0,-8.464,0.0,0.0,0.0,0.0,0.0,0.0,0.0,0.0,0.0,0.0,0.0,0.0,0.0,0.0,0.0,0.0,-8.0209,-8.0209,-8.0209,-8.0209,0.0,0.0,0.0,-8.1224,-8.1224,-8.1934,-8.2306,-8.2374,-8.2374,-8.2712,-8.3456,-8.349,-8.3862,-8.4573,-8.4606,-8.464,-8.464,-8.464,-8.464,-8.4606,-8.466,-8.5395,-8.6414,-8.6561,-8.8043,-9.0087,-9.0087,-9.083,-9.1803,-6.3079,-6.3079,-6.3228,0.0,-6.3887,-6.4246,0.0,0.0,0.0,0.0,-6.6999,-6.6999,-6.6999,-6.6999,-6.6999,-6.6999,-6.7448,-6.8016,-6.8704,-6.9363,-7.0021,-7.0649,-7.0829,-7.0889,-7.0889,-7.0889,-7.0889,-7.0889,-7.0889,0.0,-7.0889,0.0,0.0,0.0,0.0,0.0,-7.1966,-7.3313,-7.418,-7.4629,-7.4809,-7.4869,0.0,0.0,-7.4869,-7.4869,-7.4869,-7.4869,-7.4869,-7.4869,-7.4869,-7.4869,-7.4869,-7.5728,-7.6765,-7.716,-7.9001,-8.1121,-8.1968,-8.3054,-8.4089,-8.45,-8.464,-8.464,0.0,0.0,0.0,0.0,0.0,0.0,0.0,0.0,0.0,0.0,0.0,0.0,0.0,0.0,0.0,-8.0209,0.0,0.0,0.0,-8.0209,-8.0209,-8.0209,-8.0209,0.0,0.0,0.0,0.0,-8.0479,-8.0682,-8.1021,-8.1562,-8.1562,-8.1934,-8.2712,-8.3253,-8.3592,-8.3795,-8.437,-8.464,-8.464,-8.464,-8.464,-8.466,-8.5566,-8.6152,-8.6575,-8.8402,-9.0006,-9.136,-9.136,-9.1509,-9.1803,-6.3079,0.0,0.0,-6.3947,0.0,0.0,-6.5413,-6.6011,0.0,-6.6939,-6.6999,0.0,-6.6999,-6.6999,-6.7119,-6.7388,-6.7747,-6.8375,-6.9363,-6.9782,-7.026,-7.0889,-7.0889,-7.0889,-7.0889,-7.0889,-7.0889,-7.0889,-7.0889,0.0,-7.0889,0.0,0.0,0.0,0.0,-7.2505,0.0,-7.3881,-7.454,-7.4869,-7.4869,0.0,0.0,-7.4869,-7.4869,-7.4869,-7.4869,-7.4869,-7.4869,-7.4869,-7.4869,-7.4869,-7.4869,-7.6033,-7.7419,-7.8155,-8.0195,-8.2345,-8.3054,-8.3893,-8.464,-8.464,-8.464,-8.464,-8.464,-8.464,-8.464,0.0,-8.464,-8.4505,0.0,0.0,0.0,0.0,0.0,0.0,0.0,0.0,0.0,0.0,-8.0209,0.0,0.0,0.0,-8.0209,0.0,0.0,0.0,0.0,0.0,0.0,-8.0209,-8.0209,-8.0412,-8.0818,-8.0818,-8.119,-8.1934,-8.234,-8.2881,-8.3524,-8.393,-8.4302,-8.464,-8.464,-8.464,-8.4713,-8.5903,-8.6755,-8.748,-8.9883,-9.1211,-9.1803,-9.1803,-9.1803,-9.1803,0.0,0.0,0.0,0.0,0.0,0.0,0.0,-6.664,0.0,-6.6999,0.0,-6.6999,-6.6999,-6.6999,-6.7268,-6.7897,-6.8046,-6.8645,-6.9901,-7.0051,-7.035,-7.0889,-7.0889,-7.0889,-7.0889,-7.0889,-7.0889,-7.0889,-7.0889,0.0,0.0,0.0,0.0,0.0,0.0,0.0,0.0,-7.4629,-7.4869,0.0,-7.4869,-7.4869,-7.4869,-7.4869,-7.4869,-7.4869,-7.4869,-7.4869,-7.4869,-7.4869,-7.4869,-7.4937,-7.5112,-7.6335,-7.7965,-7.9649,-8.1239,-8.283,-8.4197,-8.464,-8.464,-8.464,-8.464,-8.464,-8.464,-8.464,-8.464,-8.464,-8.464,-8.464,0.0,0.0,0.0,0.0,0.0,0.0,0.0,0.0,0.0,0.0,0.0,0.0,0.0,0.0,0.0,0.0,0.0,0.0,0.0,0.0,0.0,-8.0209,-8.0209,-8.0209,-8.0209,0.0,-8.0513,-8.1156,-8.1224,-8.1968,-8.3219,-8.3321,-8.3761,-8.4471,-8.4471,-8.4611,-8.4943,-8.6152,-8.7445,-8.8963,-9.0984,-9.1803,-9.1803,-9.1803,-9.1803,-9.1803,0.0,0.0,0.0,0.0,0.0,-6.6191,-6.6729,-6.6909,-6.6999,-6.6999,-6.6999,-6.6999,-6.6999,-6.6999,-6.7268,-6.7897,-6.8495,0.0,0.0,0.0,-7.0799,-7.0889,-7.0889,-7.0889,-7.0889,-7.0889,-7.0889,-7.0889,-7.0889,0.0,0.0,0.0,0.0,0.0,0.0,0.0,-7.4719,-7.4839,0.0,-7.4869,-7.4869,-7.4869,-7.4869,-7.4869,-7.4869,-7.4869,-7.4869,-7.4869,-7.4869,-7.4869,-7.4869,-7.5112,-7.6436,-7.8028,-7.971,-8.1297,-8.2942,-8.4251,-8.45,-8.464,-8.464,-8.464,-8.464,-8.464,-8.464,-8.464,-8.464,-8.464,-8.464,-8.464,-8.464,0.0,0.0,0.0,0.0,0.0,0.0,0.0,0.0,0.0,0.0,-8.0209,0.0,0.0,0.0,0.0,0.0,0.0,0.0,0.0,0.0,0.0,-8.0209,0.0,0.0,0.0,-8.0276,-8.0412,-8.0987,-8.1426,-8.1697,-8.2306,-8.3016,-8.3693,-8.3693,-8.4591,-8.6202,-8.7352,-8.9221,-9.1211,-9.1657,-9.1803,-9.1803,-9.1803,-9.1803,-9.1803,0.0,0.0,0.0,0.0,0.0,0.0,0.0,-6.6999,0.0,-6.6999,-6.6999,-6.6999,-6.6999,-6.7298,-6.7777,-6.8435,-6.9123,-6.9782,-7.041,-7.0739,-7.0889,-7.0889,-7.0889,-7.0889,-7.0889,-7.0889,-7.0889,-7.0889,-7.0889,0.0,0.0,0.0,0.0,0.0,0.0,-7.43,0.0,0.0,0.0,-7.4869,-7.4869,-7.4869,-7.4869,-7.4869,-7.4869,-7.4869,-7.4869,-7.4869,-7.4869,-7.4869,-7.5422,-7.6268,-7.7061,-7.9001,-8.118,-8.1968,-8.3365,-8.464,-8.464,-8.464,-8.464,-8.464,-8.464,-8.464,-8.464,-8.464,-8.464,-8.464,-8.464,-8.464,-8.464,-8.3727,0.0,0.0,0.0,0.0,0.0,0.0,-8.0209,0.0,0.0,0.0,0.0,0.0,0.0,0.0,0.0,0.0,0.0,0.0,0.0,0.0,0.0,0.0,0.0,0.0,0.0,-8.0209,-8.0547,-8.0919,-8.1291,-8.1663,-8.2238,-8.2967,-8.3534,-8.4323,-8.5381,-8.7152,-8.8935,-9.0555,-9.0555,-9.0555,-9.0555,-9.0555,-9.0555,-9.0665,0.0,-6.4665,0.0,0.0,-6.655,0.0,-6.6999,-6.6999,-6.6999,-6.6999,-6.6999,-6.6999,-6.6999,-6.7567,-6.8256,-6.8944,-6.9602,-7.026,-7.0859,-7.0889,-7.0889,-7.0889,-7.0889,-7.0889,-7.0889,-7.0889,-7.0889,-7.0889,-7.0889,0.0,0.0,0.0,0.0,0.0,0.0,0.0,0.0,0.0,-7.4869,-7.4869,-7.4869,-7.4869,-7.4869,-7.4869,-7.4869,-7.4869,-7.4869,-7.4869,-7.4937,-7.5286,-7.6268,-7.7354,-7.774,-7.98,-8.2288,-8.2628,-8.3619,-8.464,-8.464,-8.464,-8.464,-8.464,-8.464,-8.464,-8.464,-8.464,-8.464,-8.464,-8.464,-8.464,-8.464,-8.3896,0.0,0.0,0.0,0.0,0.0,0.0,0.0,0.0,0.0,0.0,-8.0209,0.0,0.0,0.0,0.0,0.0,0.0,0.0,0.0,0.0,0.0,-8.0209,-8.0209,0.0,-8.0209,-8.0209,-8.0209,-8.0513,-8.1054,-8.1054,-8.146,-8.2222,-8.3375,-8.4273,-8.5028,-8.7106,-8.8541,-8.9382,-8.9382,-8.9382,-8.9382,-8.9382,-8.9382,-8.9565,0.0,0.0,0.0,0.0,0.0,0.0,-6.6999,-6.6999,-6.6999,-6.6999,-6.6999,-6.6999,-6.6999,-6.7567,-6.8256,-6.8944,-6.9602,-7.026,-7.0859,-7.0889,-7.0889,-7.0889,-7.0889,-7.0889,-7.0889,-7.0889,-7.0889,-7.0889,-7.0889,-7.032,0.0,0.0,0.0,0.0,0.0,0.0,0.0,-7.4869,-7.4869,-7.4869,-7.4869,-7.4869,-7.4869,-7.4869,-7.4869,-7.4869,-7.4869,-7.4869,-7.5112,-7.6568,-7.716,-7.7548,-7.9095,-8.0793,-8.2515,-8.3947,-8.45,-8.464,-8.464,-8.464,-8.464,-8.464,-8.464,-8.464,-8.464,-8.464,-8.464,-8.464,-8.464,-8.464,-8.464,-8.3456,-8.2475,0.0,0.0,0.0,0.0,0.0,-8.0209,-8.0209,0.0,0.0,0.0,0.0,0.0,0.0,0.0,0.0,0.0,0.0,0.0,-8.0209,0.0,-8.0209,-8.0209,-8.0209,-8.0209,-8.0209,-8.0209,-8.0242,-8.031,-8.031,-8.0716,-8.1495,-8.2618,-8.4712,-8.7385,-8.8726,-8.931,-8.9382,-8.9382,-8.9382,-8.9382,-8.9382,-8.9382,-8.9419,0.0,0.0,0.0,0.0,0.0,0.0,0.0,-6.6999,-6.6999,-6.6999,-6.6999,-6.7148,-6.7537,-6.8196,-6.8854,-6.9542,-7.0171,-7.0649,-7.0889,-7.0889,-7.0889,-7.0889,-7.0889,-7.0889,-7.0889,-7.0889,-7.0889,0.0,0.0,0.0,0.0,0.0,0.0,0.0,0.0,-7.451,-7.4869,-7.4869,-7.4869,-7.4869,-7.4869,-7.4869,-7.4869,-7.4869,-7.4869,-7.4869,-7.4869,-7.4869,-7.5112,-7.6765,-7.7996,-7.9095,-8.0734,-8.2312,-8.3784,-8.4392,-8.464,-8.464,-8.464,-8.464,-8.464,-8.464,-8.464,-8.464,-8.464,-8.464,-8.464,-8.464,-8.464,-8.4471,-8.4031,-8.3456,-8.278,0.0,0.0,0.0,0.0,0.0,0.0,-8.0209,0.0,-8.0209,0.0,0.0,0.0,0.0,0.0,0.0,0.0,0.0,0.0,-8.0209,0.0,-8.0209,-8.0209,-8.0209,-8.0209,-8.0209,-8.0209,-8.0209,-8.0209,-8.0209,-8.1137,-8.2742,-8.3874,-8.5495,-8.7268,-8.7773,-8.7986,-8.7986,-8.7986,-8.7986,-8.7986,-8.7986,-8.7986,-8.7986,-6.5173,0.0,-6.643,0.0,-6.6999,-6.6999,-6.6999,-6.6999,-6.6999,-6.6999,-6.6999,-6.7238,-6.7897,-6.8585,-6.9273,-6.9931,-7.056,-7.0889,-7.0889,-7.0889,-7.0889,-7.0889,-7.0889,0.0,-7.0889,-7.0889,-7.0889,-7.0889,-7.0889,0.0,0.0,0.0,0.0,0.0,-7.3881,-7.427,-7.4869,-7.4869,-7.4869,-7.4869,-7.4869,-7.4869,-7.4869,-7.4869,-7.4869,-7.4869,-7.4869,-7.518,-7.5863,-7.7515,-7.9157,-8.0707,-8.1853,-8.331,-8.464,-8.464,-8.464,-8.464,-8.464,-8.464,-8.464,-8.464,-8.464,-8.464,-8.464,-8.464,-8.464,-8.464,-8.464,-8.4403,-8.3625,-8.3321,-8.2746,-8.1494,0.0,0.0,0.0,-8.0209,0.0,0.0,-8.0209,-8.0209,-8.0209,0.0,0.0,0.0,0.0,0.0,0.0,0.0,0.0,0.0,0.0,0.0,0.0,-8.0209,-8.0209,-8.0209,-8.0209,-8.0209,-8.0209,-8.0542,-8.1956,-8.413,-8.4967,-8.5954,-8.6995,-8.6995,-8.6995,-8.6995,-8.6995,-8.6995,-8.6995,-8.6995,-8.6995,-8.6995,-6.5862,-6.652,-6.6969,-6.6999,-6.6999,-6.6999,-6.6999,-6.6999,-6.6999,-6.6999,-6.6999,-6.7238,-6.7897,-6.8585,-6.9273,-6.9931,-7.056,-7.0889,-7.0889,-7.0889,-7.0889,0.0,0.0,-7.0889,-7.0889,-7.0889,-7.0889,-7.0889,0.0,0.0,-6.9034,0.0,-7.1398,-7.3881,-7.3881,-7.427,-7.4869,-7.4869,-7.4869,-7.4869,-7.4869,-7.4869,-7.4869,-7.4869,-7.4869,-7.4869,-7.4869,-7.5899,-7.7548,-7.9189,-8.0826,-8.214,-8.2198,-8.331,-8.464,-8.464,-8.464,-8.464,-8.464,-8.464,-8.464,-8.464,-8.464,-8.464,-8.464,-8.464,-8.464,-8.464,-8.464,-8.4403,-8.3625,-8.2915,-8.2171,-8.1393,0.0,0.0,0.0,0.0,0.0,-8.0209,-8.0209,-8.0209,-8.0209,0.0,0.0,0.0,0.0,0.0,0.0,0.0,0.0,-8.0209,-8.0209,0.0,-8.0209,-8.0209,-8.0209,-8.0209,-8.0209,-8.0209,-8.0259,-8.1379,-8.3112,-8.5278,-8.5278,-8.5954,-8.6995,-8.6995,-8.6995,-8.6995,-8.6995,-8.6995,-8.6995,-8.6995,-8.6995,-8.6995,-6.5892,-6.655,-6.6999,-6.6999,-6.6999,-6.6999,-6.6999,-6.6999,-6.6999,-6.6999,-6.7388,-6.7926,-6.8585,-6.8854,-6.9423,0.0,-7.0799,-7.0889,0.0,-7.0889,-7.0889,-7.0889,-7.0889,-7.0889,-7.0889,-7.0889,-7.0889,-7.0889,0.0,0.0,0.0,-7.05,-7.1308,-7.2535,-7.3013,-7.3582,-7.424,-7.4689,-7.4869,-7.4869,-7.4869,-7.4869,-7.4869,-7.4869,-7.4869,-7.5074,-7.6136,-7.6865,-7.774,-8.0495,-8.1795,-8.2401,-8.3476,-8.4197,-8.464,-8.464,-8.464,-8.464,-8.464,-8.464,-8.464,-8.464,-8.464,-8.464,-8.464,-8.464,-8.464,-8.464,-8.42,-8.3625,-8.2881,-8.2137,-8.1393,-8.0648,-8.0344,0.0,0.0,0.0,-8.0209,-8.0209,-8.0209,-8.0209,0.0,-8.0209,0.0,0.0,0.0,0.0,0.0,0.0,0.0,0.0,-8.0209,0.0,-8.0209,-8.0209,-8.0209,-8.0209,-8.0209,-8.0641,-8.1379,-8.2527,-8.3881,-8.5317,-8.6101,-8.6679,-8.6995,-8.6995,-8.6995,-8.6995,-8.6995,-8.6995,-8.6995,-8.6995,-8.6995,-8.6995,-6.6251,-6.67,-6.6999,-6.6999,-6.6999,-6.6999,-6.6999,-6.6999,-6.6999,-6.6999,-6.7567,-6.8226,-6.8914,-6.9213,0.0,-7.0799,-7.0889,-7.0889,-7.0889,-7.0889,-7.0889,-7.0889,-7.0889,-7.0889,-7.0889,-7.0889,0.0,-7.0889,-7.0889,-7.0889,-7.0889,-7.0889,-7.1248,-7.1906,-7.2325,-7.2894,-7.3582,-7.424,-7.451,-7.454,-7.4779,-7.4869,-7.4869,-7.4869,-7.5316,-7.5899,-7.6931,-7.8092,-7.9433,-8.1531,-8.2572,-8.331,-8.4251,-8.464,-8.464,-8.464,-8.464,-8.464,-8.464,-8.464,-8.464,-8.464,-8.464,-8.464,-8.464,-8.464,-8.4539,-8.4268,-8.3828,-8.3186,-8.2171,-8.1596,-8.1054,-8.031,-8.0209,-8.0209,-8.0209,0.0,0.0,0.0,0.0,0.0,0.0,-8.0209,-8.0209,0.0,0.0,0.0,0.0,0.0,0.0,-8.0209,-8.0209,0.0,-8.0209,-8.0209,-8.0209,-8.0209,-8.0209,-8.1014,-8.2571,-8.3277,-8.4452,-8.5991,-8.6714,-8.6995,-8.6995,-8.6995,-8.6995,-8.6995,-8.6995,-8.6995,-8.6995,-8.6995,-8.6995,-8.6995,-6.6849,-6.6999,0.0,0.0,-6.6999,0.0,-6.6999,-6.6999,-6.6999,-6.6999,-6.7597,-6.8286,-6.8944,-6.9632,-7.029,-7.0859,0.0,0.0,0.0,-7.0889,-7.0889,-7.0889,-7.0889,-7.0889,-7.0889,-7.0889,-7.0889,-7.0889,-7.0889,-7.0889,-7.0889,-7.0889,-7.1218,-7.1816,-7.1876,-7.2235,-7.2894,-7.3552,-7.3821,-7.3881,-7.448,-7.4749,-7.4749,-7.4856,-7.5814,-7.7135,-7.7392,-7.9428,-8.2066,-8.218,-8.3198,-8.4471,-8.4471,-8.4471,-8.4505,-8.4606,-8.464,-8.464,-8.464,-8.464,-8.464,-8.464,-8.464,-8.4606,-8.4573,-8.4539,-8.4336,-8.3592,-8.3389,-8.2915,-8.1528,-8.1257,-8.0987,-8.031,-8.0209,-8.0209,-8.0209,0.0,0.0,0.0,0.0,0.0,0.0,-8.0209,-8.0209,0.0,0.0,0.0,0.0,0.0,-8.0209,-8.0209,-8.0209,-8.0209,-8.0209,-8.0209,-8.0209,-8.0209,-8.0276,-8.1474,-8.3585,-8.367,-8.4927,-8.6995,-8.6995,-8.6995,-8.6995,-8.6995,-8.6995,-8.6995,-8.6995,-8.6995,-8.6995,-8.6995,-8.6995,-8.6995,0.0,0.0,-6.6999,-6.6999,-6.6999,-6.6999,-6.6999,-6.6999,-6.6999,-6.6999,-6.8016,-6.8824,-6.8974,-7.0021,-7.0739,-7.0889,-7.0889,-7.0889,-7.0889,-7.0889,-7.0889,-7.0889,-7.0889,-7.0889,-7.0889,-7.0889,-7.0889,-7.0889,-7.0889,-7.0889,-7.0889,-7.0889,-7.0979,-7.1158,-7.1667,-7.1966,-7.2176,-7.2864,-7.3163,-7.3163,-7.3313,-7.3373,-7.3507,-7.4707,-7.5356,-7.5993,-7.8469,-7.9839,-8.0695,-8.1946,-8.26,-8.2949,-8.2949,-8.2949,-8.3152,-8.4302,-8.464,-8.464,-8.464,-8.464,-8.464,-8.464,-8.464,-8.4471,-8.3896,-8.3761,-8.3558,-8.2813,-8.2205,-8.1697,-8.1359,-8.0818,-8.0412,-8.0242,-8.0209,-8.0209,-8.0209,-8.0209,0.0,0.0,-8.0209,-8.0209,-8.0209,-8.0209,-8.0209,0.0,0.0,0.0,0.0,-8.0209,-8.0209,-8.0209,-8.0209,-8.0209,-8.0209,-8.0209,-8.0209,-8.0209,-8.1077,-8.2244,-8.3663,-8.4492,-8.5693,-8.6995,-8.6995,-8.6995,-8.6995,-8.6995,-8.6995,-8.6995,-8.6995,-8.6995,-8.6995,-8.6995,-8.6995,-8.6995,-6.6909,-6.6999,-6.6999,-6.6999,-6.6999,-6.6999,-6.6999,-6.6999,-6.6999,-6.6999,-6.8166,-6.9004,-6.9004,-7.0141,-7.0889,-7.0889,-7.0889,-7.0889,-7.0889,-7.0889,-7.0889,-7.0889,-7.0889,-7.0889,-7.0889,-7.0889,-7.0889,-7.0889,-7.0889,-7.0889,-7.0889,-7.0889,-7.0889,-7.0919,-7.1278,-7.1427,-7.1487,-7.2146,-7.2445,-7.2475,-7.2804,-7.2924,-7.3094,-7.4638,-7.5652,-7.6669,-7.9121,-8.0476,-8.125,-8.2113,-8.2408,-8.2408,-8.2408,-8.2408,-8.2577,-8.3389,-8.3625,-8.3625,-8.3625,-8.3625,-8.3625,-8.3625,-8.3625,-8.349,-8.3084,-8.3016,-8.278,-8.2035,-8.1562,-8.119,-8.0851,-8.0479,-8.0209,-8.0209,-8.0209,-8.0209,-8.0209,-8.0209,0.0,-8.0209,-8.0209,-8.0209,-8.0209,-8.0209,-8.0209,-8.0209,-8.0209,0.0,-8.0209,-8.0209,-8.0209,-8.0209,-8.0209,-8.0209,-8.0209,-8.0209,-8.0209,-8.0209,-8.1331,-8.2481,-8.3663,-8.4773,-8.5917,-8.6995,-8.6995,-8.6995,-8.6995,-8.6995,-8.6995,-8.6995,-8.6995,-8.6995,-8.6995,-8.6995,-8.6995,-8.6995,-6.6999,-6.6999,-6.6999,-6.6999,-6.6999,-6.6999,-6.6999,-6.6999,-6.6999,-6.6999,-6.8166,-6.9004,-6.9004,-7.0141,-7.0889,-7.0889,-7.0889,-7.0889,-7.0889,-7.0889,-7.0889,-7.0889,-7.0889,-7.0889,-7.0889,-7.0889,-7.0889,-7.0889,-7.0889,-7.0889,-7.0889,-7.0889,-7.0889,-7.0889,-7.0889,-7.0889,-7.0949,-7.1517,-7.1727,-7.1787,-7.2385,-7.2727,-7.3129,-7.4682,-7.6293,-7.7899,-7.9504,-8.0916,-8.2069,-8.2069,-8.2069,-8.2069,-8.2069,-8.2069,-8.2069,-8.2069,-8.2069,-8.2137,-8.234,-8.2408,-8.2408,-8.2408,-8.2408,-8.2374,-8.2272,-8.2238,-8.2035,-8.1291,-8.1122,-8.0919,-8.031,-8.0209,-8.0209,-8.0209,-8.0209,-8.0209,-8.0209,0.0,-8.0209,-8.0209,-8.0209,-8.0209,-8.0209,-8.0209,-8.0209,-8.0209,-8.0209,-8.0209,-8.0209,-8.0209,-8.0209,-8.0209,-8.0209,-8.0209,-8.0209,-8.0209,-8.0276,-8.0442,-8.1582,-8.275,-8.3916,-8.5045,-8.6064,-8.6995,-8.6995,-8.6995,-8.6995,-8.6995,-8.6995,-8.6995,-8.6995,-8.6995,-8.6995,-8.6995,-8.6995,-8.6995,-6.6999,-6.6999,-6.6999,-6.6999,-6.6999,-6.6999,-6.6999,-6.6999,-6.6999,-6.6999,-6.8166,-6.9004,-6.9004,-7.0141,-7.0889,-7.0889,-7.0889,-7.0889,-7.0889,-7.0889,-7.0889,-7.0889,-7.0889,-7.0889,-7.0889,-7.0889,-7.0889,-7.0889,-7.0889,-7.0889,-7.0889,-7.0889,-7.0889,-7.0889,-7.0889,-7.0889,-7.0919,-7.1009,-7.1068,-7.1068,-7.1188,-7.1967,-7.3293,-7.4901,-7.6475,-7.8048,-7.9623,-8.031,-8.0547,-8.0547,-8.0547,-8.0547,-8.0547,-8.0547,-8.0547,-8.0547,-8.0547,-8.0818,-8.2069,-8.2408,-8.2408,-8.2408,-8.2408,-8.2238,-8.1596,-8.146,-8.1257,-8.0513,-8.0378,-8.0344,-8.0209,-8.0209,-8.0209,-8.0209,-8.0209,-8.0209,-8.0209,0.0,-8.0209,-8.0209,-8.0209,-8.0209,-8.0209,-8.0209,-8.0209,-8.0209,-8.0209,-8.0209,-8.0209,-8.0209,-8.0209,-8.0209,-8.0209,-8.0209,-8.0209,-8.0209,-8.0656,-8.1629,-8.2795,-8.3922,-8.5084,-8.6247,-8.6819,-8.6995,-8.6995,-8.6995,-8.6995,-8.6995,-8.6995,-8.6995,-8.6995,-8.6995,-8.6995,-8.6995,-8.6995,-8.6995,-6.6999,-6.6999,-6.6999,-6.6999,-6.6999,-6.6999,-6.6999,-6.6999,-6.6999,-6.6999,-6.8166,-6.9004,-6.9004,-7.0141,-7.0889,-7.0889,-7.0889,-7.0889,-7.0889,-7.0889,-7.0889,-7.0889,-7.0889,-7.0889,-7.0889,-7.0889,-7.0889,-7.0889,-7.0889,-7.0889,-7.0889,-7.0889,-7.0889,-7.0889,-7.0889,-7.0889,-7.0889,-7.0889,-7.0889,-7.0954,-7.1825,-7.2581,-7.3443,-7.5924,-7.7248,-7.8131,-7.9683,-8.0209,-8.0209,-8.0209,-8.0209,-8.0209,-8.0209,-8.0209,-8.0209,-8.0209,-8.0209,-8.0344,-8.1021,-8.1224,-8.1224,-8.1224,-8.1224,-8.1122,-8.0784,-8.0716,-8.0615,-8.0276,-8.0209,-8.0209,-8.0209,-8.0209,-8.0209,-8.0209,-8.0209,0.0,0.0,-8.0209,-8.0209,-8.0209,-8.0209,-8.0209,-8.0209,-8.0209,-8.0209,-8.0209,-8.0209,-8.0209,-8.0209,-8.0209,-8.0209,-8.0209,-8.0209,-8.0209,-8.0209,-8.0209,-8.0804,-8.1922,-8.306,-8.4207,-8.5317,-8.65,-8.6995,-8.6995,-8.6995,-8.6995,-8.6995,-8.6995,-8.6995,-8.6995,-8.6995,-8.6995,-8.6995,-8.6995,-8.6995,-8.6995,-6.6999,-6.6999,-6.6999,-6.6999,-6.6999,-6.6999,-6.6999,-6.6999,-6.6999,-6.6999,-6.8166,-6.9004,-6.9004,-7.0141,-7.0889,-7.0889,-7.0889,-7.0889,-7.0889,-7.0889,-7.0889,-7.0889,-7.0889,-7.0889,-7.0889,-7.0889,-7.0889,-7.0889,-7.0889,-7.0889,-7.0889,-7.0889,-7.0889,-7.0889,-7.0889,-7.0889,-7.0889,-7.0889,-7.0889,-7.1018,-7.2581,-7.3475,-7.4048,-7.6828,-7.8131,-7.8591,-7.9785,-8.0209,-8.0209,-8.0209,-8.0209,-8.0209,-8.0209,-8.0209,-8.0209,-8.0209,-8.0209,-8.0209,-8.0209,-8.0209,-8.0209,-8.0209,-8.0209,-8.0209,-8.0209,-8.0209,-8.0209,-8.0209,-8.0209,-8.0209,-8.0209,-8.0209,-8.0209,-8.0209,0.0,0.0,0.0,-8.0209,-8.0209,-8.0209,-8.0209,-8.0209,-8.0209,-8.0209,-8.0209,-8.0209,-8.0209,-8.0209,-8.0209,-8.0209,-8.0209,-8.0209,-8.0209,-8.0326,-8.0591,-8.0591,-8.1283,-8.2706,-8.3543,-8.4573,-8.5731,-8.6607,-8.6995,-8.6995,-8.6995,-8.6995,-8.6995,-8.6995,-8.6995,-8.6995,-8.6995,-8.6995,-8.6995,-8.6995,-8.6995,-8.6995,-6.6999,-6.6999,-6.6999,-6.6999,-6.6999,-6.6999,-6.6999,-6.6999,-6.6999,-6.6999,-6.8166,-6.9004,-6.9004,-7.0141,-7.0889,-7.0889,-7.0889,-7.0889,-7.0889,-7.0889,-7.0889,-7.0889,-7.0889,-7.0889,-7.0889,-7.0889,-7.0889,-7.0889,-7.0889,-7.0889,-7.0889,-7.0889,-7.0889,-7.0889,-7.0889,-7.0889,-7.0889,-7.0889,-7.0889,-7.1018,-7.2612,-7.414,-7.5579,-7.7248,-7.8802,-8.0023,-8.0158,-8.0209,-8.0209,-8.0209,-8.0209,-8.0209,-8.0209,-8.0209,-8.0209,-8.0209,-8.0209,-8.0209,-8.0209,-8.0209,-8.0209,-8.0209,-8.0209,-8.0209,-8.0209,-8.0209,-8.0209,-8.0209,-8.0209,-8.0209,-8.0209,-8.0209,-8.0209,-8.0209,0.0,0.0,-8.0209,-8.0209,-8.0209,-8.0209,-8.0209,-8.0209,-8.0209,-8.0209,-8.0209,-8.0209,-8.0209,-8.0209,-8.0209,-8.0209,-8.0209,-8.0209,-8.0209,-8.0706,-8.177,-8.177,-8.2883,-8.5045,-8.5123,-8.5768,-8.6891,-8.696,-8.6995,-8.6995,-8.6995,-8.6995,-8.6995,-8.6995,-8.6995,-8.6995,-8.6995,-8.6995,-8.6995,-8.6995,-8.6995,-8.6995,-6.6999,-6.6999,-6.6999,-6.6999,-6.6999,-6.6999,-6.6999,-6.6999,-6.6999,-6.6999,-6.8166,-6.9004,-6.9004,-7.0141,-7.0889,-7.0889,-7.0889,-7.0889,-7.0889,-7.0889,-7.0889,-7.0889,-7.0889,-7.0889,-7.0889,-7.0889,-7.0889,-7.0889,-7.0889,-7.0889,-7.0889,-7.0889,-7.0889,-7.0889,-7.0889,-7.0889,-7.0954,-7.1952,-7.2362,-7.2612,-7.5115,-7.6491,-7.7193,-7.875,-7.9683,-8.0209,-8.0209,-8.0209,-8.0209,-8.0209,-8.0209,-8.0209,-8.0209,-8.0209,-8.0209,-8.0209,-8.0209,-8.0209,-8.0209,-8.0209,-8.0209,-8.0209,-8.0209,-8.0209,-8.0209,-8.0209,-8.0209,-8.0209,-8.0209,-8.0209,-8.0209,-8.0209,-8.0209,-8.0209,0.0,-8.0209,-8.0209,-8.0209,-8.0209,-8.0209,-8.0209,-8.0209,-8.0209,-8.0209,-8.0209,-8.0209,-8.0209,-8.0209,-8.0209,-8.0209,-8.0209,-8.0209,-8.0868,-8.1474,-8.1875,-8.1875,-8.3024,-8.5278,-8.5278,-8.588,-8.6995,-8.6995,-8.6995,-8.6995,-8.6995,-8.6995,-8.6995,-8.6995,-8.6995,-8.6995,-8.6995,-8.6995,-8.6995,-8.6995,-8.6995,-8.6995,-6.6999,-6.6999,-6.6999,-6.6999,-6.6999,-6.6999,-6.6999,-6.6999,-6.6999,-6.6999,-6.8166,-6.9004,-6.9004,-7.0141,-7.0889,-7.0889,-7.0889,-7.0889,-7.0889,-7.0889,-7.0889,-7.0889,-7.0889,-7.0889,-7.0889,-7.0889,-7.0889,-7.0889,-7.0889,-7.0889,-7.0889,-7.0889,-7.0889,-7.0889,-7.0889,-7.1212,-7.1728,-7.2768,-7.3535,-7.4259,-7.686,-7.7882,-7.8077,-7.9632,-8.0209,-8.0209,-8.0209,-8.0209,-8.0209,-8.0209,-8.0209,-8.0209,-8.0209,-8.0209,-8.0209,-8.0209,-8.0209,-8.0209,-8.0209,-8.0209,-8.0209,-8.0209,-8.0209,-8.0209,-8.0209,-8.0209,-8.0209,-8.0209,-8.0209,-8.0209,-8.0209,-8.0209,-8.0209,-8.0209,-8.0209,-8.0209,-8.0209,-8.0209,-8.0209,-8.0209,-8.0209,-8.0209,-8.0209,-8.0209,-8.0209,-8.0209,-8.0209,-8.0209,-8.0209,-8.0209,-8.0376,-8.0706,-8.1522,-8.2209,-8.2937,-8.2937,-8.3922,-8.5843,-8.5843,-8.6247,-8.6995,-8.6995,-8.6995,-8.6995,-8.6995,-8.6995,-8.6995,-8.6995,-8.6995,-8.6995,-8.6995,-8.6995,-8.6995,-8.6995,-8.6995,-8.6995,-6.6999,-6.6999,-6.6999,-6.6999,-6.6999,-6.6999,-6.6999,-6.6999,-6.6999,-6.6999,-6.8166,-6.9004,-6.9004,-7.0141,-7.0889,-7.0889,-7.0889,-7.0889,-7.0889,-7.0889,-7.0889,-7.0889,-7.0889,-7.0889,-7.0889,-7.0889,-7.0889,-7.0889,-7.0889,-7.0889,-7.0889,-7.0889,-7.0889,-7.0889,-7.0889,-7.1792,-7.3292,-7.3353,-7.42,-7.5752,-7.7303,-7.7936,-7.8131,-7.9632,-8.0209,-8.0209,-8.0209,-8.0209,-8.0209,-8.0209,-8.0209,-8.0209,-8.0209,-8.0209,-8.0209,-8.0209,-8.0209,-8.0209,-8.0209,-8.0209,-8.0209,-8.0209,-8.0209,-8.0209,-8.0209,-8.0209,-8.0209,-8.0209,-8.0209,-8.0209,-8.0209,-8.0209,-8.0209,-8.0209,-8.0209,-8.0209,-8.0209,-8.0209,-8.0209,-8.0209,-8.0209,-8.0209,-8.0209,-8.0209,-8.0209,-8.0209,-8.0209,-8.0209,-8.0209,-8.0209,-8.0755,-8.1829,-8.1922,-8.2981,-8.5278,-8.5278,-8.588,-8.6995,-8.6995,-8.6995,-8.6995,-8.6995,-8.6995,-8.6995,-8.6995,-8.6995,-8.6995,-8.6995,-8.6995,-8.6995,-8.6995,-8.6995,-8.6995,-8.6995,-8.6995,-8.6995,-6.6999,-6.6999,-6.6999,-6.6999,-6.6999,-6.6999,-6.6999,-6.6999,-6.6999,-6.6999,-6.7747,-6.8465,-6.8944,-6.9752,-7.044,-7.0859,-7.0889,-7.0889,-7.0889,-7.0889,-7.0889,-7.0889,-7.0889,-7.0889,-7.0889,-7.0889,-7.0889,-7.0889,-7.0889,-7.0889,-7.0889,-7.0889,-7.0889,-7.0954,-7.2109,-7.286,-7.3445,-7.5579,-7.6804,-7.7358,-7.8855,-7.9495,-7.9546,-8.0023,-8.0209,-8.0209,-8.0209,-8.0209,-8.0209,-8.0209,-8.0209,-8.0209,-8.0209,-8.0209,-8.0209,-8.0209,-8.0209,-8.0209,-8.0209,-8.0209,-8.0209,-8.0209,-8.0209,-8.0209,-8.0209,-8.0209,-8.0209,-8.0209,-8.0209,-8.0209,-8.0209,-8.0209,-8.0209,-8.0209,-8.0209,-8.0209,-8.0209,-8.0209,-8.0209,-8.0209,-8.0209,-8.0209,-8.0209,-8.0209,-8.0209,-8.0209,-8.0209,-8.0209,-8.0209,-8.0966,-8.1535,-8.1875,-8.3457,-8.4613,-8.5278,-8.5278,-8.588,-8.6995,-8.6995,-8.6995,-8.6995,-8.6995,-8.6995,-8.6995,-8.6995,-8.6995,-8.6995,-8.6995,-8.6995,-8.6995,-8.6995,-8.6995,-8.6995,-8.6995,-8.6995,-8.6995,-6.6999,-6.6999,-6.6999,-6.6999,-6.6999,-6.6999,-6.6999,-6.6999,-6.6999,-6.6999,-6.7567,-6.8136,-6.8555,-6.9423,-7.0141,-7.05,-7.0769,-7.0889,-7.0889,-7.0889,-7.0889,-7.0889,-7.0889,-7.0889,-7.0889,-7.0889,-7.0889,-7.0889,-7.0889,-7.0889,-7.0889,-7.0889,-7.1247,-7.1825,-7.286,-7.3959,-7.5231,-7.7082,-7.8238,-7.8855,-7.9836,-8.0209,-8.0209,-8.0209,-8.0209,-8.0209,-8.0209,-8.0209,-8.0209,-8.0209,-8.0209,-8.0209,-8.0209,-8.0209,-8.0209,-8.0209,-8.0209,-8.0209,-8.0209,-8.0209,-8.0209,-8.0209,-8.0209,-8.0209,-8.0209,-8.0209,-8.0209,-8.0209,-8.0209,-8.0209,-8.0209,-8.0209,-8.0209,-8.0209,-8.0209,-8.0209,-8.0209,-8.0209,-8.0209,-8.0209,-8.0209,-8.0209,-8.0209,-8.0209,-8.0209,-8.0209,-8.0209,-8.0209,-8.0209,-8.1283,-8.2106,-8.2571,-8.437,-8.5506,-8.5991,-8.5991,-8.632,-8.6995,-8.6995,-8.6995,-8.6995,-8.6995,-8.6995,-8.6995,-8.6995,-8.6995,-8.6995,-8.6995,-8.6995,-8.6995,-8.6995,-8.6995,-8.6995,-8.6995,-8.6995,-8.6995,-6.6999,-6.6999,-6.6999,-6.6999,-6.6999,-6.6999,-6.6999,-6.6999,-6.6999,-6.6999,-6.7508,-6.7897,-6.7956,-6.9064,-6.9842,-6.9961,-7.056,-7.0889,-7.0889,-7.0889,-7.0889,-7.0889,-7.0889,-7.0889,-7.0889,-7.0889,-7.0889,-7.0889,-7.0889,-7.0889,-7.0889,-7.0889,-7.1698,-7.323,-7.3445,-7.5115,-7.7882,-7.8077,-7.8941,-8.0209,-8.0209,-8.0209,-8.0209,-8.0209,-8.0209,-8.0209,-8.0209,-8.0209,-8.0209,-8.0209,-8.0209,-8.0209,-8.0209,-8.0209,-8.0209,-8.0209,-8.0209,-8.0209,-8.0209,-8.0209,-8.0209,-8.0209,-8.0209,-8.0209,-8.0209,-8.0209,-8.0209,-8.0209,-8.0209,-8.0209,-8.0209,-8.0209,-8.0209,-8.0209,-8.0209,-8.0209,-8.0209,-8.0209,-8.0209,-8.0209,-8.0209,-8.0209,-8.0209,-8.0209,-8.0209,-8.0209,-8.0209,-8.0225,-8.0376,-8.1427,-8.2571,-8.3748,-8.4888,-8.5917,-8.696,-8.6995,-8.6995,-8.6995,-8.6995,-8.6995,-8.6995,-8.6995,-8.6995,-8.6995,-8.6995,-8.6995,-8.6995,-8.6995,-8.6995,-8.6995,-8.6995,-8.6995,-8.6995,-8.6995,-8.6995,-8.6995,-6.6999,-6.6999,-6.6999,-6.6999,-6.6999,-6.6999,-6.6999,-6.6999,-6.6999,-6.6999,-6.7119,-6.7388,-6.7897,-6.8226,-6.8824,-6.9901,-7.056,-7.0889,-7.0889,-7.0889,-7.0889,-7.0889,-7.0889,-7.0889,-7.0889,-7.0889,-7.0889,-7.0889,-7.0889,-7.0889,-7.0889,-7.0889,-7.1698,-7.326,-7.4526,-7.6152,-7.799,-7.9202,-7.9887,-8.0209,-8.0209,-8.0209,-8.0209,-8.0209,-8.0209,-8.0209,-8.0209,-8.0209,-8.0209,-8.0209,-8.0209,-8.0209,-8.0209,-8.0209,-8.0209,-8.0209,-8.0209,-8.0209,-8.0209,-8.0209,-8.0209,-8.0209,-8.0209,-8.0209,-8.0209,-8.0209,-8.0209,-8.0209,-8.0209,-8.0209,-8.0209,-8.0209,-8.0209,-8.0209,-8.0209,-8.0209,-8.0209,-8.0209,-8.0209,-8.0209,-8.0209,-8.0209,-8.0209,-8.0209,-8.0209,-8.0209,-8.0209,-8.0591,-8.1474,-8.2616,-8.3755,-8.4927,-8.6028,-8.6749,-8.7031,-8.6995,-8.6995,-8.6995,-8.6995,-8.6995,-8.6995,-8.6995,-8.6995,-8.6995,-8.6995,-8.6995,-8.6995,-8.6995,-8.6995,-8.6995,-8.6995,-8.6995,-8.6995,-8.6995,-8.6995,-8.6995,-6.6999,-6.6999,-6.6999,-6.6999,-6.6999,-6.6999,-6.6999,-6.6999,-6.6999,-6.6999,-6.6999,-6.7119,-6.7478,-6.7777,-6.8375,-6.9423,-7.0081,-7.047,-7.047,-7.0739,-7.0889,-7.0889,-7.0889,-7.0889,-7.0889,-7.0889,-7.0889,-7.0889,-7.0889,-7.0889,-7.0889,-7.0889,-7.2141,-7.4407,-7.5231,-7.686,-7.9046,-7.9836,-8.0209,-8.0209,-8.0209,-8.0209,-8.0209,-8.0209,-8.0209,-8.0209,-8.0209,-8.0209,-8.0209,-8.0209,-8.0209,-8.0209,-8.0209,-8.0209,-8.0209,-8.0209,-8.0209,-8.0209,-8.0209,-8.0209,-8.0209,-8.0209,-8.0209,-8.0209,-8.0209,-8.0209,-8.0209,-8.0209,-8.0209,-8.0209,-8.0209,-8.0209,-8.0209,-8.0209,-8.0209,-8.0209,-8.0209,-8.0209,-8.0209,-8.0209,-8.0209,-8.0209,-8.0209,-8.0209,-8.0209,-8.0209,-8.0706,-8.1235,-8.1875,-8.35,-8.4693,-8.5278,-8.6428,-8.6995,-8.6995,-8.6995,-8.6995,-8.6995,-8.6995,-8.6995,-8.6995,-8.6995,-8.6995,-8.6995,-8.6995,-8.6995,-8.6995,-8.6995,-8.6995,-8.6995,-8.6995,-8.6995,-8.6995,-8.6995,-8.6775,-8.6371,-6.6999,-6.6999,-6.6999,-6.6999,-6.6999,-6.6999,-6.6999,-6.6999,-6.6999,-6.6999,-6.6999,-6.6999,-6.6999,-6.7567,-6.8196,-6.8764,-6.9423,-6.9812,-6.9812,-7.029,-7.059,-7.059,-7.059,-7.062,-7.0739,-7.0739,-7.0799,-7.0889,-7.0889,-7.1018,-7.1311,-7.1311,-7.2953,-7.5981,-7.5981,-7.7555,-8.0209,-8.0209,-8.0209,-8.0209,-8.0209,-8.0209,-8.0209,-8.0209,-8.0209,-8.0209,-8.0209,-8.0107,-8.0006,-8.0006,-7.9938,-7.9803,-7.9803,-7.9803,-7.9803,-7.9803,-7.9803,-7.9803,-7.9803,-7.9803,-7.9803,-7.9803,-7.9803,-7.9803,-7.9803,-8.0006,-8.0209,-8.0209,-8.0209,-8.0209,-8.0209,-8.0209,-8.0209,-8.0209,-8.0209,-8.0209,-8.0209,-8.0209,-8.0209,-8.0209,-8.0209,-8.0209,-8.0209,-8.0209,-8.0209,-8.0209,-8.1077,-8.177,-8.2198,-8.3964,-8.5201,-8.5582,-8.65,-8.6995,-8.6995,-8.6995,-8.6995,-8.6995,-8.6995,-8.6995,-8.6995,-8.6995,-8.6995,-8.6995,-8.6995,-8.6995,-8.6995,-8.6995,-8.6995,-8.6995,-8.6995,-8.6921,-8.6775,-8.6664,-8.6187,-8.549,-6.6999,-6.6999,-6.6999,-6.6999,-6.6999,-6.6999,-6.6999,-6.6999,-6.6999,-6.6999,-6.6999,-6.6999,-6.6999,-6.7567,-6.8016,-6.8106,-6.8734,-6.9123,-6.9123,-6.9213,-6.9273,-6.9273,-6.9273,-6.9512,-7.0081,-7.0111,-7.038,-7.0889,-7.0889,-7.1601,-7.2984,-7.2984,-7.4617,-7.761,-7.761,-7.8591,-8.0209,-8.0209,-8.0209,-8.0209,-8.0209,-8.0209,-8.0209,-8.0209,-8.0209,-8.0209,-8.0209,-7.9803,-7.9261,-7.9261,-7.8822,-7.828,-7.828,-7.828,-7.828,-7.828,-7.828,-7.828,-7.828,-7.828,-7.828,-7.828,-7.828,-7.828,-7.828,-7.9261,-8.0209,-8.0209,-8.0209,-8.0209,-8.0209,-8.0209,-8.0209,-8.0209,-8.0209,-8.0209,-8.0209,-8.0209,-8.0209,-8.0209,-8.0209,-8.0209,-8.0209,-8.0209,-8.0209,-8.0209,-8.0326,-8.1318,-8.3242,-8.3628,-8.4733,-8.6714,-8.6925,-8.6995,-8.6995,-8.6995,-8.6995,-8.6995,-8.6995,-8.6995,-8.6995,-8.6995,-8.6995,-8.6995,-8.6995,-8.6995,-8.6995,-8.6995,-8.6995,-8.6995,-8.6995,-8.6591,-8.5857,-8.5196,-8.4866,-8.4756,-6.6999,-6.6999,-6.6999,-6.6999,-6.6999,-6.6999,-6.6999,-6.6999,-6.6999,-6.6999,-6.6999,-6.6999,-6.6999,-6.7238,-6.7418,-6.7418,-6.8046,-6.8435,-6.8435,-6.8794,-6.9004,-6.9004,-6.9004,-6.9123,-6.9423,-6.9423,-6.9572,-6.9842,-7.056,-7.1728,-7.3261,-7.2828,-7.431,-7.7289,-7.686,-7.7551,-7.8957,-7.8957,-7.8957,-7.8957,-7.8957,-7.8957,-7.8957,-7.8957,-7.8957,-7.8957,-7.8957,-7.8754,-7.8483,-7.8483,-7.8247,-7.7976,-7.7976,-7.7976,-7.7976,-7.7976,-7.7976,-7.7976,-7.7976,-7.7976,-7.7976,-7.7976,-7.7976,-7.7976,-7.7976,-7.8483,-7.8957,-7.8957,-7.8957,-7.8957,-7.8957,-7.8957,-7.8957,-7.8957,-7.8957,-7.8957,-7.8957,-7.8957,-7.8957,-7.8957,-7.8957,-7.8957,-7.8957,-7.8957,-7.8957,-7.8957,-8.0093,-8.1269,-8.2269,-8.3911,-8.53,-8.63,-8.6775,-8.6995,-8.6995,-8.6995,-8.6995,-8.6995,-8.6995,-8.6995,-8.6995,-8.6995,-8.6995,-8.6995,-8.6995,-8.6995,-8.6995,-8.6995,-8.6738,-8.6334,-8.6334,-8.5857,-8.5013,-8.4242,-8.3948,-8.3875]},{"header":{"parameterUnit":"m.s-1","parameterCategory":1,"la1":30.6,"la2":28.766,"lo1":-90.7593,"lo2":-88.6598,"dy":0.0162,"dx":0.0183,"nx":116,"ny":114,"refTime":"2023-03-21T06:00:00:Z","depth":0,"parameterNumber":3,"parameterNumberName":"V-component_of_WINDS"},"data":[0.0,0.0,0.0,0.0,0.0,0.0,0.0,0.0,0.0,0.0,0.0,0.0,0.0,0.0,0.0,0.0,0.0,0.0,0.0,0.0,0.0,0.0,0.0,0.0,0.0,0.0,0.0,0.0,0.0,0.0,0.0,0.0,0.0,0.0,0.0,0.0,0.0,0.0,0.0,0.0,0.0,0.0,0.0,0.0,0.0,0.0,0.0,0.0,0.0,0.0,0.0,0.0,0.0,0.0,0.0,0.0,0.0,0.0,0.0,0.0,0.0,0.0,0.0,0.0,0.0,0.0,0.0,0.0,0.0,0.0,0.0,0.0,0.0,0.0,0.0,0.0,0.0,0.0,0.0,0.0,0.0,0.0,0.0,0.0,0.0,0.0,0.0,0.0,0.0,0.0,0.0,0.0,0.0,0.0,0.0,0.0,0.0,0.0,0.0,0.0,0.0,0.0,0.0,0.0,0.0,0.0,0.0,0.0,0.0,0.0,0.0,0.0,0.0,0.0,0.0,0.0,0.0,0.0,0.0,0.0,0.0,0.0,0.0,0.0,0.0,0.0,0.0,0.0,0.0,0.0,0.0,0.0,0.0,0.0,0.0,0.0,0.0,0.0,0.0,0.0,0.0,0.0,0.0,0.0,0.0,0.0,0.0,0.0,0.0,0.0,0.0,0.0,0.0,0.0,0.0,0.0,0.0,0.0,0.0,0.0,0.0,0.0,0.0,0.0,0.0,0.0,0.0,0.0,0.0,0.0,0.0,0.0,0.0,0.0,0.0,0.0,0.0,0.0,0.0,0.0,0.0,0.0,0.0,0.0,0.0,0.0,0.0,0.0,0.0,0.0,0.0,0.0,0.0,0.0,0.0,0.0,0.0,0.0,0.0,0.0,0.0,0.0,0.0,0.0,0.0,0.0,0.0,0.0,0.0,0.0,0.0,0.0,0.0,0.0,0.0,0.0,0.0,0.0,0.0,0.0,0.0,0.0,0.0,0.0,0.0,0.0,0.0,0.0,0.0,0.0,0.0,0.0,0.0,0.0,0.0,0.0,0.0,0.0,0.0,0.0,0.0,0.0,0.0,0.0,0.0,0.0,0.0,0.0,0.0,0.0,0.0,0.0,0.0,0.0,0.0,0.0,0.0,0.0,0.0,0.0,0.0,0.0,0.0,0.0,0.0,0.0,0.0,0.0,0.0,0.0,0.0,0.0,0.0,0.0,0.0,0.0,0.0,0.0,0.0,0.0,0.0,0.0,0.0,0.0,0.0,0.0,0.0,0.0,0.0,0.0,0.0,0.0,0.0,0.0,0.0,0.0,0.0,0.0,0.0,0.0,0.0,0.0,0.0,0.0,0.0,0.0,0.0,0.0,0.0,0.0,0.0,0.0,0.0,0.0,0.0,0.0,0.0,0.0,0.0,0.0,0.0,0.0,0.0,0.0,0.0,0.0,0.0,0.0,0.0,0.0,0.0,0.0,0.0,0.0,0.0,0.0,0.0,0.0,0.0,0.0,0.0,0.0,0.0,0.0,0.0,0.0,0.0,0.0,0.0,0.0,0.0,0.0,0.0,0.0,0.0,0.0,0.0,0.0,0.0,0.0,0.0,0.0,0.0,0.0,0.0,0.0,0.0,0.0,0.0,0.0,0.0,0.0,0.0,0.0,0.0,0.0,0.0,0.0,0.0,0.0,0.0,0.0,0.0,0.0,0.0,0.0,0.0,0.0,0.0,0.0,0.0,0.0,0.0,0.0,0.0,0.0,0.0,0.0,0.0,0.0,0.0,0.0,0.0,0.0,0.0,0.0,0.0,0.0,0.0,0.0,0.0,0.0,0.0,0.0,0.0,0.0,0.0,0.0,0.0,0.0,0.0,0.0,0.0,0.0,0.0,0.0,0.0,0.0,0.0,0.0,0.0,0.0,0.0,0.0,0.0,0.0,0.0,0.0,0.0,0.0,0.0,0.0,0.0,0.0,0.0,0.0,0.0,0.0,0.0,0.0,0.0,0.0,0.0,0.0,0.0,0.0,0.0,0.0,0.0,0.0,0.0,0.0,0.0,0.0,0.0,0.0,0.0,0.0,0.0,0.0,0.0,0.0,0.0,0.0,0.0,0.0,0.0,0.0,0.0,0.0,0.0,0.0,0.0,0.0,0.0,0.0,0.0,0.0,0.0,0.0,0.0,0.0,0.0,0.0,0.0,0.0,0.0,0.0,0.0,0.0,0.0,0.0,0.0,0.0,0.0,0.0,0.0,0.0,0.0,0.0,0.0,0.0,0.0,0.0,0.0,0.0,0.0,0.0,0.0,0.0,0.0,0.0,0.0,0.0,0.0,0.0,0.0,0.0,0.0,0.0,0.0,0.0,0.0,0.0,0.0,0.0,0.0,0.0,0.0,0.0,0.0,0.0,0.0,0.0,0.0,0.0,0.0,0.0,0.0,0.0,0.0,0.0,0.0,0.0,0.0,0.0,0.0,0.0,0.0,0.0,0.0,0.0,0.0,0.0,0.0,0.0,0.0,0.0,0.0,0.0,0.0,0.0,0.0,0.0,0.0,0.0,0.0,0.0,0.0,0.0,0.0,0.0,0.0,0.0,0.0,0.0,0.0,0.0,0.0,0.0,0.0,0.0,0.0,0.0,0.0,0.0,0.0,0.0,0.0,0.0,0.0,0.0,0.0,0.0,0.0,0.0,0.0,0.0,0.0,0.0,0.0,0.0,0.0,0.0,0.0,0.0,0.0,0.0,0.0,0.0,0.0,0.0,0.0,0.0,0.0,0.0,0.0,0.0,0.0,0.0,0.0,0.0,0.0,0.0,0.0,0.0,0.0,0.0,0.0,0.0,0.0,0.0,0.0,0.0,0.0,0.0,0.0,0.0,0.0,0.0,0.0,0.0,0.0,0.0,0.0,0.0,0.0,0.0,0.0,0.0,0.0,0.0,0.0,0.0,0.0,0.0,0.0,0.0,0.0,0.0,0.0,0.0,0.0,0.0,0.0,0.0,0.0,0.0,0.0,0.0,0.0,0.0,0.0,0.0,0.0,0.0,0.0,0.0,0.0,0.0,0.0,0.0,0.0,0.0,0.0,0.0,0.0,0.0,0.0,0.0,0.0,0.0,0.0,0.0,0.0,0.0,0.0,0.0,0.0,0.0,0.0,0.0,0.0,0.0,0.0,0.0,0.0,0.0,0.0,0.0,0.0,0.0,0.0,0.0,0.0,0.0,0.0,0.0,0.0,0.0,0.0,0.0,0.0,0.0,0.0,0.0,0.0,0.0,0.0,0.0,0.0,0.0,0.0,0.0,0.0,0.0,0.0,0.0,0.0,0.0,0.0,0.0,0.0,0.0,0.0,0.0,0.0,0.0,0.0,0.0,0.0,0.0,0.0,0.0,0.0,0.0,0.0,0.0,0.0,0.0,0.0,0.0,0.0,0.0,0.0,0.0,0.0,0.0,0.0,0.0,0.0,0.0,0.0,0.0,0.0,0.0,0.0,0.0,0.0,0.0,0.0,0.0,0.0,0.0,0.0,0.0,0.0,0.0,0.0,0.0,0.0,0.0,0.0,0.0,0.0,0.0,0.0,0.0,0.0,0.0,0.0,0.0,0.0,0.0,0.0,0.0,0.0,0.0,0.0,0.0,0.0,0.0,0.0,0.0,0.0,0.0,0.0,0.0,0.0,0.0,0.0,0.0,0.0,0.0,0.0,0.0,0.0,0.0,0.0,0.0,0.0,0.0,0.0,0.0,0.0,0.0,0.0,0.0,0.0,0.0,0.0,0.0,0.0,0.0,0.0,0.0,0.0,0.0,0.0,0.0,0.0,0.0,0.0,0.0,0.0,0.0,0.0,0.0,0.0,0.0,0.0,0.0,0.0,0.0,0.0,0.0,0.0,0.0,0.0,0.0,0.0,0.0,0.0,0.0,0.0,0.0,0.0,0.0,0.0,0.0,0.0,0.0,0.0,0.0,0.0,0.0,0.0,0.0,0.0,0.0,0.0,0.0,0.0,0.0,0.0,0.0,0.0,0.0,0.0,0.0,0.0,0.0,0.0,0.0,0.0,0.0,0.0,0.0,0.0,0.0,0.0,0.0,0.0,0.0,0.0,0.0,0.0,0.0,0.0,0.0,0.0,0.0,0.0,0.0,0.0,0.0,0.0,0.0,0.0,0.0,0.0,0.0,0.0,0.0,0.0,0.0,0.0,0.0,0.0,0.0,0.0,0.0,0.0,0.0,0.0,0.0,0.0,0.0,0.0,0.0,0.0,0.0,0.0,0.0,0.0,0.0,0.0,0.0,0.0,0.0,0.0,0.0,0.0,0.0,0.0,0.0,0.0,0.0,0.0,0.0,0.0,0.0,0.0,0.0,0.0,0.0,0.0,0.0,0.0,0.0,0.0,0.0,0.0,0.0,0.0,0.0,0.0,0.0,0.0,0.0,0.0,0.0,0.0,0.0,0.0,0.0,0.0,0.0,0.0,0.0,0.0,0.0,0.0,0.0,0.0,0.0,0.0,0.0,0.0,0.0,0.0,0.0,0.0,0.0,0.0,0.0,0.0,0.0,0.0,0.0,0.0,0.0,0.0,0.0,0.0,0.0,0.0,0.0,0.0,0.0,0.0,0.0,0.0,0.0,0.0,0.0,0.0,0.0,0.0,0.0,0.0,0.0,0.0,0.0,0.0,0.0,0.0,0.0,0.0,0.0,0.0,0.0,0.0,0.0,0.0,0.0,0.0,0.0,0.0,0.0,0.0,0.0,0.0,0.0,0.0,0.0,0.0,0.0,0.0,0.0,0.0,0.0,0.0,0.0,0.0,0.0,0.0,0.0,0.0,0.0,0.0,0.0,0.0,0.0,0.0,0.0,0.0,0.0,0.0,0.0,0.0,0.0,0.0,0.0,0.0,0.0,0.0,0.0,0.0,0.0,0.0,0.0,0.0,0.0,0.0,0.0,0.0,0.0,0.0,0.0,0.0,0.0,0.0,0.0,0.0,0.0,0.0,0.0,0.0,0.0,0.0,0.0,0.0,0.0,0.0,0.0,0.0,0.0,0.0,0.0,0.0,0.0,0.0,0.0,0.0,0.0,0.0,0.0,0.0,0.0,0.0,0.0,0.0,0.0,0.0,0.0,0.0,0.0,0.0,0.0,0.0,0.0,0.0,0.0,0.0,0.0,0.0,0.0,0.0,0.0,0.0,0.0,0.0,0.0,0.0,0.0,0.0,0.0,0.0,0.0,0.0,0.0,0.0,0.0,0.0,0.0,0.0,0.0,0.0,0.0,0.0,0.0,0.0,0.0,0.0,0.0,0.0,0.0,0.0,0.0,0.0,0.0,0.0,0.0,0.0,0.0,0.0,0.0,0.0,0.0,0.0,0.0,0.0,0.0,0.0,0.0,0.0,0.0,0.0,0.0,0.0,0.0,0.0,0.0,0.0,0.0,0.0,0.0,0.0,0.0,0.0,0.0,0.0,0.0,0.0,0.0,0.0,0.0,0.0,0.0,0.0,0.0,0.0,0.0,0.0,0.0,0.0,0.0,0.0,0.0,0.0,0.0,0.0,0.0,0.0,0.0,0.0,0.0,0.0,0.0,0.0,0.0,0.0,0.0,0.0,0.0,0.0,0.0,0.0,0.0,0.0,0.0,0.0,0.0,0.0,0.0,0.0,0.0,0.0,0.0,0.0,0.0,0.0,0.0,0.0,0.0,0.0,0.0,0.0,0.0,0.0,0.0,0.0,0.0,0.0,0.0,0.0,0.0,0.0,0.0,0.0,0.0,0.0,0.0,0.0,0.0,0.0,0.0,0.0,0.0,0.0,0.0,0.0,0.0,0.0,0.0,0.0,0.0,0.0,0.0,0.0,0.0,0.0,0.0,0.0,0.0,0.0,0.0,0.0,0.0,0.0,0.0,0.0,0.0,0.0,0.0,0.0,0.0,0.0,0.0,0.0,0.0,0.0,0.0,0.0,0.0,0.0,0.0,0.0,0.0,0.0,0.0,0.0,0.0,0.0,0.0,0.0,0.0,0.0,0.0,0.0,0.0,0.0,0.0,0.0,0.0,0.0,0.0,0.0,0.0,0.0,0.0,0.0,0.0,0.0,0.0,0.0,0.0,0.0,0.0,-4.8594,-4.8594,0.0,0.0,0.0,0.0,0.0,0.0,0.0,0.0,0.0,0.0,0.0,0.0,0.0,0.0,0.0,0.0,0.0,0.0,0.0,0.0,0.0,0.0,0.0,0.0,0.0,0.0,0.0,0.0,0.0,0.0,0.0,0.0,0.0,0.0,0.0,0.0,0.0,0.0,-5.7573,-5.7932,-5.859,-5.8231,-5.8261,-5.862,0.0,0.0,0.0,0.0,0.0,0.0,0.0,0.0,0.0,0.0,0.0,0.0,0.0,0.0,0.0,0.0,0.0,0.0,0.0,0.0,0.0,0.0,0.0,0.0,0.0,0.0,0.0,0.0,0.0,0.0,0.0,0.0,0.0,0.0,0.0,0.0,0.0,0.0,0.0,0.0,0.0,0.0,0.0,0.0,0.0,0.0,0.0,0.0,0.0,0.0,0.0,0.0,0.0,0.0,0.0,0.0,0.0,0.0,0.0,0.0,0.0,0.0,0.0,0.0,0.0,0.0,0.0,0.0,0.0,0.0,-4.8867,-4.8867,0.0,0.0,0.0,0.0,0.0,0.0,0.0,0.0,0.0,0.0,0.0,0.0,0.0,0.0,0.0,0.0,0.0,0.0,0.0,0.0,0.0,0.0,0.0,0.0,-5.528,-5.5501,-5.533,-5.5179,0.0,0.0,0.0,0.0,0.0,0.0,0.0,-5.7004,-5.7603,-5.8291,-5.8291,-5.859,-5.9099,-5.9099,-5.9099,-5.9099,-5.9099,0.0,0.0,0.0,0.0,0.0,0.0,0.0,0.0,0.0,0.0,0.0,0.0,0.0,0.0,0.0,0.0,0.0,0.0,0.0,0.0,0.0,0.0,0.0,0.0,0.0,0.0,0.0,0.0,0.0,0.0,0.0,0.0,0.0,0.0,0.0,0.0,0.0,0.0,0.0,0.0,0.0,0.0,0.0,0.0,0.0,0.0,0.0,0.0,0.0,0.0,0.0,0.0,0.0,0.0,0.0,0.0,0.0,0.0,0.0,0.0,0.0,0.0,0.0,-4.8867,-4.8867,-4.8867,-4.8867,-4.8867,-4.8867,-4.8867,-4.8867,-4.8867,-4.8867,0.0,0.0,0.0,0.0,0.0,0.0,0.0,0.0,0.0,0.0,0.0,0.0,0.0,0.0,0.0,0.0,0.0,0.0,0.0,0.0,0.0,-5.5918,-5.5651,-5.6656,-5.5819,-5.5179,0.0,0.0,0.0,0.0,0.0,0.0,-5.7842,-5.7962,-5.8321,-5.8979,-5.8979,-5.9009,-5.9099,-5.9099,-5.9099,-5.9099,-5.9099,-5.9099,-5.9099,0.0,0.0,0.0,0.0,0.0,0.0,0.0,0.0,0.0,0.0,0.0,0.0,0.0,0.0,0.0,0.0,0.0,0.0,0.0,0.0,0.0,0.0,0.0,0.0,0.0,0.0,0.0,0.0,0.0,0.0,0.0,0.0,0.0,0.0,0.0,0.0,0.0,0.0,0.0,0.0,0.0,-5.7072,-5.77,0.0,0.0,0.0,0.0,0.0,0.0,0.0,0.0,0.0,0.0,0.0,0.0,0.0,-6.0014,-5.5354,-5.542,-5.3259,-4.8867,-4.8867,-4.8867,-4.8867,-4.8867,-4.8867,-4.8867,-4.8867,0.0,-4.8867,-4.8867,0.0,0.0,0.0,0.0,0.0,0.0,0.0,0.0,0.0,0.0,0.0,0.0,0.0,0.0,0.0,0.0,0.0,0.0,0.0,0.0,0.0,-5.5918,-5.5401,-5.5967,-5.5501,-5.5179,-5.5179,-5.5538,0.0,0.0,0.0,-5.7543,-5.8112,-5.8501,-5.883,-5.9099,-5.9099,-5.9099,-5.9099,-5.9099,-5.9099,-5.9099,-5.9099,-5.9099,-5.9099,-5.9099,0.0,0.0,0.0,0.0,0.0,0.0,0.0,0.0,0.0,0.0,0.0,0.0,0.0,0.0,0.0,0.0,0.0,0.0,0.0,0.0,0.0,0.0,0.0,0.0,0.0,0.0,0.0,0.0,0.0,0.0,0.0,0.0,0.0,0.0,0.0,0.0,0.0,0.0,0.0,-5.7022,-5.7725,-5.8303,-5.883,-5.9282,0.0,0.0,0.0,0.0,0.0,0.0,0.0,0.0,0.0,-6.2822,-6.2822,-6.1159,-5.7863,-5.6573,-5.4213,-5.0894,-4.9564,-4.8867,-4.8867,-4.8867,-4.8867,-4.8867,-4.8867,-4.8867,-4.8867,-4.8867,-4.8867,-4.8867,0.0,0.0,0.0,0.0,-4.8867,-4.8867,0.0,0.0,0.0,0.0,0.0,0.0,0.0,0.0,0.0,0.0,0.0,0.0,-5.6848,-5.5918,-5.5179,-5.5179,-5.5179,-5.5269,-5.5418,-5.5897,0.0,0.0,0.0,-5.8201,-5.8381,-5.886,-5.9099,-5.9099,-5.9099,-5.9099,-5.9099,-5.9099,-5.9099,-5.9099,-5.9099,-5.9099,-5.9099,-5.9099,-5.9099,-5.9099,0.0,0.0,0.0,0.0,0.0,0.0,0.0,0.0,0.0,0.0,0.0,0.0,0.0,0.0,0.0,0.0,0.0,0.0,0.0,0.0,0.0,0.0,0.0,0.0,0.0,0.0,0.0,0.0,0.0,0.0,0.0,0.0,0.0,0.0,0.0,0.0,0.0,-5.7826,-5.8353,-5.9056,-5.9458,-5.9935,0.0,0.0,0.0,0.0,0.0,0.0,-6.2797,-6.2822,-6.2822,-6.2822,-6.2822,-6.168,-5.9307,-5.7091,-5.4742,-5.2387,-5.0002,-4.8867,-4.8867,-4.8867,-4.8867,-4.8867,-4.8867,-4.8867,-4.8867,-4.8867,-4.8867,-4.8867,-4.8867,-4.8867,-4.8867,-4.8867,-4.8867,-4.8867,0.0,0.0,0.0,0.0,0.0,0.0,0.0,0.0,0.0,0.0,0.0,-5.5651,-5.6848,-5.5918,-5.5179,-5.5179,-5.5179,-5.5448,-5.6077,-5.6166,-5.6735,-5.7962,-5.8082,-5.8411,-5.9039,-5.9099,-5.9099,-5.9099,-5.9099,-5.9099,-5.9099,-5.9099,-5.9099,-5.9099,-5.9099,-5.9099,-5.9099,-5.9099,-5.9099,-5.9099,-5.9099,0.0,0.0,0.0,0.0,0.0,0.0,0.0,0.0,0.0,0.0,0.0,0.0,0.0,0.0,0.0,0.0,0.0,0.0,0.0,0.0,0.0,0.0,0.0,0.0,0.0,0.0,0.0,0.0,0.0,0.0,0.0,0.0,0.0,0.0,0.0,0.0,0.0,0.0,-6.0111,-6.0261,0.0,0.0,0.0,0.0,-6.1994,-6.2496,-6.2797,-6.2822,-6.2822,-6.2822,-6.2822,-6.2822,-6.168,-5.9307,-5.7091,-5.4742,-5.2387,-5.0002,-4.8867,-4.8867,-4.8867,-4.8867,-4.8867,-4.8867,-4.8867,-4.8867,-4.8867,-4.8867,-4.8867,-4.8867,-4.8867,-4.8867,-4.8867,-4.8867,-4.8867,0.0,0.0,0.0,0.0,0.0,0.0,0.0,0.0,0.0,-5.6638,-5.6396,-5.6232,-5.5869,-5.5451,-5.5359,-5.5777,-5.5807,-5.6077,-5.6735,-5.7184,-5.7633,-5.8112,-5.853,-5.886,-5.9099,-5.9099,-5.9099,-5.9099,-5.9099,-5.9099,-5.9099,-5.9099,-5.9099,-5.9099,-5.9099,-5.9099,-5.9099,-5.9099,-5.9099,-5.9099,-5.9099,-5.9099,0.0,0.0,0.0,0.0,0.0,0.0,0.0,0.0,0.0,0.0,0.0,0.0,0.0,0.0,0.0,0.0,0.0,0.0,0.0,0.0,0.0,0.0,0.0,0.0,0.0,0.0,0.0,0.0,0.0,0.0,0.0,0.0,0.0,0.0,0.0,0.0,0.0,-6.0236,-6.0638,0.0,-6.1667,-6.222,-6.2521,-6.2521,-6.2722,-6.2822,-6.2822,-6.2822,-6.2822,-6.2822,-6.2822,-6.168,-5.9307,-5.7091,-5.4742,-5.2387,-5.0002,-4.8867,-4.8867,-4.8867,-4.8867,-4.8867,-4.8867,-4.8867,-4.8867,-4.8867,-4.8867,-4.8867,-4.8867,-4.8867,-4.8867,-4.8867,-4.8867,-4.8867,0.0,0.0,0.0,0.0,0.0,0.0,0.0,0.0,-5.7323,-5.6493,-5.6396,-5.6232,-5.5869,-5.5661,-5.5688,-5.6188,-5.6376,-5.6765,-5.7393,-5.7872,-5.8231,-5.8441,-5.886,-5.9099,-5.9099,-5.9099,-5.9099,-5.9099,-5.9099,-5.9099,-5.9099,-5.9099,-5.9099,-5.9099,-5.9099,-5.9099,-5.9099,-5.9099,-5.9099,-5.9099,-5.9099,-5.9099,-5.9189,0.0,0.0,0.0,0.0,0.0,0.0,0.0,0.0,0.0,0.0,0.0,0.0,0.0,0.0,0.0,0.0,0.0,0.0,0.0,0.0,0.0,0.0,0.0,0.0,0.0,0.0,0.0,0.0,0.0,0.0,0.0,0.0,0.0,0.0,0.0,-5.9985,-6.0537,-6.1115,-6.1667,-6.222,-6.2621,-6.2822,-6.2822,-6.2822,-6.2822,-6.2822,-6.2822,-6.2822,-6.2822,-6.2822,-6.168,-5.9307,-5.6982,-5.4742,-5.2387,-5.0002,-4.8867,-4.8867,-4.8867,-4.8867,-4.8867,-4.8867,-4.8867,-4.8867,-4.8867,-4.8867,-4.8867,-4.8867,-4.8867,-4.8867,-4.8867,-4.8867,-4.8867,0.0,0.0,0.0,0.0,0.0,0.0,0.0,-5.5986,-5.6115,-5.8405,-5.6717,-5.5731,-5.6831,-5.6525,-5.6248,-5.6278,-5.6765,-5.7423,-5.8112,-5.8141,-5.8441,-5.9069,-5.9099,-5.9099,-5.9099,-5.9099,-5.9099,-5.9099,-5.9099,-5.9099,-5.9099,-5.9099,-5.9099,-5.9099,-5.9099,-5.9099,-5.9099,-5.9099,-5.9099,-5.9099,-5.9099,-5.9129,-5.9189,0.0,0.0,0.0,0.0,0.0,0.0,0.0,0.0,0.0,0.0,0.0,0.0,0.0,0.0,0.0,0.0,0.0,0.0,0.0,0.0,0.0,0.0,0.0,0.0,0.0,0.0,0.0,0.0,0.0,0.0,0.0,0.0,0.0,-5.9508,-5.9985,-6.0537,-6.114,-6.1667,-6.222,-6.2772,-6.2822,-6.2822,-6.2822,-6.2822,-6.2822,-6.2822,-6.2822,-6.2822,-6.2822,-6.2822,-6.1598,-5.9222,-5.6982,-5.4632,-5.2297,-5.0002,-4.8867,-4.8867,-4.8867,-4.8867,-4.8867,-4.8867,-4.8867,-4.8867,-4.8867,-4.8867,-4.8867,-4.8867,-4.8867,-4.8867,-4.8867,-4.8867,-4.8867,0.0,0.0,0.0,0.0,0.0,0.0,0.0,-5.6183,-5.6445,-5.6232,-5.6807,-5.7014,-5.6496,-5.6693,-5.7034,-5.7543,-5.7752,-5.8112,-5.88,-5.883,-5.8919,-5.9099,-5.9099,-5.9099,-5.9099,-5.9099,-5.9099,-5.9099,-5.9099,-5.9099,-5.9099,-5.9099,-5.9099,-5.9099,-5.9099,-5.9099,-5.9099,-5.9099,-5.9099,-5.9099,-5.9099,-5.9398,-5.9877,0.0,0.0,0.0,0.0,0.0,0.0,0.0,0.0,0.0,0.0,0.0,0.0,0.0,0.0,0.0,0.0,0.0,0.0,0.0,0.0,0.0,0.0,0.0,0.0,0.0,0.0,0.0,0.0,0.0,0.0,0.0,0.0,-6.0085,-6.0085,-6.0211,-6.0688,-6.1667,-6.1918,-6.222,-6.2772,-6.2822,-6.2822,-6.2822,-6.2822,-6.2822,-6.2822,-6.2822,-6.2822,-6.2822,-6.2822,-6.091,-5.6832,-5.6226,-5.3859,-4.9819,-4.9216,-4.8867,-4.8867,-4.8867,-4.8867,-4.8867,-4.8867,-4.8867,-4.8867,-4.8867,-4.8867,-4.8867,-4.8867,-4.8867,-4.8867,-4.8867,-4.8867,-4.8867,0.0,0.0,0.0,0.0,0.0,0.0,0.0,-5.6378,-5.661,-5.6393,-5.709,-5.7365,-5.6659,-5.7124,-5.7693,-5.8082,-5.8381,-5.871,-5.9069,-5.9099,-5.9099,-5.9099,-5.9099,-5.9099,-5.9099,-5.9099,-5.9099,-5.9099,-5.9099,-5.9099,-5.9099,-5.9099,-5.9099,-5.9099,-5.9099,-5.9099,-5.9099,-5.9099,-5.9249,-5.9518,-5.9518,-5.9727,-6.0176,-6.1164,-6.1762,-6.2181,-6.2839,-6.3079,-6.3079,-6.3079,0.0,0.0,0.0,0.0,0.0,0.0,0.0,0.0,0.0,0.0,0.0,0.0,0.0,0.0,0.0,0.0,0.0,0.0,0.0,0.0,0.0,0.0,0.0,0.0,-6.0111,-6.0487,-6.0964,-6.1014,-6.1266,-6.1918,-6.222,-6.2471,-6.2797,-6.2822,-6.2822,-6.2822,-6.2822,-6.2822,-6.2822,-6.2822,-6.2822,-6.2822,-6.187,-5.9607,-5.5966,-5.4917,-5.2545,-4.8867,-4.8867,-4.8867,-4.8867,-4.8867,-4.8965,-4.9141,-4.9141,-4.9238,-4.9414,-4.9414,-4.9297,0.0,0.0,0.0,0.0,0.0,-4.8867,-4.8867,0.0,0.0,0.0,0.0,0.0,0.0,0.0,-5.6647,-5.6717,-5.7777,-5.7486,-5.7214,-5.7214,-5.7812,-5.8231,-5.8231,-5.877,-5.9099,-5.9099,-5.9099,-5.9099,-5.9099,-5.9099,-5.9099,-5.9099,-5.9099,-5.9099,-5.9099,-5.9099,-5.9099,-5.9099,-5.9099,-5.9099,-5.9099,-5.9099,-5.9099,-5.9099,-5.9189,-5.9548,-6.0086,-6.0236,-6.0326,-6.0446,-6.1642,-6.2151,-6.2271,-6.2869,-6.3079,-6.3079,-6.3079,0.0,0.0,0.0,0.0,0.0,0.0,0.0,0.0,0.0,0.0,0.0,0.0,0.0,0.0,0.0,0.0,0.0,0.0,0.0,0.0,0.0,0.0,0.0,0.0,-6.0437,-6.0864,-6.1868,-6.2069,-6.2094,-6.2094,-6.2521,-6.2822,-6.2822,-6.2822,-6.2822,-6.2822,-6.2822,-6.2822,-6.2822,0.0,0.0,0.0,0.0,-5.8205,-5.5879,-5.3615,-5.1236,-4.8867,-4.8867,-4.8887,-4.8945,-4.8945,-4.918,-4.959,-4.959,-4.9824,-5.0176,-5.0176,-4.9941,-4.9551,-4.9062,-4.8867,-4.8867,-4.8867,-4.8867,-4.8867,0.0,0.0,0.0,0.0,0.0,0.0,0.0,-5.6981,-5.7019,-5.7247,-5.7641,-5.7932,-5.7932,-5.853,-5.8919,-5.8919,-5.9039,-5.9099,-5.9099,-5.9099,-5.9099,-5.9099,-5.9099,-5.9099,-5.9099,-5.9099,-5.9099,-5.9099,-5.9099,-5.9099,-5.9099,-5.9099,-5.9099,-5.9099,-5.9099,-5.9099,-5.9129,-5.9668,-5.9967,-6.0176,-6.1283,-6.1702,-6.1732,-6.2002,-6.2421,-6.2899,-6.3019,-6.3079,-6.3079,-6.3079,-6.3079,-6.3079,-6.3079,-6.3408,0.0,0.0,0.0,0.0,0.0,0.0,0.0,0.0,0.0,0.0,0.0,0.0,0.0,0.0,0.0,0.0,0.0,0.0,0.0,-6.0311,-6.109,-6.1743,-6.1969,-6.2395,-6.2672,-6.2672,-6.2772,-6.2822,-6.2822,-6.2822,-6.2822,-6.2822,-6.2822,-6.2822,-6.2822,-6.2822,-6.2822,-6.2822,-6.0528,-5.8205,-5.5879,-5.3615,-5.1236,-4.8867,0.0,0.0,-4.9394,-4.9394,-4.9629,-5.0058,-5.0058,-5.0098,-5.0176,-5.0176,-5.0137,-4.998,-4.918,-4.8867,-4.8867,-4.8867,-4.8867,-4.8867,0.0,0.0,0.0,0.0,0.0,0.0,0.0,-5.7393,-5.7603,-5.7603,-5.8201,-5.862,-5.862,-5.8919,-5.9099,-5.9099,-5.9099,-5.9099,0.0,-5.9099,-5.9099,-5.9099,-5.9099,-5.9099,-5.9099,-5.9099,-5.9099,-5.9099,-5.9099,-5.9099,-5.9099,-5.9099,-5.9099,-5.9099,-5.9099,-5.9099,-5.9159,-5.9817,-6.0266,-6.0685,-6.1702,-6.2301,-6.26,-6.26,-6.278,-6.3079,-6.3079,-6.3079,-6.3079,-6.3079,-6.3079,-6.3139,-6.3438,-6.3737,-6.3624,0.0,0.0,0.0,0.0,0.0,0.0,0.0,0.0,0.0,0.0,0.0,0.0,0.0,0.0,-5.9583,0.0,0.0,-6.0512,-6.1065,-6.1642,-6.2094,-6.237,-6.2647,-6.2822,-6.2822,-6.2822,-6.2822,-6.2822,-6.2822,-6.2822,-6.2822,-6.2822,-6.2822,-6.2822,-6.2822,-6.2822,-6.2822,-5.9415,-5.6982,-5.5879,-5.2366,-5.0094,-4.8867,-4.9082,-4.9316,-4.9531,-4.9746,-5.0078,-5.0488,-5.0488,-5.0605,-5.0781,-5.0586,-5.0488,-5.043,-4.9785,-4.9394,-4.9199,-4.9199,-4.9043,-4.8867,0.0,0.0,0.0,0.0,0.0,0.0,0.0,0.0,-5.8321,-5.8321,-5.877,-5.9099,-5.9099,-5.9099,-5.9099,-5.9099,-5.9099,-5.9099,0.0,-5.9099,-5.9099,-5.9099,-5.9099,-5.9099,-5.9099,-5.9099,-5.9099,-5.9099,-5.9099,-5.9099,-5.9099,-5.9099,-5.9099,-5.9099,-5.9099,-5.9189,-5.9338,-5.9997,-6.0685,-6.1373,-6.2032,-6.26,-6.3079,-6.3079,-6.3079,-6.3079,-6.3079,-6.3079,-6.3079,-6.3079,-6.3169,-6.3348,-6.3827,-6.4186,-6.395,-6.1804,-6.0993,0.0,0.0,0.0,0.0,0.0,0.0,0.0,0.0,0.0,-5.8981,-5.9408,-5.9583,-5.9784,-6.0236,-6.0487,-6.0939,-6.1843,-6.2094,-6.232,-6.2772,-6.2822,-6.2822,-6.2822,-6.2822,-6.2822,-6.2822,-6.2822,-6.2822,-6.2822,-6.2822,-6.2822,-6.2822,-6.2822,-6.2577,-6.2117,-5.8034,-5.5595,-5.518,-5.1055,-4.8906,-4.8984,-4.9355,-4.9609,-4.9785,-5.0137,-5.0527,-5.0918,-5.0918,-5.1113,-5.1406,-5.1074,-5.0918,-5.0898,-5.0547,-5.0156,-4.9746,-4.959,-4.9297,-4.8984,0.0,0.0,0.0,0.0,0.0,0.0,0.0,0.0,0.0,-5.9009,-5.9069,-5.9099,-5.9099,-5.9099,-5.9099,-5.9099,-5.9099,0.0,-5.9099,-5.9099,-5.9099,-5.9099,-5.9099,-5.9099,-5.9099,-5.9099,-5.9099,-5.9099,-5.9099,-5.9099,-5.9099,-5.9099,-5.9099,-5.9099,-5.9099,-5.9428,-6.0027,-6.0715,-6.1373,-6.2061,-6.269,-6.3019,-6.3079,-6.3079,-6.3079,-6.3079,-6.3079,-6.3079,-6.3079,-6.3079,-6.3438,-6.3917,-6.3977,-6.4814,-6.5409,-6.3555,-6.2286,-6.1041,-5.9086,-5.778,-5.6873,-5.7022,-5.7801,-5.8579,0.0,0.0,-5.9433,-5.9483,-5.9885,-6.0236,-6.0311,-6.114,-6.1868,-6.1994,-6.2421,-6.2747,-6.2822,-6.2822,-6.2822,-6.2822,-6.2822,-6.2822,-6.2822,-6.2822,-6.2822,-6.2822,-6.2822,-6.2822,-6.2822,-6.2822,-6.1845,-5.9751,-5.7263,-5.4917,-5.2813,-5.0185,-4.9062,-4.9453,-4.9512,-4.9922,-5.0664,-5.0723,-5.0957,-5.1367,-5.1367,-5.1387,-5.1426,-5.1387,-5.1367,-5.1367,-5.1308,-5.1035,-5.0566,-4.9805,-4.9492,-4.9394,0.0,0.0,0.0,0.0,0.0,0.0,0.0,0.0,0.0,0.0,-5.9099,-5.9099,-5.9099,-5.9099,-5.9099,-5.9099,0.0,0.0,-5.9099,-5.9099,-5.9099,-5.9099,-5.9099,-5.9099,-5.9099,-5.9099,-5.9099,-5.9099,-5.9099,-5.9099,-5.9099,-5.9099,-5.9099,-5.9099,-5.9099,-5.9458,-6.0116,-6.0835,-6.1493,-6.2151,-6.281,-6.3079,-6.3079,-6.3079,-6.3079,-6.3079,-6.3079,-6.3079,0.0,-6.3498,-6.3767,-6.4126,-6.4934,-6.5562,-6.5494,-6.3057,-6.2002,-6.0988,-5.8108,-5.7156,0.0,0.0,-5.8127,-5.8805,-5.9106,-5.9332,-5.9583,-5.991,-6.0161,-6.0512,-6.119,-6.1692,-6.2119,0.0,-6.2672,-6.2822,-6.2822,-6.2822,-6.2822,-6.2822,-6.2822,-6.2822,-6.2822,-6.2822,-6.2822,-6.2822,-6.2822,-6.2822,-6.2822,-6.1515,-6.0278,-5.9307,-5.5769,-5.3437,-5.2366,-5.0262,-4.9336,-4.9531,-5.0039,-5.0449,-5.082,-5.1055,-5.1269,-5.1426,-5.1426,-5.1426,-5.1426,-5.1426,-5.1426,-5.1426,-5.1426,-5.1328,-5.1094,-5.0488,-5.0117,-4.9844,0.0,0.0,0.0,0.0,0.0,0.0,0.0,0.0,0.0,0.0,0.0,-5.9099,-5.9099,-5.9099,-5.9099,-5.9099,0.0,0.0,0.0,-5.9099,-5.9099,-5.9099,-5.9099,-5.9099,-5.9099,-5.9099,-5.9099,-5.9099,-5.9099,-5.9099,-5.9099,-5.9099,-5.9099,-5.9129,-5.9279,-5.9757,-6.0416,-6.1104,-6.1762,-6.2421,-6.2869,-6.3079,-6.3079,-6.3079,-6.3079,-6.3079,-6.3079,-6.3079,-6.3169,-6.3797,-6.4126,-6.4485,-6.5652,-6.5798,-6.5022,-6.2351,-6.0852,-5.9558,-5.7073,0.0,0.0,-5.7976,-5.8529,-5.9031,-5.9408,-5.9483,-5.9659,-6.0211,-6.0437,-6.0864,-6.1818,-6.2119,-6.237,-6.2772,-6.2822,-6.2822,-6.2822,-6.2822,-6.2822,-6.2822,-6.2822,-6.2822,-6.2822,-6.2822,-6.2822,-6.2822,-6.2822,-6.2822,-6.2822,-6.0553,-5.9053,-5.8375,-5.4456,-5.2117,-5.1417,-5.0205,-4.959,-4.9707,-5.0449,-5.0859,-5.0996,-5.1289,-5.1426,-5.1426,-5.1426,-5.1426,-5.1426,-5.1426,-5.1426,-5.1426,-5.1426,-5.1426,-5.1387,-5.1094,-5.0723,-5.0293,0.0,0.0,0.0,0.0,0.0,0.0,0.0,0.0,0.0,0.0,0.0,0.0,0.0,0.0,-5.9099,0.0,0.0,0.0,0.0,-5.9099,-5.9099,-5.9099,-5.9099,-5.9099,-5.9099,-5.9099,-5.9099,-5.9099,-5.9099,-5.9099,-5.9099,-5.9099,-5.9099,-5.9129,-5.9757,-6.0446,-6.1134,-6.1792,-6.245,-6.3049,-6.3079,-6.3079,-6.3079,-6.3079,-6.3079,-6.3079,-6.3079,-6.3079,-6.3169,-6.3797,-6.4455,-6.5114,-6.5802,-6.5235,-6.3995,-6.2131,-5.9113,-5.6465,0.0,0.0,-5.8001,-5.8554,-5.9081,-5.9483,-5.9483,-5.9483,-5.9659,-6.0211,-6.0763,-6.1341,-6.1893,-6.2446,-6.2822,-6.2822,-6.2822,-6.2822,-6.2822,-6.2822,-6.2822,-6.2822,-6.2822,-6.2822,0.0,-6.2822,-6.2822,-6.2822,-6.2822,-6.2822,-6.2822,-6.0553,-5.829,-5.6053,-5.3682,-5.1326,-4.9032,-4.9297,-4.9746,-5.0156,-5.0605,-5.1016,-5.1406,-5.1426,-5.1426,-5.1426,-5.1426,-5.1426,-5.1426,-5.1426,-5.1426,-5.1426,-5.1426,-5.1426,-5.1426,-5.1406,-5.1152,-5.0723,0.0,0.0,0.0,0.0,0.0,0.0,0.0,0.0,0.0,0.0,0.0,0.0,0.0,0.0,0.0,0.0,0.0,0.0,0.0,-5.9099,-5.9099,-5.9099,-5.9099,-5.9099,-5.9099,-5.9099,-5.9099,-5.9099,-5.9099,-5.9099,-5.9099,-5.9099,-5.9099,-5.9129,-5.9787,-6.0475,-6.1164,-6.1822,-6.248,-6.3079,-6.3079,-6.3079,-6.3079,-6.3079,-6.3079,-6.3079,0.0,-6.3348,-6.3797,-6.4455,-6.4334,-6.4002,-6.4643,-6.3787,-6.2131,-6.0333,0.0,0.0,0.0,0.0,-5.8478,-5.8679,-5.9106,-5.9483,-5.9483,-5.9784,-6.0211,-6.0788,-6.1341,-6.1893,-6.2446,-6.2697,-6.2822,-6.2822,-6.2822,-6.2822,-6.2822,-6.2822,-6.2822,-6.2822,-6.2822,0.0,0.0,0.0,0.0,-6.2822,-6.2822,-6.2117,-6.0553,-5.8266,-5.5943,-5.3682,-5.1326,-4.9748,-4.894,-4.959,-5.0039,-5.0195,-5.0879,-5.1289,-5.1426,-5.1426,-5.1426,-5.1426,-5.1426,-5.1426,-5.1426,-5.1426,-5.1426,-5.1426,-5.1426,-5.1426,-5.1426,-5.1426,-5.1348,-5.1152,0.0,0.0,0.0,0.0,0.0,0.0,0.0,0.0,0.0,0.0,0.0,0.0,0.0,0.0,0.0,0.0,0.0,0.0,0.0,0.0,-5.9099,-5.9099,-5.9099,-5.9099,-5.9099,-5.9099,-5.9099,-5.9099,-5.9099,-5.9099,-5.9099,-5.9099,-5.9219,-5.9488,-6.0146,-6.0835,-6.1493,-6.2181,-6.269,-6.3079,-6.3079,-6.3079,-6.3079,-6.3079,-6.3079,0.0,-6.3318,-6.3416,-6.3533,-6.4636,-6.4659,-6.426,-6.43,-6.2595,-6.0264,0.0,0.0,0.0,0.0,-5.8027,-5.8755,-5.8956,-5.9257,-5.9533,-5.9734,-6.006,-6.0537,-6.1316,-6.1768,-6.2169,-6.2722,-6.2822,-6.2822,-6.2822,-6.2822,-6.2822,-6.2822,-6.2822,-6.2822,-6.2822,-6.2822,-6.2822,0.0,0.0,0.0,-6.2822,-6.2822,-6.1763,-5.9391,-5.7068,-5.4829,-5.2455,-5.0094,-4.8867,-4.8867,-4.9726,-5.0332,-5.0644,-5.1172,-5.1426,-5.1426,-5.1426,-5.1426,-5.1426,-5.1426,-5.1426,-5.1426,-5.1426,-5.1426,-5.1426,-5.1426,-5.1426,-5.1426,-5.1426,-5.1426,-5.1387,0.0,0.0,0.0,0.0,0.0,0.0,0.0,0.0,0.0,0.0,0.0,0.0,0.0,0.0,0.0,0.0,0.0,0.0,0.0,0.0,0.0,-5.9099,-5.9099,-5.9099,-5.9099,-5.9099,-5.9099,-5.9099,-5.9099,-5.9099,-5.9099,-5.9099,-5.9458,-6.0116,-6.0805,-6.1493,-6.2151,-6.281,-6.3079,-6.3079,-6.3079,-6.3079,-6.3079,-6.3079,-6.3109,-6.3199,-6.3797,-6.3293,-6.2592,-6.4365,0.0,0.0,0.0,0.0,0.0,0.0,0.0,-5.7198,-5.7775,-5.8353,-5.888,-5.9382,-5.9483,-5.9633,-6.0186,-6.0337,-6.0663,-6.1768,-6.2019,-6.222,0.0,0.0,-6.2822,-6.2822,-6.2822,-6.2822,-6.2822,-6.2822,-6.2822,0.0,0.0,0.0,0.0,0.0,0.0,-6.2822,0.0,-6.1598,-5.9222,-5.6982,-5.4654,-5.2297,-5.0094,-4.8867,-4.8867,-4.9726,-5.0586,-5.1406,-5.1426,-5.1426,-5.1426,-5.1426,-5.1426,-5.1426,-5.1426,-5.1426,-5.1426,-5.1426,-5.1426,-5.1426,-5.1426,-5.1426,-5.1426,-5.1426,-5.1426,-5.1426,0.0,0.0,0.0,0.0,0.0,0.0,0.0,0.0,0.0,0.0,0.0,0.0,0.0,0.0,0.0,0.0,0.0,0.0,0.0,0.0,0.0,0.0,0.0,0.0,0.0,0.0,0.0,-5.9099,-5.9099,-5.9099,-5.9099,-5.9099,-5.9458,-6.0116,-6.0805,-6.1493,-6.2151,-6.281,-6.3079,-6.3079,-6.3079,-6.3079,-6.3079,-6.3079,-6.3378,-6.3767,-6.3947,-6.3587,0.0,0.0,0.0,0.0,0.0,0.0,-5.6899,0.0,0.0,-5.7801,-5.8353,-5.8905,-5.9332,-5.9458,-5.9483,-5.9633,-6.0186,-6.0663,-6.1165,-6.1868,-6.2345,-6.2672,0.0,0.0,0.0,-6.2822,-6.2822,0.0,-6.2822,-6.2822,0.0,-6.2822,0.0,-6.2822,-6.2822,-6.2822,0.0,0.0,-6.1159,-5.9161,-5.6919,-5.4566,-5.2207,-4.9839,-4.9216,-4.8867,-4.8867,-4.9726,-5.0449,-5.0976,-5.1289,-5.1426,-5.1426,-5.1426,-5.1426,-5.1426,-5.1426,-5.1426,-5.1426,-5.1426,-5.1426,-5.1426,-5.1426,-5.1426,-5.1426,-5.1426,-5.1426,-5.1426,0.0,0.0,0.0,0.0,0.0,0.0,0.0,0.0,0.0,0.0,0.0,0.0,0.0,0.0,0.0,0.0,0.0,0.0,0.0,0.0,0.0,0.0,0.0,0.0,0.0,0.0,0.0,0.0,0.0,0.0,-5.9129,-5.9398,-5.9907,-6.0565,-6.1253,-6.1912,-6.254,-6.2929,-6.3079,0.0,0.0,-6.3079,-6.3079,-6.3079,-6.3468,-6.3919,-6.3445,0.0,0.0,0.0,0.0,-5.8719,-5.7707,-5.6823,-5.6319,-5.6872,0.0,-5.8027,-5.8579,-5.9106,-5.9483,-5.9483,-5.9684,-6.001,-6.0563,-6.114,-6.1692,-6.2245,-6.2621,0.0,-6.2822,0.0,0.0,0.0,0.0,0.0,-6.2822,-6.2822,-6.2822,0.0,-6.2822,0.0,-6.2822,-6.2822,-6.2388,0.0,-6.0003,-5.829,-5.6053,-5.3703,-5.1326,-4.894,-4.8867,-4.8945,-4.9141,-4.9844,-5.0391,-5.0801,-5.123,-5.1426,-5.1426,-5.1426,-5.1426,-5.1426,0.0,-5.1426,-5.1426,-5.1426,-5.1426,-5.1426,-5.1426,-5.1426,-5.1426,-5.1426,-5.1426,-5.1426,0.0,0.0,0.0,0.0,0.0,0.0,0.0,0.0,0.0,0.0,0.0,0.0,0.0,0.0,0.0,0.0,0.0,0.0,0.0,0.0,0.0,0.0,0.0,0.0,0.0,0.0,0.0,0.0,0.0,0.0,-5.9129,-5.9787,-6.0446,-6.1134,-6.1792,-6.245,-6.3079,-6.3079,-6.3079,-6.3079,-6.3079,-6.3079,-6.3079,0.0,-6.3588,-6.398,0.0,0.0,0.0,0.0,-5.7231,-5.8507,-5.8507,-5.7472,-5.642,-5.6997,-5.7549,-5.8127,-5.8679,-5.9156,-5.9483,-5.9483,-5.991,-6.0462,-6.104,-6.1617,-6.2169,-6.2722,0.0,-6.2822,-6.2822,-6.2822,-6.2822,-6.2822,0.0,-6.2822,-6.2822,-6.2822,-6.2822,-6.2822,-6.2822,-6.2822,-6.2822,-6.2822,-6.187,-5.9475,-5.9053,-5.784,-5.553,-5.3259,-5.0964,-4.894,-4.8867,-4.9043,-4.9433,-4.9883,-5.0293,-5.0723,-5.1152,-5.1387,-5.1426,-5.1426,-5.1426,-5.1426,-5.1426,-5.1426,-5.1426,-5.1426,-5.1426,-5.1426,-5.1426,-5.1426,-5.1426,-5.1426,-5.1426,-5.1426,0.0,0.0,0.0,0.0,0.0,0.0,0.0,0.0,0.0,0.0,-5.9099,-5.9099,0.0,0.0,0.0,0.0,0.0,0.0,0.0,0.0,0.0,0.0,0.0,0.0,0.0,0.0,0.0,0.0,0.0,0.0,-5.9129,-5.9787,-6.0446,-6.1134,-6.1792,-6.245,-6.3079,-6.3079,-6.3079,-6.3079,-6.3079,-6.3079,-6.3139,-6.3647,0.0,0.0,0.0,0.0,0.0,0.0,-5.6412,-5.6678,-5.6678,-5.6715,-5.6997,-5.7575,-5.8152,-5.8704,-5.9232,-5.9433,-5.9483,-5.9483,-5.991,-6.0462,-6.104,-6.1617,0.0,0.0,-6.2822,-6.2822,-6.2822,-6.2822,-6.2822,-6.2822,0.0,0.0,0.0,0.0,-6.2822,0.0,0.0,0.0,0.0,0.0,0.0,0.0,0.0,-5.5443,-5.317,-5.0803,-4.9308,-4.894,-4.8867,-4.8887,-4.8965,-4.9414,-4.9863,-5.0293,-5.0723,-5.1094,-5.1426,-5.1426,-5.1426,-5.1426,-5.1426,0.0,-5.1426,-5.1426,-5.1426,-5.1426,-5.1426,-5.1426,-5.1426,-5.1426,-5.1426,-5.1426,0.0,0.0,0.0,0.0,0.0,0.0,0.0,-5.9099,-5.9099,-5.9099,-5.9099,-5.9099,-5.9099,-5.9099,-5.9099,0.0,0.0,0.0,0.0,0.0,0.0,0.0,0.0,0.0,0.0,0.0,0.0,0.0,0.0,0.0,0.0,0.0,0.0,0.0,0.0,-6.278,-6.3079,-6.3079,-6.3079,-6.3079,-6.3079,-6.3079,0.0,0.0,0.0,0.0,0.0,0.0,0.0,0.0,-5.6219,-5.6219,-5.6219,-5.6595,-5.7148,-5.7725,-5.8278,-5.883,-5.9357,-5.9483,-5.9483,-5.9483,-6.0136,-6.0839,-6.1115,0.0,0.0,0.0,-6.2822,-6.2822,-6.2822,-6.2822,0.0,0.0,0.0,0.0,0.0,0.0,0.0,0.0,0.0,0.0,0.0,0.0,0.0,0.0,0.0,-5.3615,-5.2455,-5.0185,-4.8867,-4.8867,-4.8867,-4.8867,-4.8867,-4.9297,-4.9629,-4.9844,-5.0488,-5.0918,-5.1113,-5.1328,-5.1426,-5.1426,-5.1426,-5.1426,-5.1426,-5.1426,-5.1426,-5.1426,-5.1426,-5.1308,-5.1113,-5.1113,-5.0957,-5.0781,0.0,0.0,0.0,0.0,0.0,0.0,0.0,-5.9099,-5.9099,-5.9099,-5.9099,-5.9099,-5.9099,-5.9099,-5.9099,0.0,0.0,0.0,0.0,0.0,0.0,0.0,0.0,0.0,0.0,0.0,0.0,0.0,0.0,0.0,0.0,0.0,0.0,0.0,0.0,0.0,0.0,-6.3079,-6.3079,0.0,0.0,0.0,0.0,0.0,0.0,0.0,0.0,0.0,0.0,0.0,-5.6219,-5.6244,-5.6344,-5.6771,-5.7323,-5.7901,-5.8453,-5.8981,-5.9382,-5.9483,-5.9533,-5.9633,-6.0437,-6.1215,-6.1341,-6.2119,0.0,0.0,-6.2822,-6.2822,-6.2822,-6.2822,-6.2822,0.0,0.0,0.0,0.0,0.0,0.0,0.0,0.0,0.0,0.0,0.0,0.0,0.0,0.0,0.0,-5.1667,-4.9911,-4.8867,-4.8867,-4.8867,-4.8867,-4.8867,-4.9199,-4.9433,-4.9531,-5.0215,-5.0586,-5.0683,-5.1016,-5.1172,-5.1172,-5.1172,-5.1172,0.0,-5.1172,-5.1172,-5.1172,-5.1172,-5.0957,-5.0664,-5.0664,-5.0469,-5.0176,0.0,0.0,0.0,0.0,0.0,0.0,0.0,-5.9099,-5.9099,-5.9099,-5.9099,-5.9099,-5.9099,-5.9099,-5.9099,0.0,0.0,0.0,0.0,0.0,0.0,0.0,0.0,0.0,0.0,0.0,0.0,0.0,0.0,0.0,0.0,0.0,0.0,0.0,0.0,0.0,0.0,0.0,0.0,0.0,0.0,0.0,0.0,0.0,0.0,0.0,0.0,0.0,0.0,0.0,0.0,-5.6294,-5.6796,-5.7349,-5.7926,-5.8478,0.0,0.0,-5.9483,-5.9483,-5.9608,-6.0111,-6.0713,-6.1316,-6.1818,0.0,0.0,-6.2822,-6.2822,-6.2822,-6.2822,-6.2822,-6.2822,0.0,0.0,-6.2822,0.0,0.0,0.0,0.0,0.0,0.0,0.0,0.0,0.0,0.0,0.0,0.0,-4.9216,-4.9032,-4.8867,-4.8867,-4.8867,-4.8867,-4.8867,-4.8906,-4.9121,-4.9531,-4.9609,-4.9844,-5.0234,-5.0273,-5.0293,-5.0293,-5.0293,0.0,0.0,-5.0293,-5.0293,-5.0293,-5.0293,-5.0273,-5.0234,-5.0234,-5.0215,-5.0176,0.0,0.0,0.0,0.0,0.0,0.0,-5.9099,-5.9099,-5.9099,-5.9099,-5.9099,-5.9099,-5.9099,-5.9099,-5.9099,-5.9099,0.0,0.0,0.0,0.0,0.0,0.0,0.0,0.0,0.0,0.0,-5.9099,-5.9099,-5.9757,0.0,0.0,0.0,0.0,0.0,0.0,0.0,0.0,0.0,0.0,0.0,0.0,0.0,0.0,0.0,0.0,0.0,0.0,0.0,0.0,0.0,0.0,0.0,-5.7374,-5.7951,0.0,0.0,-5.9081,-5.9483,-5.9483,-5.9483,-5.9633,-6.0186,-6.0738,-6.1341,-6.1893,0.0,0.0,-6.2822,-6.2822,-6.2822,-6.2822,-6.2822,-6.2822,-6.2822,0.0,0.0,0.0,0.0,0.0,0.0,0.0,0.0,0.0,0.0,0.0,0.0,0.0,0.0,-4.8867,-4.8867,-4.8867,-4.8867,-4.8867,-4.8867,-4.8867,-4.8867,-4.8945,-4.9121,-4.9394,-4.9609,-4.9785,-5.0058,-5.0176,-5.0176,-5.0176,0.0,0.0,-5.0176,-5.0176,-5.0176,-5.0176,-5.0019,-4.9785,-4.9785,-4.9609,-4.9394,0.0,0.0,0.0,0.0,0.0,-5.9099,-5.9099,-5.9099,-5.9099,-5.9099,-5.9099,-5.9099,-5.9099,-5.9099,-5.9099,-5.9099,-5.9099,0.0,0.0,0.0,0.0,0.0,0.0,0.0,0.0,0.0,-5.9189,-5.9398,-6.0057,-6.0745,0.0,0.0,0.0,0.0,0.0,0.0,0.0,0.0,0.0,0.0,0.0,0.0,0.0,0.0,0.0,0.0,0.0,0.0,0.0,0.0,0.0,0.0,0.0,0.0,0.0,0.0,-5.9207,-5.9483,-5.9483,-5.9608,-5.9885,-6.0437,-6.0989,-6.1567,0.0,0.0,0.0,-6.2822,-6.2822,-6.2822,-6.2822,-6.2822,-6.2822,-6.2822,0.0,-6.2822,0.0,0.0,0.0,0.0,0.0,0.0,0.0,0.0,0.0,0.0,0.0,0.0,-4.8867,-4.8867,-4.8867,-4.8867,-4.8867,-4.8867,-4.8867,-4.8867,-4.8867,-4.8867,-4.918,-4.9336,-4.9336,-4.9648,-4.9785,-4.9785,-4.9785,0.0,0.0,-4.9785,-4.9785,-4.9785,-4.9785,-4.959,-4.9336,-4.9336,-4.9121,-4.8867,0.0,0.0,0.0,0.0,0.0,0.0,-5.9099,-5.9099,-5.9099,-5.9099,-5.9099,-5.9099,-5.9099,-5.9099,-5.9099,-5.9099,-5.9099,0.0,0.0,0.0,0.0,0.0,0.0,0.0,0.0,0.0,-5.9428,-6.0086,-6.0775,-6.1433,-6.2091,-6.275,-6.3079,0.0,0.0,0.0,0.0,0.0,0.0,0.0,0.0,0.0,0.0,0.0,0.0,0.0,0.0,0.0,0.0,0.0,0.0,0.0,0.0,-5.8278,0.0,0.0,-5.9483,-5.9483,-5.9483,-5.9885,-6.0462,-6.104,-6.1592,-6.2144,0.0,0.0,0.0,-6.2822,-6.2822,-6.2822,-6.2822,-6.2822,-6.2822,-6.2822,-6.2822,0.0,0.0,0.0,0.0,0.0,0.0,0.0,0.0,0.0,0.0,0.0,0.0,0.0,-4.8867,-4.8867,-4.8867,-4.8867,-4.8867,-4.8867,-4.8867,-4.8867,-4.8867,-4.8867,-4.8867,-4.8867,-4.8867,-4.8867,-4.8867,-4.8867,0.0,0.0,0.0,-4.8867,-4.8867,-4.8867,-4.8867,-4.8867,-4.8867,-4.8867,-4.8867,-4.8867,0.0,0.0,0.0,0.0,0.0,0.0,0.0,-5.9099,-5.9099,-5.9099,-5.9099,-5.9099,-5.9099,-5.9099,-5.9099,-5.9099,-5.9099,0.0,0.0,0.0,0.0,0.0,0.0,0.0,0.0,-5.9548,-5.9877,-6.0086,-6.1224,-6.1882,-6.2121,-6.278,-6.3079,-6.3079,-6.3079,0.0,0.0,0.0,0.0,0.0,0.0,0.0,0.0,0.0,0.0,0.0,0.0,0.0,0.0,0.0,0.0,0.0,0.0,0.0,0.0,-5.9433,0.0,0.0,-5.9483,-5.991,-6.0462,-6.104,-6.1592,-6.2144,-6.2697,0.0,0.0,-6.2822,-6.2822,-6.2822,-6.2822,-6.2822,-6.2822,-6.2822,-6.2822,0.0,0.0,0.0,0.0,0.0,0.0,0.0,0.0,0.0,0.0,0.0,0.0,0.0,-4.8867,-4.8867,-4.8867,-4.8867,-4.8867,-4.8867,-4.8867,-4.8867,-4.8867,-4.8867,-4.8867,-4.8867,-4.8867,-4.8867,-4.8867,0.0,0.0,0.0,0.0,-4.8867,-4.8867,-4.8867,-4.8867,-4.8867,-4.8867,-4.8867,-4.8867,-4.8867,0.0,0.0,0.0,0.0,0.0,0.0,0.0,-5.9099,-5.9099,-5.9099,-5.9099,-5.9099,-5.9099,-5.9099,-5.9099,-5.9099,-5.9099,0.0,0.0,0.0,0.0,0.0,0.0,0.0,-5.9458,-5.9877,-6.0326,-6.0835,-6.1672,-6.2211,-6.248,-6.2869,-6.3079,-6.3079,-6.3079,-6.3079,0.0,0.0,0.0,0.0,0.0,0.0,-5.5742,0.0,0.0,0.0,0.0,0.0,0.0,0.0,0.0,0.0,0.0,0.0,0.0,0.0,-5.9483,0.0,0.0,-6.006,-6.0738,-6.109,-6.1743,0.0,0.0,0.0,0.0,-6.2822,-6.2822,-6.2822,-6.2822,-6.2822,-6.2822,-6.2822,-6.2822,0.0,0.0,0.0,0.0,0.0,0.0,0.0,0.0,0.0,0.0,0.0,0.0,0.0,-4.8867,-4.8867,-4.8867,-4.8867,-4.8867,-4.8867,-4.8867,-4.8867,-4.8867,-4.8867,-4.8867,-4.8867,-4.8867,-4.8867,-4.8867,0.0,0.0,0.0,0.0,-4.8867,-4.8867,-4.8867,-4.8867,-4.8867,-4.8867,-4.8867,-4.8867,-4.8867,0.0,0.0,0.0,0.0,0.0,0.0,0.0,-5.9099,-5.9099,-5.9099,-5.9099,-5.9099,-5.9099,-5.9099,-5.9099,-5.9099,0.0,0.0,0.0,0.0,0.0,0.0,0.0,0.0,-6.0146,-6.0206,-6.0835,-6.2091,-6.2151,-6.248,-6.3079,-6.3079,-6.3079,-6.3079,-6.3079,-6.3021,-6.2847,-6.1626,-6.0435,-5.9331,-5.8206,-5.712,0.0,0.0,0.0,0.0,0.0,0.0,0.0,0.0,0.0,0.0,0.0,0.0,0.0,0.0,0.0,0.0,0.0,-6.0362,0.0,0.0,0.0,0.0,0.0,0.0,0.0,-6.2822,-6.2822,-6.2822,-6.2822,-6.2822,-6.2822,-6.2822,-6.2822,0.0,0.0,0.0,0.0,0.0,0.0,0.0,0.0,0.0,0.0,0.0,0.0,0.0,-4.8867,-4.8867,-4.8867,-4.8867,-4.8867,-4.8867,-4.8867,-4.8867,-4.8867,-4.8867,-4.8867,-4.8867,-4.8867,-4.8867,-4.8867,0.0,0.0,0.0,0.0,-4.8867,-4.8867,-4.8867,-4.8867,-4.8867,-4.8867,-4.8867,-4.8867,-4.8867,0.0,0.0,0.0,0.0,0.0,0.0,0.0,0.0,0.0,0.0,-5.9099,-5.9099,-5.9099,-5.9099,-5.9099,0.0,0.0,0.0,0.0,0.0,0.0,0.0,0.0,0.0,-6.0864,-6.1373,-6.1762,-6.2091,-6.26,-6.2929,-6.3079,-6.3079,-6.3079,-6.3079,-6.3079,-6.235,-6.1048,-5.9905,-5.8728,-5.758,-5.6438,-5.6053,0.0,0.0,0.0,0.0,-5.6219,-5.6219,0.0,0.0,0.0,0.0,0.0,0.0,0.0,0.0,-5.9483,-5.9583,-6.001,0.0,-6.1291,-6.1718,-6.232,-6.2822,0.0,0.0,0.0,0.0,-6.2822,0.0,0.0,-6.2822,-6.2822,-6.2822,0.0,0.0,0.0,0.0,0.0,0.0,0.0,0.0,0.0,0.0,0.0,0.0,0.0,-4.8867,-4.8867,-4.8867,-4.8867,-4.8867,-4.8867,-4.8867,-4.8867,-4.8867,-4.8867,-4.8867,-4.8867,-4.8867,-4.8867,-4.8867,-4.8867,0.0,0.0,0.0,-4.8867,-4.8867,-4.8867,-4.8867,-4.8867,-4.8867,-4.8867,-4.8867,-4.8867,-4.8867,0.0,0.0,0.0,0.0,0.0,0.0,0.0,0.0,0.0,0.0,0.0,0.0,0.0,0.0,0.0,0.0,0.0,0.0,0.0,0.0,0.0,0.0,0.0,-6.0864,-6.1553,-6.1912,-6.2241,-6.254,-6.2899,-6.3079,-6.3079,-6.3079,-6.3079,-6.3079,-6.2292,-6.1104,-5.9645,-5.8537,-5.7839,-5.7361,-5.6209,0.0,0.0,0.0,0.0,0.0,-5.6219,-5.6219,0.0,-5.7524,-5.7901,-5.8077,0.0,0.0,0.0,0.0,-5.9483,-5.9684,-6.0487,-6.0939,-6.1316,-6.1868,-6.2421,-6.2822,-6.2822,0.0,0.0,0.0,0.0,0.0,0.0,0.0,0.0,0.0,0.0,0.0,0.0,0.0,0.0,0.0,0.0,0.0,0.0,0.0,0.0,0.0,0.0,-4.8867,-4.8867,-4.8867,-4.8867,-4.8867,-4.8867,-4.8867,-4.8867,-4.8867,-4.8867,-4.8867,-4.8867,-4.8867,-4.8867,-4.8867,-4.8867,0.0,0.0,0.0,-4.8867,-4.8867,-4.8867,-4.8867,-4.8867,-4.8867,-4.8867,-4.8867,-4.8867,-4.8867,0.0,0.0,0.0,0.0,0.0,0.0,0.0,0.0,0.0,0.0,0.0,0.0,0.0,0.0,0.0,0.0,0.0,0.0,0.0,0.0,0.0,0.0,-6.0954,-6.1583,-6.2241,-6.2241,-6.251,-6.3079,-6.3079,-6.3079,-6.3079,-6.3079,-6.2933,-6.2613,-6.087,-5.9504,-5.8362,-5.7464,-5.7256,-5.7442,-5.6522,0.0,0.0,0.0,0.0,0.0,0.0,0.0,0.0,-5.7549,-5.7951,-5.8202,-5.9182,0.0,0.0,0.0,0.0,0.0,-6.0889,-6.119,-6.1341,-6.1969,-6.2471,-6.2822,-6.2822,0.0,0.0,0.0,0.0,0.0,0.0,-6.2822,0.0,0.0,0.0,0.0,0.0,0.0,0.0,0.0,0.0,0.0,0.0,0.0,0.0,0.0,0.0,-4.8867,-4.8867,-4.8867,-4.8867,-4.8867,-4.8867,-4.8867,-4.8867,-4.8867,-4.8867,-4.8867,-4.8867,-4.8867,-4.8867,-4.8867,-4.8867,-4.8867,0.0,0.0,-4.8867,-4.8867,-4.8867,-4.8867,-4.8867,-4.8867,-4.8867,-4.8867,-4.8867,-4.8867,0.0,0.0,0.0,0.0,0.0,0.0,0.0,0.0,0.0,0.0,0.0,0.0,0.0,0.0,0.0,0.0,0.0,0.0,0.0,0.0,0.0,-6.1792,-6.1882,-6.2241,-6.2899,-6.2929,-6.2989,-6.3079,-6.3079,-6.3079,-6.3079,-6.3079,-6.2292,-6.081,-5.9132,-5.7761,-5.6678,-5.7018,-5.6591,-5.5846,-5.6065,0.0,0.0,0.0,0.0,0.0,0.0,0.0,0.0,-5.7675,-5.8202,-5.8704,-5.9307,0.0,0.0,0.0,0.0,0.0,-6.0889,-6.119,-6.1441,-6.2446,-6.2772,-6.2822,-6.2822,-6.2822,0.0,0.0,0.0,0.0,0.0,-6.2822,-6.2822,0.0,0.0,0.0,0.0,0.0,0.0,0.0,0.0,0.0,0.0,0.0,0.0,0.0,0.0,0.0,-4.8867,-4.8867,-4.8867,-4.8867,-4.8867,-4.8867,-4.8867,-4.8867,-4.8867,-4.8867,-4.8867,-4.8867,-4.8867,-4.8867,-4.8867,-4.8867,0.0,-4.8867,-4.8867,-4.8867,-4.8867,-4.8867,-4.8867,-4.8867,-4.8867,-4.8867,-4.8867,-4.8867,0.0,0.0,0.0,0.0,0.0,0.0,0.0,0.0,0.0,0.0,0.0,0.0,0.0,0.0,0.0,0.0,0.0,0.0,0.0,0.0,-6.263,-6.263,-6.263,-6.278,-6.3079,-6.3079,-6.3079,-6.3079,-6.3079,-6.3079,-6.3079,-6.2175,-6.0298,-5.7724,-5.7309,-5.6438,-5.5391,-5.5956,-5.6051,-5.5867,0.0,0.0,0.0,0.0,0.0,0.0,0.0,0.0,0.0,0.0,-5.8278,-5.8805,-5.9332,0.0,0.0,0.0,0.0,0.0,-6.0889,-6.119,-6.1441,-6.2546,-6.2822,-6.2822,-6.2822,-6.2822,-6.2822,-6.2822,0.0,0.0,0.0,0.0,0.0,0.0,0.0,0.0,0.0,0.0,0.0,0.0,0.0,0.0,0.0,0.0,0.0,0.0,0.0,0.0,-4.8867,-4.8867,-4.8867,-4.8867,-4.8867,-4.8867,-4.8867,-4.8867,-4.8867,-4.8867,-4.8867,-4.8867,-4.8867,-4.8867,-4.8867,-4.8867,0.0,-4.8867,-4.8867,-4.8867,-4.8867,-4.8867,-4.8867,-4.8867,-4.8867,-4.8867,-4.8867,-4.8867,0.0,0.0,0.0,0.0,0.0,0.0,0.0,0.0,0.0,0.0,0.0,0.0,0.0,0.0,0.0,0.0,0.0,0.0,0.0,-6.278,-6.3079,-6.3079,-6.3079,-6.3079,-6.3079,-6.3079,-6.3079,-6.3079,-6.3079,-6.2875,-6.2409,-6.0298,-5.7969,-5.5591,-5.5663,-5.5357,-5.4787,-5.5214,-5.5717,-5.6219,0.0,0.0,0.0,0.0,0.0,0.0,0.0,0.0,0.0,0.0,0.0,0.0,0.0,0.0,0.0,-5.9483,-5.9583,-5.991,-6.0914,-6.1266,-6.1617,-6.2571,-6.2822,-6.2822,-6.2822,-6.2822,-6.2822,-6.2822,-6.2822,0.0,0.0,0.0,0.0,0.0,0.0,0.0,0.0,0.0,0.0,0.0,0.0,0.0,0.0,0.0,0.0,0.0,0.0,0.0,-4.8867,-4.8867,-4.8867,-4.8867,-4.8867,-4.8867,-4.8867,-4.8867,-4.8867,-4.8867,-4.8867,-4.8867,-4.8867,-4.8867,-4.8867,-4.8867,-4.8867,-4.8867,-4.8867,-4.8867,-4.8867,-4.8867,-4.8867,-4.8867,-4.8867,-4.8867,-4.8867,-4.8867,0.0,0.0,0.0,0.0,0.0,0.0,0.0,0.0,0.0,0.0,0.0,0.0,0.0,0.0,0.0,0.0,0.0,0.0,0.0,-6.3049,-6.3079,-6.3079,-6.3079,-6.3079,-6.3079,-6.3079,-6.3079,-6.3079,-6.3079,-6.2292,-6.06,-5.7314,-5.5908,-5.6197,-5.4602,-5.4451,-5.534,-5.5365,-5.5717,-5.6219,-5.6219,0.0,0.0,0.0,0.0,0.0,0.0,0.0,0.0,0.0,0.0,0.0,0.0,0.0,-5.9483,-5.9483,-5.9859,-6.0387,-6.1014,-6.1542,-6.2094,-6.2672,-6.2822,-6.2822,-6.2822,-6.2822,-6.2822,-6.2822,-6.2822,-6.2822,0.0,0.0,0.0,0.0,0.0,0.0,0.0,0.0,0.0,0.0,0.0,0.0,0.0,0.0,0.0,0.0,0.0,0.0,-4.8867,-4.8867,-4.8867,-4.8867,-4.8867,-4.8867,-4.8867,-4.8867,-4.8867,-4.8867,-4.8867,-4.8867,-4.8867,-4.8867,-4.8867,-4.8867,-4.8867,-4.8867,-4.8867,-4.8867,-4.8867,-4.8867,-4.8867,-4.8867,-4.8867,-4.8867,-4.8867,-4.8867,0.0,0.0,0.0,0.0,0.0,0.0,0.0,0.0,0.0,0.0,0.0,0.0,0.0,0.0,0.0,0.0,0.0,0.0,0.0,-6.3079,-6.3079,-6.3079,-6.3079,-6.3079,-6.3079,-6.3079,-6.3079,-6.3079,-6.2028,-6.0055,-5.7341,-5.6384,-5.5528,-5.4722,-5.4764,-5.4988,-5.5415,-5.5742,-5.6018,-5.6219,-5.6219,-5.6219,0.0,0.0,0.0,0.0,0.0,0.0,0.0,0.0,-5.9056,-5.9483,-5.9483,-5.9483,-5.9483,-5.9483,-5.9885,-6.0437,-6.104,-6.1592,-6.2144,-6.2697,-6.2822,-6.2822,-6.2822,-6.2822,-6.2822,-6.2822,-6.2822,-6.2822,-6.2822,0.0,0.0,0.0,0.0,0.0,0.0,0.0,0.0,0.0,0.0,0.0,0.0,0.0,0.0,0.0,0.0,0.0,0.0,-4.8867,-4.8867,-4.8867,-4.8867,-4.8867,-4.8867,-4.8867,-4.8867,-4.8867,-4.8867,-4.8867,-4.8867,-4.8867,-4.8867,-4.8867,-4.8867,-4.8867,-4.8867,-4.8867,-4.8867,-4.8867,-4.8867,-4.8867,-4.8867,-4.8867,-4.8867,-4.8867,0.0,0.0,0.0,0.0,0.0,0.0,0.0,0.0,0.0,0.0,0.0,0.0,0.0,0.0,0.0,0.0,0.0,0.0,-6.3079,-6.3079,-6.3079,-6.3079,-6.3079,-6.3079,-6.3079,-6.2555,-6.2292,-6.2292,-5.9994,-5.7806,-5.5643,-5.5554,-5.5014,-5.426,-5.5039,-5.5491,-5.5666,-5.6043,-5.6219,-5.6219,-5.6219,-5.6219,0.0,0.0,0.0,0.0,0.0,0.0,0.0,0.0,-5.9207,-5.9483,-5.9483,-5.9483,-5.9483,-5.9483,-6.001,-6.0688,-6.109,-6.1718,-6.2345,-6.2747,-6.2822,-6.2822,-6.2822,-6.2822,-6.2822,-6.2822,-6.2822,-6.2822,-6.2822,-6.0886,0.0,0.0,0.0,0.0,0.0,0.0,0.0,0.0,0.0,0.0,0.0,0.0,0.0,0.0,0.0,0.0,0.0,-4.8867,-4.8867,-4.8867,-4.8867,-4.8867,-4.8867,-4.8867,-4.8867,-4.8867,-4.8867,-4.8867,-4.8867,-4.8867,-4.8867,-4.8867,-4.8867,-4.8867,-4.8867,-4.8867,-4.8867,-4.8867,-4.8867,-4.8867,-4.8867,-4.8867,-4.8867,-4.8867,0.0,0.0,0.0,0.0,0.0,0.0,0.0,0.0,0.0,0.0,0.0,0.0,0.0,0.0,0.0,0.0,0.0,0.0,-6.3079,-6.3079,-6.3079,-6.3079,-6.3079,-6.3079,-6.3079,-6.1318,-6.048,-6.048,-5.7058,-5.5736,-5.6276,-5.4516,-5.431,-5.539,-5.539,-5.5691,-5.6219,-5.6219,-5.6219,-5.6219,-5.6219,-5.6219,-5.6219,0.0,0.0,0.0,0.0,0.0,0.0,0.0,-5.9483,-5.9483,-5.9483,-5.9483,-5.9483,-5.9483,-6.0286,-6.119,-6.119,-6.1994,-6.2822,-6.2822,-6.2822,-6.2822,-6.2822,-6.2822,-6.2822,-6.2822,-6.2822,-6.2822,-6.2822,-6.0886,0.0,0.0,0.0,0.0,0.0,0.0,0.0,0.0,0.0,0.0,0.0,0.0,0.0,0.0,0.0,0.0,0.0,-4.8867,-4.8867,-4.8867,-4.8867,-4.8867,-4.8867,-4.8867,-4.8867,-4.8867,-4.8867,-4.8867,-4.8867,-4.8867,-4.8867,-4.8867,-4.8867,-4.8867,-4.8867,-4.8867,-4.8867,-4.8867,-4.8867,-4.8867,-4.8867,-4.8867,-4.8867,-4.8867,0.0,0.0,0.0,0.0,0.0,0.0,0.0,0.0,0.0,0.0,0.0,0.0,0.0,0.0,0.0,0.0,0.0,0.0,-6.3079,-6.3079,-6.3079,-6.3079,-6.191,-6.1258,-6.1258,-5.839,-5.6929,-5.6929,-5.6305,-5.5513,-5.4516,-5.4794,-5.5064,-5.5415,-5.5792,-5.6068,-5.6219,-5.6219,-5.6219,-5.6219,-5.6219,-5.6219,-5.6244,0.0,0.0,0.0,0.0,0.0,0.0,0.0,0.0,0.0,-5.9483,-5.9483,-5.9483,-5.9483,-6.0286,-6.119,-6.119,-6.1994,-6.2822,-6.2822,0.0,-6.2822,-6.2822,-6.2822,-6.2822,-6.2822,-6.2822,-6.2822,-6.2822,-6.0886,0.0,0.0,0.0,0.0,0.0,0.0,0.0,0.0,0.0,0.0,0.0,0.0,0.0,0.0,0.0,0.0,0.0,-4.8867,-4.8867,-4.8867,-4.8867,-4.8867,-4.8867,-4.8867,-4.8867,-4.8867,-4.8867,-4.8867,-4.8867,-4.8867,-4.8867,-4.8867,-4.8867,-4.8867,-4.8867,-4.8867,-4.8867,-4.8867,-4.8867,-4.8867,-4.8867,-4.8867,-4.8867,-4.8867,0.0,0.0,0.0,0.0,0.0,0.0,0.0,0.0,0.0,0.0,-6.1852,-6.2361,0.0,0.0,0.0,0.0,0.0,0.0,0.0,-6.3079,-6.2817,-6.2086,-6.105,-5.9957,-5.8843,-5.6789,-5.552,-5.5106,-5.5235,-5.4996,-5.4386,-5.5064,-5.5491,-5.5717,-5.6068,-5.6219,-5.6219,-5.6219,-5.6219,-5.6219,-5.6219,-5.6344,-5.657,0.0,0.0,0.0,0.0,0.0,0.0,0.0,0.0,0.0,-5.9483,-5.9483,-5.9533,-5.9759,-6.0462,-6.124,-6.1441,-6.2144,0.0,-6.2822,-6.2822,-6.2822,-6.2822,-6.2822,-6.2822,-6.2822,-6.2822,-6.2495,-6.1598,-5.9499,0.0,0.0,0.0,0.0,0.0,0.0,0.0,0.0,0.0,0.0,0.0,0.0,0.0,0.0,0.0,0.0,0.0,-4.8867,-4.8867,-4.8867,-4.8867,-4.8867,-4.8867,-4.8867,-4.8867,-4.8867,-4.8867,-4.8867,-4.8867,-4.8867,-4.8867,-4.8867,-4.8867,-4.8867,-4.8867,-4.8867,-4.8867,-4.8867,-4.8867,-4.8867,-4.8867,-4.8867,-4.8867,-4.8867,0.0,0.0,0.0,0.0,0.0,0.0,0.0,0.0,0.0,0.0,-6.2151,-6.2421,0.0,0.0,0.0,0.0,0.0,0.0,0.0,-6.2933,-6.2175,-6.054,-6.0234,-5.8815,-5.6115,-5.6127,-5.565,-5.4637,-5.411,-5.4386,-5.539,-5.544,-5.5742,-5.6219,-5.6219,-5.6219,-5.6219,-5.6219,-5.6219,-5.6219,-5.6269,-5.6595,-5.7047,-5.7148,0.0,0.0,0.0,0.0,0.0,0.0,0.0,0.0,-5.9483,-5.9483,-5.9608,-6.0161,-6.0738,-6.1316,-6.1843,-6.2395,0.0,-6.2822,-6.2822,0.0,-6.2822,-6.2822,-6.2822,-6.2822,0.0,-6.2117,-6.0003,0.0,0.0,0.0,0.0,0.0,0.0,0.0,0.0,0.0,0.0,0.0,0.0,0.0,0.0,0.0,0.0,0.0,0.0,-4.8867,-4.8867,-4.8867,-4.8867,-4.8867,-4.8867,-4.8867,-4.8867,-4.8867,-4.8867,-4.8867,-4.8867,-4.8867,-4.8867,-4.8867,-4.8867,-4.8867,-4.8867,-4.8867,-4.8867,-4.8867,-4.8867,-4.8867,-4.8867,-4.8867,-4.8867,-4.8867,0.0,0.0,0.0,0.0,0.0,0.0,0.0,0.0,0.0,0.0,0.0,0.0,0.0,0.0,0.0,0.0,0.0,0.0,0.0,-6.1851,-6.087,-6.054,-5.8355,-5.6252,-5.4283,-5.474,-5.5062,-5.5214,-5.5089,-5.5139,-5.539,-5.5842,-5.6093,-5.6219,-5.6219,-5.6219,-5.6219,-5.6219,-5.6219,-5.6244,-5.6671,-5.6922,-5.7123,-5.8027,-5.8504,0.0,0.0,0.0,0.0,0.0,0.0,0.0,-5.9483,-5.9483,-5.9608,-6.0161,-6.0738,-6.1316,0.0,-6.2395,0.0,0.0,-6.2822,-6.2822,-6.2822,-6.2822,-6.2822,-6.2822,-6.2822,-6.2659,0.0,0.0,0.0,0.0,0.0,0.0,0.0,0.0,0.0,0.0,0.0,0.0,0.0,0.0,0.0,0.0,0.0,0.0,-4.8867,-4.8867,-4.8867,-4.8867,-4.8867,-4.8867,-4.8867,-4.8867,-4.8867,0.0,-4.8867,-4.8867,-4.8867,-4.8867,-4.8867,-4.8867,-4.8867,-4.8867,-4.8867,-4.8867,-4.8867,-4.8867,-4.8867,-4.8867,-4.8867,-4.8867,-4.8867,-4.8867,0.0,0.0,0.0,0.0,0.0,0.0,0.0,0.0,0.0,0.0,0.0,0.0,0.0,0.0,0.0,0.0,0.0,0.0,0.0,0.0,-5.9924,-5.8519,-5.6265,-5.4883,-5.4486,-5.4813,-5.5239,-5.5792,-5.5792,-5.5792,-5.5792,-5.6068,-5.6219,-5.6219,-5.6219,-5.6219,-5.6219,-5.6219,-5.6219,-5.6269,-5.6821,-5.7198,-5.7549,-5.8403,-5.888,-5.9131,-5.9408,0.0,0.0,0.0,0.0,0.0,0.0,0.0,-6.001,-6.0563,-6.114,0.0,0.0,0.0,0.0,-6.2822,0.0,-6.2822,-6.2822,-6.2822,-6.2822,-6.2822,0.0,0.0,0.0,0.0,0.0,0.0,0.0,0.0,0.0,0.0,0.0,0.0,0.0,0.0,0.0,0.0,0.0,0.0,0.0,-4.8867,-4.8867,-4.8867,-4.8867,-4.8867,-4.8867,-4.8867,-4.8867,-4.8867,-4.8867,-4.8867,-4.8867,-4.8867,-4.8867,-4.8867,-4.8867,-4.8867,-4.8867,-4.8867,-4.8867,-4.8867,-4.8867,-4.8867,-4.8867,-4.8867,-4.8867,-4.8867,-4.8867,-4.8867,0.0,0.0,0.0,0.0,0.0,0.0,0.0,0.0,0.0,0.0,0.0,0.0,0.0,0.0,0.0,0.0,0.0,0.0,0.0,0.0,0.0,-5.6138,-5.4745,-5.4436,-5.5365,-5.5491,-5.5742,-5.6219,-5.6219,-5.6219,-5.6219,-5.6219,-5.6219,-5.6219,-5.6219,-5.6219,-5.6219,-5.6219,-5.6269,-5.6394,-5.6947,-5.7524,-5.8102,-5.8654,-5.9131,-5.9483,-5.9483,-5.9483,0.0,0.0,0.0,0.0,0.0,0.0,-6.0437,-6.1014,0.0,0.0,0.0,0.0,0.0,0.0,0.0,0.0,0.0,0.0,0.0,0.0,0.0,0.0,0.0,0.0,0.0,0.0,0.0,0.0,0.0,0.0,0.0,0.0,0.0,0.0,0.0,0.0,0.0,0.0,0.0,0.0,-4.8867,-4.8867,-4.8867,-4.8867,-4.8867,-4.8867,-4.8867,-4.8867,-4.8867,-4.8867,-4.8867,-4.8867,-4.8867,-4.8867,-4.8867,-4.8867,-4.8867,-4.8867,-4.8867,-4.8867,-4.8867,-4.8867,-4.8867,-4.8867,-4.8867,-4.8867,-4.8867,-4.8867,0.0,0.0,0.0,0.0,0.0,0.0,0.0,0.0,0.0,0.0,-6.3079,-6.3079,0.0,0.0,0.0,0.0,0.0,0.0,0.0,0.0,0.0,-5.4904,-5.503,-5.5239,-5.539,-5.5867,-5.6143,-5.6219,-5.6219,-5.6219,-5.6219,-5.6219,-5.6219,-5.6219,-5.6219,-5.6219,-5.6219,-5.6219,-5.6495,-5.6972,-5.7549,-5.8127,-5.8654,-5.9207,-5.9433,-5.9483,-5.9483,-5.9483,-5.9483,-5.9483,-5.9483,0.0,0.0,0.0,0.0,0.0,0.0,0.0,0.0,0.0,0.0,0.0,0.0,0.0,0.0,0.0,0.0,0.0,0.0,0.0,0.0,0.0,0.0,0.0,0.0,0.0,0.0,0.0,0.0,0.0,0.0,0.0,0.0,0.0,0.0,0.0,0.0,0.0,-4.8867,-4.8867,-4.8867,-4.8867,-4.8867,-4.8867,-4.8867,-4.8867,-4.8867,-4.8867,-4.8867,-4.8867,-4.8867,-4.8867,-4.8867,-4.8867,-4.8867,-4.8867,-4.8867,-4.8867,-4.8867,-4.8867,-4.8867,-4.8867,-4.8867,-4.8867,-4.8867,-4.8867,0.0,0.0,0.0,0.0,0.0,0.0,0.0,0.0,0.0,0.0,0.0,-6.3079,0.0,0.0,0.0,0.0,0.0,0.0,0.0,0.0,0.0,-5.5085,-5.5265,-5.5541,-5.5842,-5.6093,-5.6219,-5.6219,-5.6219,-5.6219,-5.6219,-5.6219,-5.6219,-5.6219,-5.6219,-5.6219,-5.6219,-5.6545,-5.6821,-5.7123,-5.8001,-5.8504,-5.878,-5.9307,-5.9483,-5.9483,-5.9483,-5.9483,-5.9483,-5.9483,-5.9483,-5.9558,-5.9859,0.0,0.0,0.0,0.0,0.0,0.0,0.0,0.0,0.0,0.0,0.0,0.0,0.0,0.0,0.0,0.0,0.0,0.0,0.0,0.0,0.0,0.0,0.0,0.0,0.0,0.0,0.0,0.0,0.0,0.0,0.0,0.0,0.0,0.0,-4.8867,-4.8867,-4.8867,-4.8867,-4.8867,-4.8867,-4.8867,-4.8867,-4.8867,-4.8867,-4.8867,-4.8867,-4.8867,-4.8867,-4.8867,-4.8867,-4.8867,-4.8867,-4.8867,-4.8867,-4.8867,-4.8867,-4.8867,-4.8867,-4.8867,-4.8867,-4.8867,-4.8867,-4.8867,0.0,0.0,0.0,0.0,0.0,0.0,0.0,0.0,0.0,0.0,0.0,0.0,0.0,0.0,0.0,0.0,0.0,0.0,0.0,0.0,0.0,0.0,-5.5591,-5.5792,-5.6194,-5.6219,-5.6219,-5.6219,-5.6219,-5.6219,-5.6219,-5.6219,-5.6219,-5.6219,-5.6219,-5.6294,-5.6445,-5.6872,-5.7198,-5.7549,-5.8378,-5.8805,-5.8956,-5.9357,-5.9483,-5.9483,-5.9483,-5.9483,-5.9508,-5.9659,-5.9709,-5.9809,-6.0362,-6.0939,0.0,0.0,0.0,0.0,0.0,0.0,0.0,0.0,0.0,0.0,0.0,0.0,0.0,0.0,0.0,0.0,0.0,0.0,0.0,0.0,0.0,0.0,0.0,0.0,0.0,0.0,0.0,0.0,0.0,0.0,0.0,0.0,0.0,-4.8867,-4.8867,-4.8867,-4.8867,-4.8867,-4.8867,-4.8867,-4.8867,-4.8867,-4.8867,-4.8867,-4.8867,-4.8867,-4.8867,-4.8867,-4.8867,-4.8867,-4.8867,-4.8867,-4.8867,-4.8867,-4.8867,-4.8867,-4.8867,-4.8867,-4.8867,-4.8867,-4.8867,-4.8867,0.0,0.0,0.0,0.0,0.0,0.0,0.0,0.0,0.0,0.0,0.0,0.0,-6.06,-5.7633,-5.5683,-5.5683,-5.4585,-5.439,-5.5358,-5.5387,-5.5591,0.0,0.0,0.0,-5.6219,-5.6219,-5.6219,-5.6219,-5.6219,-5.6219,-5.6219,-5.6219,-5.6219,-5.6219,-5.6219,-5.6495,-5.6997,-5.7022,-5.765,-5.8629,-5.8704,-5.9006,-5.9458,-5.9483,-5.9483,-5.9483,-5.9483,-5.9483,-5.9583,-6.0111,-6.0286,-6.0387,-6.0964,-6.1517,-6.1969,0.0,0.0,0.0,0.0,0.0,0.0,0.0,0.0,0.0,0.0,0.0,0.0,0.0,0.0,0.0,0.0,0.0,0.0,0.0,0.0,0.0,0.0,0.0,0.0,0.0,0.0,0.0,0.0,0.0,0.0,0.0,0.0,-4.8867,-4.8867,-4.8867,-4.8867,-4.8867,-4.8867,-4.8867,-4.8867,-4.8867,-4.8867,-4.8867,-4.8867,-4.8867,-4.8867,-4.8867,-4.8867,-4.8867,-4.8867,-4.8867,-4.8867,-4.8867,-4.8867,-4.8867,-4.8867,-4.8867,-4.8867,-4.8867,-4.8867,-4.8867,0.0,0.0,0.0,0.0,0.0,0.0,0.0,0.0,0.0,0.0,0.0,0.0,0.0,-5.6828,-5.5419,-5.5419,-5.4697,-5.4587,-5.534,-5.5717,-5.6018,-5.6194,-5.6219,-5.6219,-5.6219,-5.6219,-5.6219,-5.6219,-5.6219,-5.6219,-5.6219,-5.6219,-5.6394,-5.6746,-5.6746,-5.6846,-5.7072,-5.7801,-5.8353,-5.8755,-5.9081,-5.9332,-5.9483,-5.9483,-5.9483,-5.9483,-5.9483,-5.9734,-6.006,-6.0261,-6.0563,-6.0964,-6.1542,-6.1843,-6.2069,-6.2421,0.0,0.0,0.0,0.0,0.0,0.0,0.0,0.0,0.0,0.0,0.0,0.0,0.0,0.0,0.0,0.0,0.0,0.0,0.0,0.0,0.0,0.0,0.0,0.0,0.0,0.0,0.0,0.0,0.0,0.0,0.0,0.0,-4.8867,-4.8867,-4.8867,-4.8867,-4.8867,-4.8867,-4.8867,-4.8867,-4.8867,-4.8867,-4.8867,-4.8867,-4.8867,-4.8867,-4.8867,-4.8867,-4.8867,-4.8867,-4.8867,-4.8867,-4.8867,-4.8867,-4.8867,-4.8867,-4.8867,-4.8867,-4.8867,-4.8867,0.0,0.0,0.0,0.0,0.0,0.0,0.0,0.0,-6.1851,-6.0661,0.0,0.0,0.0,0.0,-5.4697,-5.5086,-5.4962,-5.5089,-5.5616,-5.6018,-5.6219,-5.6219,-5.6219,-5.6219,-5.6219,-5.6219,-5.6219,-5.6219,-5.6219,-5.6219,-5.6219,-5.6394,-5.6671,-5.7047,-5.7424,-5.76,-5.765,-5.8403,-5.883,-5.9006,-5.9357,-5.9483,-5.9483,-5.9483,-5.9483,-5.9483,-5.9483,-5.9859,-6.0337,-6.0537,-6.0989,-6.1542,-6.2094,-6.2295,-6.2345,-6.2722,-6.2822,0.0,-6.2822,0.0,0.0,0.0,0.0,0.0,0.0,0.0,0.0,0.0,0.0,0.0,0.0,0.0,0.0,0.0,0.0,0.0,0.0,0.0,0.0,0.0,0.0,0.0,0.0,0.0,0.0,0.0,0.0,0.0,-4.8867,-4.8867,-4.8867,-4.8867,-4.8867,-4.8867,-4.8867,-4.8867,-4.8867,-4.8867,-4.8867,-4.8867,-4.8867,-4.8867,-4.8867,-4.8867,-4.8867,-4.8867,-4.8867,-4.8867,-4.8867,-4.8867,-4.8867,-4.8867,-4.8867,-4.8867,-4.8867,-4.8867,0.0,0.0,0.0,0.0,0.0,0.0,0.0,0.0,-6.0419,-6.0359,0.0,0.0,0.0,0.0,0.0,-5.4486,-5.5089,-5.5616,-5.6168,-5.6219,-5.6219,-5.6219,-5.6219,-5.6219,-5.6219,-5.6219,-5.6219,-5.6219,-5.6219,-5.6244,-5.6244,-5.6796,-5.7072,-5.7123,-5.8227,-5.873,-5.8755,-5.8755,-5.9031,-5.9483,-5.9483,-5.9483,-5.9483,-5.9483,-5.9483,-5.9483,-5.9508,-5.9885,-6.0437,-6.1014,-6.1567,-6.2119,-6.2647,-6.2822,-6.2822,-6.2822,-6.2822,-6.2822,0.0,0.0,0.0,0.0,0.0,0.0,0.0,0.0,0.0,0.0,0.0,0.0,0.0,0.0,0.0,0.0,0.0,0.0,0.0,0.0,0.0,0.0,0.0,0.0,0.0,0.0,0.0,0.0,0.0,-4.8867,-4.8867,-4.8867,-4.8867,-4.8867,-4.8867,-4.8867,-4.8867,-4.8867,-4.8867,-4.8867,-4.8867,-4.8867,-4.8867,-4.8867,-4.8867,-4.8867,-4.8867,-4.8867,-4.8867,-4.8867,-4.8867,-4.8867,-4.8867,-4.8867,-4.8867,-4.8867,-4.8867,-4.8867,0.0,0.0,0.0,0.0,0.0,0.0,-6.1198,-5.981,-5.823,0.0,0.0,0.0,-5.3742,-5.3507,-5.3934,-5.5064,-5.529,-5.5616,-5.6168,-5.6219,-5.6219,-5.6219,-5.6219,-5.6219,-5.6219,-5.6219,-5.6219,-5.6219,-5.662,-5.6796,-5.6821,-5.7399,-5.7876,-5.8278,-5.8579,-5.893,-5.9282,-5.9282,-5.9357,-5.9483,-5.9483,-5.9483,-5.9483,-5.9483,-5.9483,-5.9533,-5.996,-6.0462,-6.104,-6.1592,-6.2144,-6.2621,-6.2772,-6.2822,-6.2822,-6.2822,-6.2822,-6.2822,-6.2822,0.0,0.0,0.0,0.0,0.0,0.0,0.0,0.0,0.0,0.0,0.0,0.0,0.0,0.0,0.0,0.0,0.0,0.0,0.0,0.0,0.0,0.0,0.0,0.0,0.0,0.0,0.0,-4.8867,-4.8867,-4.8867,-4.8867,-4.8867,-4.8867,-4.8867,-4.8867,-4.8867,-4.8867,-4.8867,-4.8867,-4.8867,-4.8867,-4.8867,-4.8867,-4.8867,-4.8867,-4.8867,-4.8867,-4.8867,-4.8867,-4.8867,-4.8867,-4.8867,-4.8867,-4.8867,-4.8867,-4.8867,-4.8867,0.0,0.0,0.0,0.0,0.0,0.0,-5.9475,-5.804,-5.6569,0.0,0.0,0.0,-5.33,-5.3934,-5.4662,-5.534,-5.5591,-5.5867,-5.6194,-5.6219,-5.6219,-5.6219,-5.6219,-5.6219,-5.6219,-5.6219,-5.6319,-5.6545,-5.6872,-5.7148,-5.7399,-5.7976,-5.8403,-5.873,-5.8956,-5.9207,-5.9483,-5.9483,-5.9483,-5.9483,-5.9483,-5.9483,-5.9483,-5.9483,-5.9633,-5.9885,-6.0211,-6.0839,-6.1567,-6.1893,-6.237,-6.2822,-6.2822,-6.2822,-6.2822,-6.2822,-6.2822,-6.2822,-6.2822,-6.2822,-6.2552,0.0,0.0,0.0,0.0,-5.2276,0.0,0.0,0.0,0.0,0.0,0.0,0.0,0.0,0.0,0.0,0.0,0.0,0.0,0.0,0.0,0.0,0.0,0.0,0.0,-4.8867,-4.8867,-4.8867,-4.8867,-4.8867,-4.8867,-4.8867,-4.8867,-4.8867,-4.8867,-4.8867,-4.8867,-4.8867,-4.8867,-4.8867,-4.8867,-4.8867,-4.8867,-4.8867,-4.8867,-4.8867,-4.8867,-4.8867,-4.8867,-4.8867,-4.8867,-4.8867,-4.8867,-4.8867,-4.8867,-4.8755,0.0,0.0,0.0,0.0,0.0,0.0,-5.7687,-5.6271,-5.5115,0.0,-5.3861,-5.3206,-5.3733,-5.4762,-5.5415,-5.5465,-5.5917,-5.6219,-5.6219,-5.6219,-5.6219,-5.6219,-5.6219,-5.6219,-5.6219,-5.6269,-5.6545,-5.7022,-5.7173,-5.7474,-5.8001,-5.8554,-5.8805,-5.883,-5.9282,0.0,-5.9483,-5.9483,-5.9483,-5.9483,-5.9483,-5.9483,-5.9508,-5.9558,-5.9885,-6.0337,-6.0462,-6.1165,-6.2019,-6.2069,-6.2421,-6.2822,-6.2822,-6.2822,-6.2822,-6.2822,-6.2822,-6.2822,-6.2822,-6.2659,-6.1952,-5.9835,-5.8884,0.0,-5.3327,-5.2207,-5.1417,0.0,0.0,0.0,0.0,0.0,0.0,0.0,0.0,0.0,0.0,0.0,0.0,0.0,0.0,0.0,0.0,-4.8867,-4.8867,-4.8867,-4.8867,-4.8867,-4.8867,-4.8867,-4.8867,-4.8867,-4.8867,-4.8867,-4.8867,-4.8867,-4.8867,-4.8867,-4.8867,-4.8867,-4.8867,-4.8867,-4.8867,-4.8867,-4.8867,-4.8867,-4.8867,-4.8867,-4.8867,-4.8867,-4.8867,-4.8867,-4.8867,-4.8867,-4.8755,-4.8181,0.0,0.0,0.0,0.0,0.0,0.0,-5.5945,-5.45,-5.3359,-5.3359,-5.3488,-5.3758,-5.4336,-5.4988,-5.5566,-5.6018,-5.6143,-5.6219,-5.6219,-5.6219,-5.6219,-5.6219,-5.6219,-5.6219,-5.6219,-5.6646,-5.6922,-5.7022,-5.7951,-5.8453,-5.8579,-5.9106,-5.9332,-5.9357,-5.9458,-5.9483,-5.9483,0.0,0.0,-5.9483,-5.9483,-5.9483,-5.9533,-5.9985,-6.0236,-6.0437,-6.1341,-6.1818,-6.2069,-6.2521,-6.2747,-6.2822,-6.2822,-6.2822,-6.2822,-6.2822,-6.2822,-6.2822,-6.2822,-6.1432,-5.9835,-5.9391,-5.6528,0.0,-5.2634,-5.0964,-4.9472,0.0,0.0,0.0,0.0,0.0,0.0,0.0,0.0,0.0,0.0,0.0,0.0,0.0,0.0,0.0,0.0,-4.8867,-4.8867,-4.8867,-4.8867,-4.8867,-4.8867,-4.8867,-4.8867,-4.8867,-4.8867,-4.8867,-4.8867,-4.8867,-4.8867,-4.8867,-4.8867,-4.8867,-4.8867,-4.8867,-4.8867,-4.8867,-4.8867,-4.8867,-4.8867,-4.8867,-4.8867,-4.8867,-4.8867,-4.8867,-4.8867,-4.8867,-4.7586,-4.5661,0.0,0.0,0.0,0.0,0.0,0.0,0.0,-5.3427,-5.2929,-5.2929,-5.3632,-5.4336,-5.4913,-5.5465,-5.5917,-5.6194,-5.6219,-5.6219,-5.6219,-5.6219,-5.6219,-5.6219,-5.647,-5.662,-5.662,-5.7173,-5.76,-5.7876,-5.8453,-5.8855,-5.9106,-5.9382,-5.9483,-5.9483,-5.9483,-5.9483,-5.9483,0.0,-5.9483,-5.9483,-5.9483,0.0,-5.9935,-6.0211,-6.0663,-6.124,-6.1793,-6.2169,-6.2446,-6.2747,-6.2822,-6.2822,-6.2822,-6.2822,-6.2822,-6.2822,-6.2822,-6.2822,-6.2822,-6.1076,-5.9053,-5.784,-5.4983,0.0,0.0,-4.9748,0.0,0.0,0.0,0.0,0.0,0.0,0.0,0.0,0.0,0.0,0.0,0.0,0.0,0.0,0.0,0.0,0.0,-4.8867,-4.8867,-4.8867,-4.8867,-4.8867,-4.8867,-4.8867,-4.8867,-4.8867,-4.8867,-4.8867,-4.8867,-4.8867,-4.8867,-4.8867,-4.8867,-4.8867,-4.8867,-4.8867,-4.8867,-4.8867,-4.8867,-4.8867,-4.8867,-4.8867,-4.8867,-4.8867,-4.8867,-4.8867,-4.8755,-4.74,-4.6149,-4.4589,-5.7432,-5.6141,0.0,0.0,0.0,0.0,0.0,-5.2929,-5.2955,-5.3055,-5.4034,-5.4888,-5.534,-5.5892,-5.6219,-5.6219,-5.6219,-5.6219,-5.6219,-5.6219,-5.6219,-5.6219,-5.6746,-5.7022,-5.7022,-5.77,-5.8278,-5.873,-5.883,-5.9081,-5.9483,-5.9483,-5.9483,-5.9483,-5.9483,-5.9483,-5.9483,0.0,0.0,-5.9508,0.0,-5.991,-6.0337,-6.0563,-6.1215,-6.2019,-6.2119,-6.2446,-6.2822,-6.2822,-6.2822,-6.2822,-6.2822,-6.2822,-6.2822,-6.2822,-6.2822,-6.2822,-6.2822,-6.1076,-5.8715,-5.6377,-5.4125,-5.1757,0.0,0.0,0.0,0.0,0.0,0.0,0.0,0.0,0.0,0.0,0.0,0.0,0.0,0.0,0.0,0.0,0.0,0.0,0.0,-4.8808,-4.8867,-4.8867,-4.8867,-4.8867,-4.8867,-4.8867,-4.8867,-4.8867,-4.8867,-4.8867,-4.8867,-4.8867,-4.8867,-4.8867,-4.8867,-4.8867,-4.8867,-4.8867,-4.8867,-4.8867,-4.8867,-4.8867,-4.8867,-4.8867,-4.8867,-4.8867,-4.8867,-4.8867,-4.857,-4.5943,-4.4701,-4.3547,-5.5419,-5.4366,-5.3179,0.0,0.0,0.0,0.0,0.0,-5.308,-5.3557,-5.4587,-5.5315,-5.539,-5.5892,-5.6219,-5.6219,-5.6219,-5.6219,-5.6219,-5.6219,-5.6219,-5.6219,-5.6746,-5.7022,-5.7022,-5.8077,-5.8654,-5.873,-5.9182,-5.9433,-5.9483,-5.9483,-5.9483,-5.9483,-5.9483,-5.9483,-5.9483,0.0,-5.9483,0.0,-6.0035,-6.0261,0.0,-6.1441,-6.1893,-6.2069,-6.2546,-6.2772,-6.2822,0.0,-6.2822,-6.2822,0.0,-6.2822,-6.2822,-6.2822,0.0,0.0,0.0,0.0,0.0,0.0,-5.4125,-5.1757,0.0,0.0,-4.8867,-4.8867,0.0,0.0,0.0,0.0,0.0,0.0,0.0,0.0,0.0,0.0,0.0,0.0,0.0,0.0,0.0,0.0,-4.8867,-4.8867,-4.8867,-4.8867,-4.8867,-4.8867,-4.8867,-4.8867,-4.8867,-4.8867,-4.8867,-4.8867,-4.8867,-4.8867,-4.8867,-4.8867,-4.8867,-4.8867,-4.8867,-4.8867,-4.8867,-4.8867,-4.8867,-4.8867,-4.8867,-4.8867,-4.8867,-4.8867,-4.857,-4.5943,-4.3547,-4.1156,-5.381,-5.3359,-5.2929,0.0,0.0,0.0,0.0,0.0,-5.3582,-5.4135,-5.4888,-5.5516,-5.5842,-5.6068,-5.6219,-5.6219,-5.6219,-5.6219,-5.6219,-5.652,-5.6696,-5.6696,-5.7549,-5.8027,-5.8027,-5.878,-5.9156,-5.9156,-5.9382,-5.9483,-5.9483,-5.9483,-5.9483,-5.9483,-5.9483,0.0,-5.9508,0.0,-5.996,0.0,0.0,0.0,0.0,-6.1818,-6.2195,-6.2521,-6.2747,-6.2822,-6.2822,0.0,-6.2822,0.0,0.0,0.0,0.0,-6.2822,0.0,0.0,0.0,0.0,0.0,0.0,0.0,0.0,-4.9124,-4.8867,-4.8867,0.0,0.0,0.0,0.0,0.0,0.0,0.0,0.0,0.0,0.0,0.0,0.0,0.0,0.0,0.0,0.0,0.0,0.0,0.0,0.0,-4.8594,-4.8848,-4.8867,-4.8867,-4.8867,-4.8867,-4.8867,-4.8867,-4.8867,-4.8867,-4.8867,-4.8867,-4.8867,-4.8867,-4.8867,-4.8867,-4.8867,-4.8867,-4.8867,-4.8867,-4.8867,-4.8867,-4.8867,-4.8867,-4.8867,-4.8366,-4.4305,-4.2099,-4.0577,-5.2929,-5.2929,-5.2929,-5.2929,0.0,0.0,0.0,0.0,-5.4135,-5.4712,-5.5265,-5.5767,-5.6168,-5.6219,-5.6219,-5.6219,-5.6219,-5.6219,-5.6219,-5.6721,-5.7022,-5.7022,-5.8127,-5.873,-5.873,-5.9232,-5.9483,-5.9483,-5.9483,-5.9483,-5.9483,-5.9483,-5.9483,-5.9483,-5.9483,-5.9483,-5.9533,0.0,-6.0311,-6.0412,-6.1542,-6.2094,-6.222,-6.222,-6.2471,-6.2822,-6.2822,-6.2822,-6.2822,-6.2822,-6.2822,0.0,-6.2822,0.0,0.0,0.0,0.0,0.0,-5.9919,0.0,0.0,0.0,0.0,0.0,0.0,0.0,0.0,0.0,0.0,0.0,0.0,0.0,0.0,0.0,0.0,0.0,0.0,0.0,0.0,0.0,0.0,0.0,0.0,0.0,0.0,0.0,-4.8223,-4.8164,-4.8496,-4.8613,-4.8672,-4.8672,-4.8789,-4.8867,-4.8867,-4.8867,-4.8867,-4.8867,-4.8867,-4.8867,-4.8867,-4.8867,-4.8867,-4.8867,-4.8867,-4.8867,-4.8867,-4.8867,-4.8867,-4.8867,-4.8867,-4.8478,-4.7307,-4.2881,-4.1235,-4.0464,-5.2929,-5.2929,-5.2929,-5.2929,0.0,0.0,0.0,0.0,-5.4737,-5.529,-5.5842,-5.6194,-5.6219,-5.6219,-5.6219,-5.6219,-5.6219,-5.6219,-5.6219,-5.6721,-5.7022,-5.7022,-5.8127,-5.873,-5.873,-5.9232,-5.9483,-5.9483,-5.9483,-5.9483,-5.9483,-5.9483,-5.9483,-5.9483,-5.9483,-5.9483,-5.9533,-6.0085,-6.0311,-6.0412,-6.1542,-6.232,-6.2797,0.0,-6.2822,-6.2822,-6.2822,0.0,0.0,-6.2822,-6.2822,0.0,0.0,0.0,0.0,0.0,0.0,0.0,0.0,0.0,0.0,-5.3504,0.0,0.0,0.0,0.0,-4.8867,0.0,0.0,0.0,0.0,0.0,0.0,-4.5371,0.0,0.0,0.0,0.0,0.0,0.0,0.0,0.0,0.0,0.0,0.0,-4.7617,-4.7617,-4.7617,-4.7617,-4.8008,-4.8223,-4.8223,-4.8633,-4.8867,-4.8867,-4.8867,-4.8867,-4.8867,-4.8867,-4.8867,-4.8867,-4.8867,-4.8867,-4.8867,-4.8867,-4.8867,-4.8867,-4.8867,-4.8867,-4.8867,-4.8867,-4.7326,-4.4832,-4.2212,-4.1235,-4.0464,-5.2929,-5.2929,-5.2929,-5.2929,-5.2929,0.0,0.0,-5.4185,0.0,0.0,-5.5867,-5.6219,-5.6219,-5.6219,-5.6219,-5.6219,-5.6219,-5.6369,-5.6721,-5.7298,-5.7775,-5.8127,-5.8855,-5.9232,-5.9232,-5.9408,-5.9483,-5.9483,-5.9483,-5.9483,0.0,-5.9483,-5.9483,-5.9483,0.0,-5.9483,0.0,0.0,0.0,0.0,0.0,-6.2672,-6.2822,0.0,0.0,-6.2822,-6.2822,-6.2822,0.0,-6.2822,-6.2822,-6.2822,-6.2822,-6.2822,-6.2822,-6.2822,-6.168,0.0,0.0,0.0,-5.4036,-5.0873,0.0,0.0,0.0,0.0,0.0,0.0,0.0,0.0,0.0,0.0,0.0,0.0,0.0,0.0,0.0,0.0,0.0,0.0,0.0,0.0,0.0,0.0,0.0,-4.7558,-4.7305,-4.7285,0.0,-4.7715,-4.7793,-4.7793,-4.793,-4.8144,-4.8418,-4.8418,-4.8574,-4.8867,-4.8867,-4.8867,-4.8867,-4.8867,-4.8867,-4.8867,-4.8867,-4.8867,-4.8867,-4.8867,-4.8867,-4.8755,-4.7008,-4.5755,-4.4701,-4.2099,-4.0078,-3.8148,-5.2929,-5.2929,-5.2929,-5.2929,0.0,0.0,0.0,0.0,0.0,0.0,-5.5993,0.0,-5.6219,-5.6219,-5.6219,-5.6219,-5.6219,-5.6445,-5.6923,-5.7575,-5.8152,-5.8704,-5.9207,-5.9483,-5.9483,-5.9483,-5.9483,-5.9483,-5.9483,-5.9483,0.0,0.0,-5.9483,-5.9508,0.0,-5.9784,-5.9859,0.0,-6.1466,0.0,0.0,-6.2822,0.0,0.0,-6.2822,-6.2822,0.0,-6.2822,-6.2822,-6.2822,-6.2822,-6.2822,-6.2822,-6.2822,-6.2659,-6.1787,-6.0445,-5.863,-5.5508,-5.3526,0.0,-4.9472,-4.8867,0.0,-4.8867,0.0,-4.8867,0.0,0.0,0.0,0.0,0.0,0.0,0.0,0.0,0.0,0.0,-4.6308,0.0,0.0,0.0,0.0,0.0,0.0,-4.6816,-4.7109,-4.6875,-4.6836,0.0,0.0,-4.7344,-4.7344,-4.75,-4.7715,-4.7969,-4.7988,-4.8203,-4.8633,-4.8633,-4.8711,-4.8867,-4.8867,-4.8867,-4.8867,-4.8867,-4.8867,-4.8867,-4.8867,-4.8366,-4.7307,-4.5661,-4.3927,-4.2099,-4.0464,-3.8148,-3.5635,0.0,-5.2929,0.0,0.0,-5.3381,0.0,0.0,0.0,-5.5591,0.0,-5.6219,-5.6219,-5.6219,-5.6219,-5.6219,-5.6219,-5.6244,-5.6495,-5.7047,-5.7625,-5.8177,-5.873,-5.9232,-5.9483,-5.9483,-5.9483,-5.9483,-5.9483,-5.9483,-5.9483,0.0,0.0,0.0,0.0,-6.006,0.0,-6.0387,-6.1517,-6.2019,-6.2094,-6.2621,-6.2822,-6.2822,-6.2822,-6.2822,-6.2822,-6.2822,-6.2822,-6.2822,-6.2822,-6.2822,-6.2822,-6.2822,-6.2741,-6.2224,-5.9919,-5.9138,-5.8011,-5.3593,-5.2297,-5.1667,-4.9472,0.0,0.0,0.0,0.0,-4.8867,0.0,0.0,0.0,0.0,0.0,0.0,0.0,0.0,0.0,0.0,0.0,0.0,0.0,0.0,0.0,0.0,-4.6308,-4.6308,-4.6308,-4.6308,0.0,0.0,0.0,-4.6894,-4.6894,-4.7305,-4.7519,-4.7558,-4.7558,-4.7754,-4.8183,-4.8203,-4.8418,-4.8828,-4.8848,-4.8867,-4.8867,-4.8867,-4.8867,-4.8848,-4.8755,-4.7214,-4.4984,-4.4701,-4.1524,-3.7085,-3.7085,-3.555,-3.3414,-5.2929,-5.2929,-5.3055,0.0,-5.3607,-5.3909,0.0,0.0,0.0,0.0,-5.6219,-5.6219,-5.6219,-5.6219,-5.6219,-5.6219,-5.6595,-5.7072,-5.765,-5.8202,-5.8755,-5.9282,-5.9433,-5.9483,-5.9483,-5.9483,-5.9483,-5.9483,-5.9483,0.0,-5.9483,0.0,0.0,0.0,0.0,0.0,-6.0387,-6.1517,-6.2245,-6.2621,-6.2772,-6.2822,0.0,0.0,-6.2822,-6.2822,-6.2822,-6.2822,-6.2822,-6.2822,-6.2822,-6.2822,-6.2822,-6.1598,-6.0111,-5.9475,-5.6873,-5.3948,-5.2724,-5.1145,-4.9656,-4.9032,-4.8867,-4.8867,0.0,0.0,0.0,0.0,0.0,0.0,0.0,0.0,0.0,0.0,0.0,0.0,0.0,0.0,0.0,-4.6308,0.0,0.0,0.0,-4.6308,-4.6308,-4.6308,-4.6308,0.0,0.0,0.0,0.0,-4.6465,-4.6582,-4.6777,-4.709,-4.709,-4.7305,-4.7754,-4.8066,-4.8262,-4.8379,-4.8711,-4.8867,-4.8867,-4.8867,-4.8867,-4.8755,-4.6822,-4.5567,-4.4589,-4.0754,-3.7282,-3.4386,-3.4386,-3.3987,-3.3414,-5.2929,0.0,0.0,-5.3658,0.0,0.0,-5.4888,-5.539,0.0,-5.6168,-5.6219,0.0,-5.6219,-5.6219,-5.6319,-5.6545,-5.6846,-5.7374,-5.8202,-5.8554,-5.8956,-5.9483,-5.9483,-5.9483,-5.9483,-5.9483,-5.9483,-5.9483,-5.9483,0.0,-5.9483,0.0,0.0,0.0,0.0,-6.0839,0.0,-6.1994,-6.2546,-6.2822,-6.2822,0.0,0.0,-6.2822,-6.2822,-6.2822,-6.2822,-6.2822,-6.2822,-6.2822,-6.2822,-6.2822,-6.2822,-6.1159,-5.9138,-5.8096,-5.5246,-5.2207,-5.1145,-4.9911,-4.8867,-4.8867,-4.8867,-4.8867,-4.8867,-4.8867,-4.8867,0.0,-4.8867,-4.8789,0.0,0.0,0.0,0.0,0.0,0.0,0.0,0.0,0.0,0.0,-4.6308,0.0,0.0,0.0,-4.6308,0.0,0.0,0.0,0.0,0.0,0.0,-4.6308,-4.6308,-4.6426,-4.666,-4.666,-4.6875,-4.7305,-4.7539,-4.7851,-4.8223,-4.8457,-4.8672,-4.8867,-4.8867,-4.8867,-4.8663,-4.6036,-4.4323,-4.2785,-3.7576,-3.467,-3.3414,-3.3414,-3.3414,-3.3414,0.0,0.0,0.0,0.0,0.0,0.0,0.0,-5.5917,0.0,-5.6219,0.0,-5.6219,-5.6219,-5.6219,-5.6445,-5.6972,-5.7097,-5.76,-5.8654,-5.878,-5.9031,-5.9483,-5.9483,-5.9483,-5.9483,-5.9483,-5.9483,-5.9483,-5.9483,0.0,0.0,0.0,0.0,0.0,0.0,0.0,0.0,-6.2621,-6.2822,0.0,-6.2822,-6.2822,-6.2822,-6.2822,-6.2822,-6.2822,-6.2822,-6.2822,-6.2822,-6.2822,-6.2822,-6.2741,-6.247,-6.0719,-5.8351,-5.603,-5.3771,-5.1507,-4.9472,-4.8867,-4.8867,-4.8867,-4.8867,-4.8867,-4.8867,-4.8867,-4.8867,-4.8867,-4.8867,-4.8867,0.0,0.0,0.0,0.0,0.0,0.0,0.0,0.0,0.0,0.0,0.0,0.0,0.0,0.0,0.0,0.0,0.0,0.0,0.0,0.0,0.0,-4.6308,-4.6308,-4.6308,-4.6308,0.0,-4.6484,-4.6855,-4.6894,-4.7324,-4.8047,-4.8105,-4.8359,-4.8769,-4.8769,-4.8604,-4.8181,-4.5567,-4.2768,-3.9609,-3.5153,-3.3414,-3.3414,-3.3414,-3.3414,-3.3414,0.0,0.0,0.0,0.0,0.0,-5.5541,-5.5993,-5.6143,-5.6219,-5.6219,-5.6219,-5.6219,-5.6219,-5.6219,-5.6445,-5.6972,-5.7474,0.0,0.0,0.0,-5.9408,-5.9483,-5.9483,-5.9483,-5.9483,-5.9483,-5.9483,-5.9483,-5.9483,0.0,0.0,0.0,0.0,0.0,0.0,0.0,-6.2697,-6.2797,0.0,-6.2822,-6.2822,-6.2822,-6.2822,-6.2822,-6.2822,-6.2822,-6.2822,-6.2822,-6.2822,-6.2822,-6.2822,-6.247,-6.0528,-5.8266,-5.5943,-5.3682,-5.1326,-4.938,-4.9032,-4.8867,-4.8867,-4.8867,-4.8867,-4.8867,-4.8867,-4.8867,-4.8867,-4.8867,-4.8867,-4.8867,-4.8867,0.0,0.0,0.0,0.0,0.0,0.0,0.0,0.0,0.0,0.0,-4.6308,0.0,0.0,0.0,0.0,0.0,0.0,0.0,0.0,0.0,0.0,-4.6308,0.0,0.0,0.0,-4.6348,-4.6426,-4.6758,-4.7012,-4.7168,-4.7519,-4.793,-4.832,-4.832,-4.7373,-4.5473,-4.2959,-3.9026,-3.467,-3.37,-3.3414,-3.3414,-3.3414,-3.3414,-3.3414,0.0,0.0,0.0,0.0,0.0,0.0,0.0,-5.6219,0.0,-5.6219,-5.6219,-5.6219,-5.6219,-5.647,-5.6872,-5.7424,-5.8001,-5.8554,-5.9081,-5.9357,-5.9483,-5.9483,-5.9483,-5.9483,-5.9483,-5.9483,-5.9483,-5.9483,-5.9483,0.0,0.0,0.0,0.0,0.0,0.0,-6.2345,0.0,0.0,0.0,-6.2822,-6.2822,-6.2822,-6.2822,-6.2822,-6.2822,-6.2822,-6.2822,-6.2822,-6.2822,-6.2822,-6.2035,-6.0803,-5.9667,-5.6873,-5.3859,-5.2724,-5.0712,-4.8867,-4.8867,-4.8867,-4.8867,-4.8867,-4.8867,-4.8867,-4.8867,-4.8867,-4.8867,-4.8867,-4.8867,-4.8867,-4.8867,-4.834,0.0,0.0,0.0,0.0,0.0,0.0,-4.6308,0.0,0.0,0.0,0.0,0.0,0.0,0.0,0.0,0.0,0.0,0.0,0.0,0.0,0.0,0.0,0.0,0.0,0.0,-4.6308,-4.6504,-4.6719,-4.6933,-4.7148,-4.748,-4.7781,-4.6542,-4.5427,-4.4092,-4.0293,-3.6498,-3.2959,-3.2959,-3.2959,-3.2959,-3.2959,-3.2959,-3.3,0.0,-5.426,0.0,0.0,-5.5842,0.0,-5.6219,-5.6219,-5.6219,-5.6219,-5.6219,-5.6219,-5.6219,-5.6696,-5.7273,-5.7851,-5.8403,-5.8956,-5.9458,-5.9483,-5.9483,-5.9483,-5.9483,-5.9483,-5.9483,-5.9483,-5.9483,-5.9483,-5.9483,0.0,0.0,0.0,0.0,0.0,0.0,0.0,0.0,0.0,-6.2822,-6.2822,-6.2822,-6.2822,-6.2822,-6.2822,-6.2822,-6.2822,-6.2822,-6.2822,-6.2741,-6.2199,-6.0803,-5.9222,-5.8715,-5.5747,-5.2297,-5.1757,-5.0368,-4.8867,-4.8867,-4.8867,-4.8867,-4.8867,-4.8867,-4.8867,-4.8867,-4.8867,-4.8867,-4.8867,-4.8867,-4.8867,-4.8867,-4.8437,0.0,0.0,0.0,0.0,0.0,0.0,0.0,0.0,0.0,0.0,-4.6308,0.0,0.0,0.0,0.0,0.0,0.0,0.0,0.0,0.0,0.0,-4.6308,-4.6308,0.0,-4.6308,-4.6308,-4.6308,-4.6484,-4.6797,-4.6797,-4.7031,-4.7352,-4.4799,-4.3171,-4.1931,-3.7423,-3.4432,-3.2643,-3.2643,-3.2643,-3.2643,-3.2643,-3.2643,-3.271,0.0,0.0,0.0,0.0,0.0,0.0,-5.6219,-5.6219,-5.6219,-5.6219,-5.6219,-5.6219,-5.6219,-5.6696,-5.7273,-5.7851,-5.8403,-5.8956,-5.9458,-5.9483,-5.9483,-5.9483,-5.9483,-5.9483,-5.9483,-5.9483,-5.9483,-5.9483,-5.9483,-5.9006,0.0,0.0,0.0,0.0,0.0,0.0,0.0,-6.2822,-6.2822,-6.2822,-6.2822,-6.2822,-6.2822,-6.2822,-6.2822,-6.2822,-6.2822,-6.2822,-6.247,-6.0362,-5.9475,-5.8969,-5.6809,-5.4368,-5.1937,-4.9819,-4.9032,-4.8867,-4.8867,-4.8867,-4.8867,-4.8867,-4.8867,-4.8867,-4.8867,-4.8867,-4.8867,-4.8867,-4.8867,-4.8867,-4.8867,-4.8183,-4.7617,0.0,0.0,0.0,0.0,0.0,-4.6308,-4.6308,0.0,0.0,0.0,0.0,0.0,0.0,0.0,0.0,0.0,0.0,0.0,-4.6308,0.0,-4.6308,-4.6308,-4.6308,-4.6308,-4.6308,-4.6308,-4.6328,-4.6367,-4.6367,-4.6601,-4.6814,-4.4392,-4.0974,-3.6868,-3.4059,-3.2838,-3.2643,-3.2643,-3.2643,-3.2643,-3.2643,-3.2643,-3.2656,0.0,0.0,0.0,0.0,0.0,0.0,0.0,-5.6219,-5.6219,-5.6219,-5.6219,-5.6344,-5.6671,-5.7223,-5.7775,-5.8353,-5.888,-5.9282,-5.9483,-5.9483,-5.9483,-5.9483,-5.9483,-5.9483,-5.9483,-5.9483,-5.9483,0.0,0.0,0.0,0.0,0.0,0.0,0.0,0.0,-6.2521,-6.2822,-6.2822,-6.2822,-6.2822,-6.2822,-6.2822,-6.2822,-6.2822,-6.2822,-6.2822,-6.2822,-6.2822,-6.247,-6.0111,-5.8375,-5.6809,-5.4456,-5.2186,-5.0094,-4.9216,-4.8867,-4.8867,-4.8867,-4.8867,-4.8867,-4.8867,-4.8867,-4.8867,-4.8867,-4.8867,-4.8867,-4.8867,-4.8867,-4.8769,-4.8516,-4.8183,-4.7793,0.0,0.0,0.0,0.0,0.0,0.0,-4.6308,0.0,-4.6308,0.0,0.0,0.0,0.0,0.0,0.0,0.0,0.0,0.0,-4.6308,0.0,-4.6308,-4.6308,-4.6308,-4.6308,-4.6308,-4.6308,-4.6308,-4.6308,-4.6308,-4.4744,-4.2046,-3.9557,-3.6621,-3.3499,-3.249,-3.2024,-3.2024,-3.2024,-3.2024,-3.2024,-3.2024,-3.2024,-3.2024,-5.4687,0.0,-5.5742,0.0,-5.6219,-5.6219,-5.6219,-5.6219,-5.6219,-5.6219,-5.6219,-5.642,-5.6972,-5.7549,-5.8127,-5.8679,-5.9207,-5.9483,-5.9483,-5.9483,-5.9483,-5.9483,-5.9483,0.0,-5.9483,-5.9483,-5.9483,-5.9483,-5.9483,0.0,0.0,0.0,0.0,0.0,-6.1994,-6.232,-6.2822,-6.2822,-6.2822,-6.2822,-6.2822,-6.2822,-6.2822,-6.2822,-6.2822,-6.2822,-6.2822,-6.2388,-6.1432,-5.9077,-5.6723,-5.4566,-5.2902,-5.0803,-4.8867,-4.8867,-4.8867,-4.8867,-4.8867,-4.8867,-4.8867,-4.8867,-4.8867,-4.8867,-4.8867,-4.8867,-4.8867,-4.8867,-4.8867,-4.873,-4.8281,-4.8105,-4.7773,-4.7051,0.0,0.0,0.0,-4.6308,0.0,0.0,-4.6308,-4.6308,-4.6308,0.0,0.0,0.0,0.0,0.0,0.0,0.0,0.0,0.0,0.0,0.0,0.0,-4.6308,-4.6308,-4.6308,-4.6308,-4.6308,-4.6308,-4.5568,-4.255,-3.7787,-3.6066,-3.3966,-3.1664,-3.1664,-3.1664,-3.1664,-3.1664,-3.1664,-3.1664,-3.1664,-3.1664,-3.1664,-5.5265,-5.5817,-5.6194,-5.6219,-5.6219,-5.6219,-5.6219,-5.6219,-5.6219,-5.6219,-5.6219,-5.642,-5.6972,-5.7549,-5.8127,-5.8679,-5.9207,-5.9483,-5.9483,-5.9483,-5.9483,0.0,0.0,-5.9483,-5.9483,-5.9483,-5.9483,-5.9483,0.0,0.0,-5.7926,0.0,-5.991,-6.1994,-6.1994,-6.232,-6.2822,-6.2822,-6.2822,-6.2822,-6.2822,-6.2822,-6.2822,-6.2822,-6.2822,-6.2822,-6.2822,-6.1325,-5.8969,-5.6746,-5.4389,-5.2455,-5.2366,-5.0803,-4.8867,-4.8867,-4.8867,-4.8867,-4.8867,-4.8867,-4.8867,-4.8867,-4.8867,-4.8867,-4.8867,-4.8867,-4.8867,-4.8867,-4.8867,-4.873,-4.8281,-4.7871,-4.7441,-4.6992,0.0,0.0,0.0,0.0,0.0,-4.6308,-4.6308,-4.6308,-4.6308,0.0,0.0,0.0,0.0,0.0,0.0,0.0,0.0,-4.6308,-4.6308,0.0,-4.6308,-4.6308,-4.6308,-4.6308,-4.6308,-4.6308,-4.6221,-4.3727,-3.9977,-3.5323,-3.5323,-3.3966,-3.1664,-3.1664,-3.1664,-3.1664,-3.1664,-3.1664,-3.1664,-3.1664,-3.1664,-3.1664,-5.529,-5.5842,-5.6219,-5.6219,-5.6219,-5.6219,-5.6219,-5.6219,-5.6219,-5.6219,-5.6545,-5.6997,-5.7549,-5.7775,-5.8252,0.0,-5.9408,-5.9483,0.0,-5.9483,-5.9483,-5.9483,-5.9483,-5.9483,-5.9483,-5.9483,-5.9483,-5.9483,0.0,0.0,0.0,-5.9156,-5.9834,-6.0864,-6.1266,-6.1743,-6.2295,-6.2672,-6.2822,-6.2822,-6.2822,-6.2822,-6.2822,-6.2822,-6.2822,-6.2577,-6.0969,-5.9919,-5.8715,-5.4807,-5.2992,-5.2117,-5.053,-4.9472,-4.8867,-4.8867,-4.8867,-4.8867,-4.8867,-4.8867,-4.8867,-4.8867,-4.8867,-4.8867,-4.8867,-4.8867,-4.8867,-4.8867,-4.8613,-4.8281,-4.7851,-4.7422,-4.6992,-4.6562,-4.6387,0.0,0.0,0.0,-4.6308,-4.6308,-4.6308,-4.6308,0.0,-4.6308,0.0,0.0,0.0,0.0,0.0,0.0,0.0,0.0,-4.6308,0.0,-4.6308,-4.6308,-4.6308,-4.6308,-4.6308,-4.5392,-4.3727,-4.1259,-3.8337,-3.523,-3.3591,-3.2408,-3.1664,-3.1664,-3.1664,-3.1664,-3.1664,-3.1664,-3.1664,-3.1664,-3.1664,-3.1664,-5.5591,-5.5968,-5.6219,-5.6219,-5.6219,-5.6219,-5.6219,-5.6219,-5.6219,-5.6219,-5.6696,-5.7248,-5.7826,-5.8077,0.0,-5.9408,-5.9483,-5.9483,-5.9483,-5.9483,-5.9483,-5.9483,-5.9483,-5.9483,-5.9483,-5.9483,0.0,-5.9483,-5.9483,-5.9483,-5.9483,-5.9483,-5.9784,-6.0337,-6.0688,-6.1165,-6.1743,-6.2295,-6.2521,-6.2546,-6.2747,-6.2822,-6.2822,-6.2822,-6.2224,-6.1325,-5.9835,-5.8181,-5.6268,-5.3327,-5.1847,-5.0803,-4.938,-4.8867,-4.8867,-4.8867,-4.8867,-4.8867,-4.8867,-4.8867,-4.8867,-4.8867,-4.8867,-4.8867,-4.8867,-4.8867,-4.8808,-4.8652,-4.8398,-4.8027,-4.7441,-4.7109,-4.6797,-4.6367,-4.6308,-4.6308,-4.6308,0.0,0.0,0.0,0.0,0.0,0.0,-4.6308,-4.6308,0.0,0.0,0.0,0.0,0.0,0.0,-4.6308,-4.6308,0.0,-4.6308,-4.6308,-4.6308,-4.6308,-4.6308,-4.4561,-4.1169,-3.9721,-3.716,-3.3873,-3.2313,-3.1664,-3.1664,-3.1664,-3.1664,-3.1664,-3.1664,-3.1664,-3.1664,-3.1664,-3.1664,-3.1664,-5.6093,-5.6219,0.0,0.0,-5.6219,0.0,-5.6219,-5.6219,-5.6219,-5.6219,-5.6721,-5.7298,-5.7851,-5.8428,-5.8981,-5.9458,0.0,0.0,0.0,-5.9483,-5.9483,-5.9483,-5.9483,-5.9483,-5.9483,-5.9483,-5.9483,-5.9483,-5.9483,-5.9483,-5.9483,-5.9483,-5.9759,-6.0261,-6.0311,-6.0613,-6.1165,-6.1718,-6.1943,-6.1994,-6.2496,-6.2722,-6.2722,-6.2534,-6.112,-5.9188,-5.8851,-5.6005,-5.2282,-5.2102,-5.061,-4.8769,-4.8769,-4.8769,-4.8789,-4.8848,-4.8867,-4.8867,-4.8867,-4.8867,-4.8867,-4.8867,-4.8867,-4.8848,-4.8828,-4.8808,-4.8691,-4.8262,-4.8144,-4.7871,-4.707,-4.6914,-4.6758,-4.6367,-4.6308,-4.6308,-4.6308,0.0,0.0,0.0,0.0,0.0,0.0,-4.6308,-4.6308,0.0,0.0,0.0,0.0,0.0,-4.6308,-4.6308,-4.6308,-4.6308,-4.6308,-4.6308,-4.6308,-4.6308,-4.6114,-4.3549,-3.8977,-3.8794,-3.6159,-3.1664,-3.1664,-3.1664,-3.1664,-3.1664,-3.1664,-3.1664,-3.1664,-3.1664,-3.1664,-3.1664,-3.1664,-3.1664,0.0,0.0,-5.6219,-5.6219,-5.6219,-5.6219,-5.6219,-5.6219,-5.6219,-5.6219,-5.7072,-5.775,-5.7876,-5.8755,-5.9357,-5.9483,-5.9483,-5.9483,-5.9483,-5.9483,-5.9483,-5.9483,-5.9483,-5.9483,-5.9483,-5.9483,-5.9483,-5.9483,-5.9483,-5.9483,-5.9483,-5.9483,-5.9558,-5.9709,-6.0136,-6.0387,-6.0563,-6.114,-6.1391,-6.1391,-6.1517,-6.1567,-6.1407,-5.9691,-5.8742,-5.7787,-5.4309,-5.2345,-5.1161,-4.936,-4.8413,-4.7891,-4.7891,-4.7891,-4.8008,-4.8672,-4.8867,-4.8867,-4.8867,-4.8867,-4.8867,-4.8867,-4.8867,-4.8769,-4.8437,-4.8359,-4.8242,-4.7812,-4.7461,-4.7168,-4.6973,-4.666,-4.6426,-4.6328,-4.6308,-4.6308,-4.6308,-4.6308,0.0,0.0,-4.6308,-4.6308,-4.6308,-4.6308,-4.6308,0.0,0.0,0.0,0.0,-4.6308,-4.6308,-4.6308,-4.6308,-4.6308,-4.6308,-4.6308,-4.6308,-4.6308,-4.4365,-4.1905,-3.8902,-3.7067,-3.4514,-3.1664,-3.1664,-3.1664,-3.1664,-3.1664,-3.1664,-3.1664,-3.1664,-3.1664,-3.1664,-3.1664,-3.1664,-3.1664,-5.6143,-5.6219,-5.6219,-5.6219,-5.6219,-5.6219,-5.6219,-5.6219,-5.6219,-5.6219,-5.7198,-5.7901,-5.7901,-5.8855,-5.9483,-5.9483,-5.9483,-5.9483,-5.9483,-5.9483,-5.9483,-5.9483,-5.9483,-5.9483,-5.9483,-5.9483,-5.9483,-5.9483,-5.9483,-5.9483,-5.9483,-5.9483,-5.9483,-5.9508,-5.9809,-5.9935,-5.9985,-6.0537,-6.0788,-6.0814,-6.109,-6.119,-6.0926,-5.8708,-5.7267,-5.5831,-5.2369,-5.0409,-4.9304,-4.8007,-4.7578,-4.7578,-4.7578,-4.7578,-4.7676,-4.8144,-4.8281,-4.8281,-4.8281,-4.8281,-4.8281,-4.8281,-4.8281,-4.8203,-4.7969,-4.793,-4.7793,-4.7363,-4.709,-4.6875,-4.668,-4.6465,-4.6308,-4.6308,-4.6308,-4.6308,-4.6308,-4.6308,0.0,-4.6308,-4.6308,-4.6308,-4.6308,-4.6308,-4.6308,-4.6308,-4.6308,0.0,-4.6308,-4.6308,-4.6308,-4.6308,-4.6308,-4.6308,-4.6308,-4.6308,-4.6308,-4.6308,-4.3815,-4.1349,-3.8902,-3.6421,-3.3952,-3.1664,-3.1664,-3.1664,-3.1664,-3.1664,-3.1664,-3.1664,-3.1664,-3.1664,-3.1664,-3.1664,-3.1664,-3.1664,-5.6219,-5.6219,-5.6219,-5.6219,-5.6219,-5.6219,-5.6219,-5.6219,-5.6219,-5.6219,-5.7198,-5.7901,-5.7901,-5.8855,-5.9483,-5.9483,-5.9483,-5.9483,-5.9483,-5.9483,-5.9483,-5.9483,-5.9483,-5.9483,-5.9483,-5.9483,-5.9483,-5.9483,-5.9483,-5.9483,-5.9483,-5.9483,-5.9483,-5.9483,-5.9483,-5.9483,-5.9533,-6.001,-6.0186,-6.0236,-6.0738,-6.0756,-6.0149,-5.7955,-5.5685,-5.3414,-5.1139,-4.9101,-4.7383,-4.7383,-4.7383,-4.7383,-4.7383,-4.7383,-4.7383,-4.7383,-4.7383,-4.7422,-4.7539,-4.7578,-4.7578,-4.7578,-4.7578,-4.7558,-4.75,-4.748,-4.7363,-4.6933,-4.6836,-4.6719,-4.6367,-4.6308,-4.6308,-4.6308,-4.6308,-4.6308,-4.6308,0.0,-4.6308,-4.6308,-4.6308,-4.6308,-4.6308,-4.6308,-4.6308,-4.6308,-4.6308,-4.6308,-4.6308,-4.6308,-4.6308,-4.6308,-4.6308,-4.6308,-4.6308,-4.6308,-4.6114,-4.5744,-4.3264,-4.0808,-3.8353,-3.5881,-3.3685,-3.1664,-3.1664,-3.1664,-3.1664,-3.1664,-3.1664,-3.1664,-3.1664,-3.1664,-3.1664,-3.1664,-3.1664,-3.1664,-5.6219,-5.6219,-5.6219,-5.6219,-5.6219,-5.6219,-5.6219,-5.6219,-5.6219,-5.6219,-5.7198,-5.7901,-5.7901,-5.8855,-5.9483,-5.9483,-5.9483,-5.9483,-5.9483,-5.9483,-5.9483,-5.9483,-5.9483,-5.9483,-5.9483,-5.9483,-5.9483,-5.9483,-5.9483,-5.9483,-5.9483,-5.9483,-5.9483,-5.9483,-5.9483,-5.9483,-5.9508,-5.9583,-5.9633,-5.9633,-5.9734,-5.8669,-5.675,-5.4544,-5.2314,-5.0082,-4.7842,-4.6835,-4.6504,-4.6504,-4.6504,-4.6504,-4.6504,-4.6504,-4.6504,-4.6504,-4.6504,-4.666,-4.7383,-4.7578,-4.7578,-4.7578,-4.7578,-4.748,-4.7109,-4.7031,-4.6914,-4.6484,-4.6406,-4.6387,-4.6308,-4.6308,-4.6308,-4.6308,-4.6308,-4.6308,-4.6308,0.0,-4.6308,-4.6308,-4.6308,-4.6308,-4.6308,-4.6308,-4.6308,-4.6308,-4.6308,-4.6308,-4.6308,-4.6308,-4.6308,-4.6308,-4.6308,-4.6308,-4.6308,-4.6308,-4.5285,-4.3175,-4.0718,-3.8246,-3.5788,-3.3323,-3.2029,-3.1664,-3.1664,-3.1664,-3.1664,-3.1664,-3.1664,-3.1664,-3.1664,-3.1664,-3.1664,-3.1664,-3.1664,-3.1664,-5.6219,-5.6219,-5.6219,-5.6219,-5.6219,-5.6219,-5.6219,-5.6219,-5.6219,-5.6219,-5.7198,-5.7901,-5.7901,-5.8855,-5.9483,-5.9483,-5.9483,-5.9483,-5.9483,-5.9483,-5.9483,-5.9483,-5.9483,-5.9483,-5.9483,-5.9483,-5.9483,-5.9483,-5.9483,-5.9483,-5.9483,-5.9483,-5.9483,-5.9483,-5.9483,-5.9483,-5.9483,-5.9483,-5.9483,-5.9405,-5.8163,-5.709,-5.5848,-5.2425,-5.0526,-4.9297,-4.7054,-4.6308,-4.6308,-4.6308,-4.6308,-4.6308,-4.6308,-4.6308,-4.6308,-4.6308,-4.6308,-4.6387,-4.6777,-4.6894,-4.6894,-4.6894,-4.6894,-4.6836,-4.6641,-4.6601,-4.6543,-4.6348,-4.6308,-4.6308,-4.6308,-4.6308,-4.6308,-4.6308,-4.6308,0.0,0.0,-4.6308,-4.6308,-4.6308,-4.6308,-4.6308,-4.6308,-4.6308,-4.6308,-4.6308,-4.6308,-4.6308,-4.6308,-4.6308,-4.6308,-4.6308,-4.6308,-4.6308,-4.6308,-4.6308,-4.5021,-4.2532,-4.0175,-3.7712,-3.523,-3.2772,-3.1664,-3.1664,-3.1664,-3.1664,-3.1664,-3.1664,-3.1664,-3.1664,-3.1664,-3.1664,-3.1664,-3.1664,-3.1664,-3.1664,-5.6219,-5.6219,-5.6219,-5.6219,-5.6219,-5.6219,-5.6219,-5.6219,-5.6219,-5.6219,-5.7198,-5.7901,-5.7901,-5.8855,-5.9483,-5.9483,-5.9483,-5.9483,-5.9483,-5.9483,-5.9483,-5.9483,-5.9483,-5.9483,-5.9483,-5.9483,-5.9483,-5.9483,-5.9483,-5.9483,-5.9483,-5.9483,-5.9483,-5.9483,-5.9483,-5.9483,-5.9483,-5.9483,-5.9483,-5.9328,-5.709,-5.5871,-5.5043,-5.1092,-4.9297,-4.8634,-4.688,-4.6308,-4.6308,-4.6308,-4.6308,-4.6308,-4.6308,-4.6308,-4.6308,-4.6308,-4.6308,-4.6308,-4.6308,-4.6308,-4.6308,-4.6308,-4.6308,-4.6308,-4.6308,-4.6308,-4.6308,-4.6308,-4.6308,-4.6308,-4.6308,-4.6308,-4.6308,-4.6308,0.0,0.0,0.0,-4.6308,-4.6308,-4.6308,-4.6308,-4.6308,-4.6308,-4.6308,-4.6308,-4.6308,-4.6308,-4.6308,-4.6308,-4.6308,-4.6308,-4.6308,-4.6308,-4.6026,-4.548,-4.548,-4.3904,-4.0898,-3.9068,-3.6883,-3.442,-3.2489,-3.1664,-3.1664,-3.1664,-3.1664,-3.1664,-3.1664,-3.1664,-3.1664,-3.1664,-3.1664,-3.1664,-3.1664,-3.1664,-3.1664,-5.6219,-5.6219,-5.6219,-5.6219,-5.6219,-5.6219,-5.6219,-5.6219,-5.6219,-5.6219,-5.7198,-5.7901,-5.7901,-5.8855,-5.9483,-5.9483,-5.9483,-5.9483,-5.9483,-5.9483,-5.9483,-5.9483,-5.9483,-5.9483,-5.9483,-5.9483,-5.9483,-5.9483,-5.9483,-5.9483,-5.9483,-5.9483,-5.9483,-5.9483,-5.9483,-5.9483,-5.9483,-5.9483,-5.9483,-5.9328,-5.7114,-5.4986,-5.2921,-5.0526,-4.829,-4.6551,-4.6396,-4.6308,-4.6308,-4.6308,-4.6308,-4.6308,-4.6308,-4.6308,-4.6308,-4.6308,-4.6308,-4.6308,-4.6308,-4.6308,-4.6308,-4.6308,-4.6308,-4.6308,-4.6308,-4.6308,-4.6308,-4.6308,-4.6308,-4.6308,-4.6308,-4.6308,-4.6308,-4.6308,0.0,0.0,-4.6308,-4.6308,-4.6308,-4.6308,-4.6308,-4.6308,-4.6308,-4.6308,-4.6308,-4.6308,-4.6308,-4.6308,-4.6308,-4.6308,-4.6308,-4.6308,-4.6308,-4.5197,-4.2907,-4.2907,-4.0537,-3.5881,-3.5695,-3.4327,-3.1948,-3.1758,-3.1664,-3.1664,-3.1664,-3.1664,-3.1664,-3.1664,-3.1664,-3.1664,-3.1664,-3.1664,-3.1664,-3.1664,-3.1664,-3.1664,-5.6219,-5.6219,-5.6219,-5.6219,-5.6219,-5.6219,-5.6219,-5.6219,-5.6219,-5.6219,-5.7198,-5.7901,-5.7901,-5.8855,-5.9483,-5.9483,-5.9483,-5.9483,-5.9483,-5.9483,-5.9483,-5.9483,-5.9483,-5.9483,-5.9483,-5.9483,-5.9483,-5.9483,-5.9483,-5.9483,-5.9483,-5.9483,-5.9483,-5.9483,-5.9483,-5.9483,-5.9405,-5.8006,-5.7431,-5.7114,-5.3579,-5.1594,-5.061,-4.8376,-4.7054,-4.6308,-4.6308,-4.6308,-4.6308,-4.6308,-4.6308,-4.6308,-4.6308,-4.6308,-4.6308,-4.6308,-4.6308,-4.6308,-4.6308,-4.6308,-4.6308,-4.6308,-4.6308,-4.6308,-4.6308,-4.6308,-4.6308,-4.6308,-4.6308,-4.6308,-4.6308,-4.6308,-4.6308,-4.6308,0.0,-4.6308,-4.6308,-4.6308,-4.6308,-4.6308,-4.6308,-4.6308,-4.6308,-4.6308,-4.6308,-4.6308,-4.6308,-4.6308,-4.6308,-4.6308,-4.6308,-4.6308,-4.4826,-4.3549,-4.2621,-4.2621,-4.0158,-3.5323,-3.5323,-3.4046,-3.1664,-3.1664,-3.1664,-3.1664,-3.1664,-3.1664,-3.1664,-3.1664,-3.1664,-3.1664,-3.1664,-3.1664,-3.1664,-3.1664,-3.1664,-3.1664,-5.6219,-5.6219,-5.6219,-5.6219,-5.6219,-5.6219,-5.6219,-5.6219,-5.6219,-5.6219,-5.7198,-5.7901,-5.7901,-5.8855,-5.9483,-5.9483,-5.9483,-5.9483,-5.9483,-5.9483,-5.9483,-5.9483,-5.9483,-5.9483,-5.9483,-5.9483,-5.9483,-5.9483,-5.9483,-5.9483,-5.9483,-5.9483,-5.9483,-5.9483,-5.9483,-5.9095,-5.8344,-5.6852,-5.5791,-5.4824,-5.1114,-4.9616,-4.9382,-4.7141,-4.6308,-4.6308,-4.6308,-4.6308,-4.6308,-4.6308,-4.6308,-4.6308,-4.6308,-4.6308,-4.6308,-4.6308,-4.6308,-4.6308,-4.6308,-4.6308,-4.6308,-4.6308,-4.6308,-4.6308,-4.6308,-4.6308,-4.6308,-4.6308,-4.6308,-4.6308,-4.6308,-4.6308,-4.6308,-4.6308,-4.6308,-4.6308,-4.6308,-4.6308,-4.6308,-4.6308,-4.6308,-4.6308,-4.6308,-4.6308,-4.6308,-4.6308,-4.6308,-4.6308,-4.6308,-4.6308,-4.5939,-4.5197,-4.346,-4.1888,-4.0339,-4.0339,-3.8246,-3.4139,-3.4139,-3.3323,-3.1664,-3.1664,-3.1664,-3.1664,-3.1664,-3.1664,-3.1664,-3.1664,-3.1664,-3.1664,-3.1664,-3.1664,-3.1664,-3.1664,-3.1664,-3.1664,-5.6219,-5.6219,-5.6219,-5.6219,-5.6219,-5.6219,-5.6219,-5.6219,-5.6219,-5.6219,-5.7198,-5.7901,-5.7901,-5.8855,-5.9483,-5.9483,-5.9483,-5.9483,-5.9483,-5.9483,-5.9483,-5.9483,-5.9483,-5.9483,-5.9483,-5.9483,-5.9483,-5.9483,-5.9483,-5.9483,-5.9483,-5.9483,-5.9483,-5.9483,-5.9483,-5.8266,-5.6239,-5.6159,-5.4905,-5.2674,-5.0441,-4.9531,-4.9297,-4.7141,-4.6308,-4.6308,-4.6308,-4.6308,-4.6308,-4.6308,-4.6308,-4.6308,-4.6308,-4.6308,-4.6308,-4.6308,-4.6308,-4.6308,-4.6308,-4.6308,-4.6308,-4.6308,-4.6308,-4.6308,-4.6308,-4.6308,-4.6308,-4.6308,-4.6308,-4.6308,-4.6308,-4.6308,-4.6308,-4.6308,-4.6308,-4.6308,-4.6308,-4.6308,-4.6308,-4.6308,-4.6308,-4.6308,-4.6308,-4.6308,-4.6308,-4.6308,-4.6308,-4.6308,-4.6308,-4.6308,-4.5109,-4.2711,-4.2532,-4.0248,-3.5323,-3.5323,-3.4046,-3.1664,-3.1664,-3.1664,-3.1664,-3.1664,-3.1664,-3.1664,-3.1664,-3.1664,-3.1664,-3.1664,-3.1664,-3.1664,-3.1664,-3.1664,-3.1664,-3.1664,-3.1664,-3.1664,-5.6219,-5.6219,-5.6219,-5.6219,-5.6219,-5.6219,-5.6219,-5.6219,-5.6219,-5.6219,-5.6846,-5.7449,-5.7851,-5.8529,-5.9106,-5.9458,-5.9483,-5.9483,-5.9483,-5.9483,-5.9483,-5.9483,-5.9483,-5.9483,-5.9483,-5.9483,-5.9483,-5.9483,-5.9483,-5.9483,-5.9483,-5.9483,-5.9483,-5.9405,-5.7873,-5.6797,-5.5975,-5.2921,-5.1198,-5.0357,-4.8204,-4.7295,-4.7208,-4.6551,-4.6308,-4.6308,-4.6308,-4.6308,-4.6308,-4.6308,-4.6308,-4.6308,-4.6308,-4.6308,-4.6308,-4.6308,-4.6308,-4.6308,-4.6308,-4.6308,-4.6308,-4.6308,-4.6308,-4.6308,-4.6308,-4.6308,-4.6308,-4.6308,-4.6308,-4.6308,-4.6308,-4.6308,-4.6308,-4.6308,-4.6308,-4.6308,-4.6308,-4.6308,-4.6308,-4.6308,-4.6308,-4.6308,-4.6308,-4.6308,-4.6308,-4.6308,-4.6308,-4.6308,-4.6308,-4.4649,-4.3353,-4.2621,-3.925,-3.6791,-3.5323,-3.5323,-3.4046,-3.1664,-3.1664,-3.1664,-3.1664,-3.1664,-3.1664,-3.1664,-3.1664,-3.1664,-3.1664,-3.1664,-3.1664,-3.1664,-3.1664,-3.1664,-3.1664,-3.1664,-3.1664,-3.1664,-5.6219,-5.6219,-5.6219,-5.6219,-5.6219,-5.6219,-5.6219,-5.6219,-5.6219,-5.6219,-5.6696,-5.7173,-5.7524,-5.8252,-5.8855,-5.9156,-5.9382,-5.9483,-5.9483,-5.9483,-5.9483,-5.9483,-5.9483,-5.9483,-5.9483,-5.9483,-5.9483,-5.9483,-5.9483,-5.9483,-5.9483,-5.9483,-5.8993,-5.8163,-5.6797,-5.5228,-5.3415,-5.0778,-4.9126,-4.8204,-4.6793,-4.6308,-4.6308,-4.6308,-4.6308,-4.6308,-4.6308,-4.6308,-4.6308,-4.6308,-4.6308,-4.6308,-4.6308,-4.6308,-4.6308,-4.6308,-4.6308,-4.6308,-4.6308,-4.6308,-4.6308,-4.6308,-4.6308,-4.6308,-4.6308,-4.6308,-4.6308,-4.6308,-4.6308,-4.6308,-4.6308,-4.6308,-4.6308,-4.6308,-4.6308,-4.6308,-4.6308,-4.6308,-4.6308,-4.6308,-4.6308,-4.6308,-4.6308,-4.6308,-4.6308,-4.6308,-4.6308,-4.6308,-4.6308,-4.3904,-4.2174,-4.1169,-3.7344,-3.4872,-3.3873,-3.3873,-3.3135,-3.1664,-3.1664,-3.1664,-3.1664,-3.1664,-3.1664,-3.1664,-3.1664,-3.1664,-3.1664,-3.1664,-3.1664,-3.1664,-3.1664,-3.1664,-3.1664,-3.1664,-3.1664,-3.1664,-5.6219,-5.6219,-5.6219,-5.6219,-5.6219,-5.6219,-5.6219,-5.6219,-5.6219,-5.6219,-5.6646,-5.6972,-5.7022,-5.7951,-5.8604,-5.8704,-5.9207,-5.9483,-5.9483,-5.9483,-5.9483,-5.9483,-5.9483,-5.9483,-5.9483,-5.9483,-5.9483,-5.9483,-5.9483,-5.9483,-5.9483,-5.9483,-5.8319,-5.6191,-5.5975,-5.3579,-4.9616,-4.9382,-4.8138,-4.6308,-4.6308,-4.6308,-4.6308,-4.6308,-4.6308,-4.6308,-4.6308,-4.6308,-4.6308,-4.6308,-4.6308,-4.6308,-4.6308,-4.6308,-4.6308,-4.6308,-4.6308,-4.6308,-4.6308,-4.6308,-4.6308,-4.6308,-4.6308,-4.6308,-4.6308,-4.6308,-4.6308,-4.6308,-4.6308,-4.6308,-4.6308,-4.6308,-4.6308,-4.6308,-4.6308,-4.6308,-4.6308,-4.6308,-4.6308,-4.6308,-4.6308,-4.6308,-4.6308,-4.6308,-4.6308,-4.6308,-4.6308,-4.6201,-4.5939,-4.3638,-4.1169,-3.8719,-3.6252,-3.3952,-3.1758,-3.1664,-3.1664,-3.1664,-3.1664,-3.1664,-3.1664,-3.1664,-3.1664,-3.1664,-3.1664,-3.1664,-3.1664,-3.1664,-3.1664,-3.1664,-3.1664,-3.1664,-3.1664,-3.1664,-3.1664,-3.1664,-5.6219,-5.6219,-5.6219,-5.6219,-5.6219,-5.6219,-5.6219,-5.6219,-5.6219,-5.6219,-5.6319,-5.6545,-5.6972,-5.7248,-5.775,-5.8654,-5.9207,-5.9483,-5.9483,-5.9483,-5.9483,-5.9483,-5.9483,-5.9483,-5.9483,-5.9483,-5.9483,-5.9483,-5.9483,-5.9483,-5.9483,-5.9483,-5.8319,-5.6088,-5.4395,-5.2094,-4.9446,-4.7707,-4.6706,-4.6308,-4.6308,-4.6308,-4.6308,-4.6308,-4.6308,-4.6308,-4.6308,-4.6308,-4.6308,-4.6308,-4.6308,-4.6308,-4.6308,-4.6308,-4.6308,-4.6308,-4.6308,-4.6308,-4.6308,-4.6308,-4.6308,-4.6308,-4.6308,-4.6308,-4.6308,-4.6308,-4.6308,-4.6308,-4.6308,-4.6308,-4.6308,-4.6308,-4.6308,-4.6308,-4.6308,-4.6308,-4.6308,-4.6308,-4.6308,-4.6308,-4.6308,-4.6308,-4.6308,-4.6308,-4.6308,-4.6308,-4.6308,-4.548,-4.3549,-4.1079,-3.8611,-3.6159,-3.3779,-3.2219,-3.1677,-3.1664,-3.1664,-3.1664,-3.1664,-3.1664,-3.1664,-3.1664,-3.1664,-3.1664,-3.1664,-3.1664,-3.1664,-3.1664,-3.1664,-3.1664,-3.1664,-3.1664,-3.1664,-3.1664,-3.1664,-3.1664,-5.6219,-5.6219,-5.6219,-5.6219,-5.6219,-5.6219,-5.6219,-5.6219,-5.6219,-5.6219,-5.6219,-5.6319,-5.662,-5.6872,-5.7374,-5.8252,-5.8805,-5.9131,-5.9131,-5.9357,-5.9483,-5.9483,-5.9483,-5.9483,-5.9483,-5.9483,-5.9483,-5.9483,-5.9483,-5.9483,-5.9483,-5.9483,-5.777,-5.4557,-5.3415,-5.1114,-4.7966,-4.6793,-4.6308,-4.6308,-4.6308,-4.6308,-4.6308,-4.6308,-4.6308,-4.6308,-4.6308,-4.6308,-4.6308,-4.6308,-4.6308,-4.6308,-4.6308,-4.6308,-4.6308,-4.6308,-4.6308,-4.6308,-4.6308,-4.6308,-4.6308,-4.6308,-4.6308,-4.6308,-4.6308,-4.6308,-4.6308,-4.6308,-4.6308,-4.6308,-4.6308,-4.6308,-4.6308,-4.6308,-4.6308,-4.6308,-4.6308,-4.6308,-4.6308,-4.6308,-4.6308,-4.6308,-4.6308,-4.6308,-4.6308,-4.6308,-4.5197,-4.3993,-4.2621,-3.9159,-3.6606,-3.5323,-3.296,-3.1664,-3.1664,-3.1664,-3.1664,-3.1664,-3.1664,-3.1664,-3.1664,-3.1664,-3.1664,-3.1664,-3.1664,-3.1664,-3.1664,-3.1664,-3.1664,-3.1664,-3.1664,-3.1664,-3.1664,-3.1664,-3.1583,-3.1436,-5.6219,-5.6219,-5.6219,-5.6219,-5.6219,-5.6219,-5.6219,-5.6219,-5.6219,-5.6219,-5.6219,-5.6219,-5.6219,-5.6696,-5.7223,-5.77,-5.8252,-5.8579,-5.8579,-5.8981,-5.9232,-5.9232,-5.9232,-5.9257,-5.9357,-5.9357,-5.9408,-5.9483,-5.9483,-5.9328,-5.8915,-5.8915,-5.6614,-5.2343,-5.2343,-5.0125,-4.6308,-4.6308,-4.6308,-4.6308,-4.6308,-4.6308,-4.6308,-4.6308,-4.6308,-4.6308,-4.6308,-4.625,-4.6191,-4.6191,-4.6152,-4.6074,-4.6074,-4.6074,-4.6074,-4.6074,-4.6074,-4.6074,-4.6074,-4.6074,-4.6074,-4.6074,-4.6074,-4.6074,-4.6074,-4.6191,-4.6308,-4.6308,-4.6308,-4.6308,-4.6308,-4.6308,-4.6308,-4.6308,-4.6308,-4.6308,-4.6308,-4.6308,-4.6308,-4.6308,-4.6308,-4.6308,-4.6308,-4.6308,-4.6308,-4.6308,-4.4365,-4.2907,-4.1995,-3.8154,-3.5509,-3.4686,-3.2772,-3.1664,-3.1664,-3.1664,-3.1664,-3.1664,-3.1664,-3.1664,-3.1664,-3.1664,-3.1664,-3.1664,-3.1664,-3.1664,-3.1664,-3.1664,-3.1664,-3.1664,-3.1664,-3.1637,-3.1583,-3.1543,-3.137,-3.1116,-5.6219,-5.6219,-5.6219,-5.6219,-5.6219,-5.6219,-5.6219,-5.6219,-5.6219,-5.6219,-5.6219,-5.6219,-5.6219,-5.6696,-5.7072,-5.7148,-5.7675,-5.8001,-5.8001,-5.8077,-5.8127,-5.8127,-5.8127,-5.8328,-5.8805,-5.883,-5.9056,-5.9483,-5.9483,-5.85,-5.6638,-5.6638,-5.4337,-5.004,-5.004,-4.8634,-4.6308,-4.6308,-4.6308,-4.6308,-4.6308,-4.6308,-4.6308,-4.6308,-4.6308,-4.6308,-4.6308,-4.6074,-4.5762,-4.5762,-4.5508,-4.5195,-4.5195,-4.5195,-4.5195,-4.5195,-4.5195,-4.5195,-4.5195,-4.5195,-4.5195,-4.5195,-4.5195,-4.5195,-4.5195,-4.5762,-4.6308,-4.6308,-4.6308,-4.6308,-4.6308,-4.6308,-4.6308,-4.6308,-4.6308,-4.6308,-4.6308,-4.6308,-4.6308,-4.6308,-4.6308,-4.6308,-4.6308,-4.6308,-4.6308,-4.6308,-4.6026,-4.3923,-3.9704,-3.8885,-3.6514,-3.2313,-3.1853,-3.1664,-3.1664,-3.1664,-3.1664,-3.1664,-3.1664,-3.1664,-3.1664,-3.1664,-3.1664,-3.1664,-3.1664,-3.1664,-3.1664,-3.1664,-3.1664,-3.1664,-3.1664,-3.1517,-3.1249,-3.1009,-3.0889,-3.0849,-5.6219,-5.6219,-5.6219,-5.6219,-5.6219,-5.6219,-5.6219,-5.6219,-5.6219,-5.6219,-5.6219,-5.6219,-5.6219,-5.642,-5.657,-5.657,-5.7097,-5.7424,-5.7424,-5.7725,-5.7901,-5.7901,-5.7901,-5.8001,-5.8252,-5.8252,-5.8378,-5.8604,-5.9207,-5.8344,-5.6215,-5.6009,-5.3495,-4.9238,-4.8966,-4.764,-4.5586,-4.5586,-4.5586,-4.5586,-4.5586,-4.5586,-4.5586,-4.5586,-4.5586,-4.5586,-4.5586,-4.5469,-4.5312,-4.5312,-4.5176,-4.5019,-4.5019,-4.5019,-4.5019,-4.5019,-4.5019,-4.5019,-4.5019,-4.5019,-4.5019,-4.5019,-4.5019,-4.5019,-4.5019,-4.5312,-4.5586,-4.5586,-4.5586,-4.5586,-4.5586,-4.5586,-4.5586,-4.5586,-4.5586,-4.5586,-4.5586,-4.5586,-4.5586,-4.5586,-4.5586,-4.5586,-4.5586,-4.5586,-4.5586,-4.5586,-4.3148,-4.063,-3.8472,-3.6051,-3.3601,-3.1517,-3.1583,-3.1664,-3.1664,-3.1664,-3.1664,-3.1664,-3.1664,-3.1664,-3.1664,-3.1664,-3.1664,-3.1664,-3.1664,-3.1664,-3.1664,-3.1664,-3.157,-3.1423,-3.1423,-3.1249,-3.0942,-3.0662,-3.0555,-3.0528]}]]